<?xml version="1.0" encoding="UTF-8" standalone="no" ?>
<gpx xmlns="http://www.topografix.com/GPX/1/1" xmlns:xsi="http://www.w3.org/2001/XMLSchema-instance" xsi:schemaLocation="http://www.topografix.com/GPX/1/1 http://www.topografix.com/GPX/1/1/gpx.xsd" version="1.1" creator="VisuGPX - https://www.visugpx.com">
  <metadata>
    <name>Foret d\'Evreux</name>
    <desc><![CDATA[Petite sortie accessible à tous. Pour les fan de bosses ya de quoi se faire plaisir là où j\'ai traversé le chemin potier.

J\'ai vus des restes d\'installation de VTT (tremplin et rampes) mais ça ne semble plus entretenus.... dommage.]]></desc>
  </metadata>
  <trk>
    <name><![CDATA[ExploGPSTrack]]></name>
    <desc><![CDATA[Track description]]></desc>
    <trkseg>
      <trkpt lat="49.01511" lon="1.12682">
        <ele>66.5</ele>
        <time>2014-07-14T15:53:17Z</time>
      </trkpt>
      <trkpt lat="49.015" lon="1.12689">
        <ele>90.5</ele>
        <time>2014-07-14T15:53:21Z</time>
      </trkpt>
      <trkpt lat="49.01506" lon="1.1269">
        <ele>85.5</ele>
        <time>2014-07-14T15:53:22Z</time>
      </trkpt>
      <trkpt lat="49.01509" lon="1.12675">
        <ele>82.5</ele>
        <time>2014-07-14T15:53:23Z</time>
      </trkpt>
      <trkpt lat="49.01511" lon="1.12685">
        <ele>63.5</ele>
        <time>2014-07-14T15:53:25Z</time>
      </trkpt>
      <trkpt lat="49.01511" lon="1.12684">
        <ele>59.5</ele>
        <time>2014-07-14T15:53:28Z</time>
      </trkpt>
      <trkpt lat="49.01511" lon="1.12682">
        <ele>59.5</ele>
        <time>2014-07-14T15:53:32Z</time>
      </trkpt>
      <trkpt lat="49.01512" lon="1.12682">
        <ele>59.5</ele>
        <time>2014-07-14T15:53:34Z</time>
      </trkpt>
      <trkpt lat="49.01511" lon="1.1269">
        <ele>76.5</ele>
        <time>2014-07-14T15:53:47Z</time>
      </trkpt>
      <trkpt lat="49.01508" lon="1.12699">
        <ele>88.5</ele>
        <time>2014-07-14T15:54:18Z</time>
      </trkpt>
      <trkpt lat="49.01506" lon="1.12706">
        <ele>91.5</ele>
        <time>2014-07-14T15:54:20Z</time>
      </trkpt>
      <trkpt lat="49.01504" lon="1.12713">
        <ele>97.5</ele>
        <time>2014-07-14T15:54:26Z</time>
      </trkpt>
      <trkpt lat="49.01502" lon="1.12718">
        <ele>98.5</ele>
        <time>2014-07-14T15:54:29Z</time>
      </trkpt>
      <trkpt lat="49.01501" lon="1.12726">
        <ele>103.5</ele>
        <time>2014-07-14T15:54:33Z</time>
      </trkpt>
      <trkpt lat="49.01501" lon="1.12735">
        <ele>109.5</ele>
        <time>2014-07-14T15:54:38Z</time>
      </trkpt>
      <trkpt lat="49.01501" lon="1.12741">
        <ele>107.5</ele>
        <time>2014-07-14T15:54:41Z</time>
      </trkpt>
      <trkpt lat="49.01498" lon="1.12746">
        <ele>107.5</ele>
        <time>2014-07-14T15:54:44Z</time>
      </trkpt>
      <trkpt lat="49.01496" lon="1.1275">
        <ele>110.5</ele>
        <time>2014-07-14T15:54:46Z</time>
      </trkpt>
      <trkpt lat="49.01495" lon="1.12758">
        <ele>109.5</ele>
        <time>2014-07-14T15:54:49Z</time>
      </trkpt>
      <trkpt lat="49.01495" lon="1.12765">
        <ele>111.5</ele>
        <time>2014-07-14T15:54:52Z</time>
      </trkpt>
      <trkpt lat="49.01492" lon="1.12773">
        <ele>109.5</ele>
        <time>2014-07-14T15:54:56Z</time>
      </trkpt>
      <trkpt lat="49.0149" lon="1.1278">
        <ele>111.5</ele>
        <time>2014-07-14T15:54:59Z</time>
      </trkpt>
      <trkpt lat="49.01489" lon="1.12782">
        <ele>113.5</ele>
        <time>2014-07-14T15:55:00Z</time>
      </trkpt>
      <trkpt lat="49.01488" lon="1.12789">
        <ele>114.5</ele>
        <time>2014-07-14T15:55:03Z</time>
      </trkpt>
      <trkpt lat="49.01488" lon="1.12798">
        <ele>111.5</ele>
        <time>2014-07-14T15:55:07Z</time>
      </trkpt>
      <trkpt lat="49.01488" lon="1.12806">
        <ele>113.5</ele>
        <time>2014-07-14T15:55:11Z</time>
      </trkpt>
      <trkpt lat="49.01489" lon="1.12815">
        <ele>114.5</ele>
        <time>2014-07-14T15:55:15Z</time>
      </trkpt>
      <trkpt lat="49.01488" lon="1.12822">
        <ele>114.5</ele>
        <time>2014-07-14T15:55:18Z</time>
      </trkpt>
      <trkpt lat="49.01486" lon="1.12828">
        <ele>109.5</ele>
        <time>2014-07-14T15:55:21Z</time>
      </trkpt>
      <trkpt lat="49.01484" lon="1.12834">
        <ele>114.5</ele>
        <time>2014-07-14T15:55:24Z</time>
      </trkpt>
      <trkpt lat="49.01483" lon="1.12839">
        <ele>116.5</ele>
        <time>2014-07-14T15:55:26Z</time>
      </trkpt>
      <trkpt lat="49.01482" lon="1.12846">
        <ele>117.5</ele>
        <time>2014-07-14T15:55:29Z</time>
      </trkpt>
      <trkpt lat="49.0148" lon="1.12853">
        <ele>116.5</ele>
        <time>2014-07-14T15:55:32Z</time>
      </trkpt>
      <trkpt lat="49.01479" lon="1.12861">
        <ele>120.5</ele>
        <time>2014-07-14T15:55:35Z</time>
      </trkpt>
      <trkpt lat="49.01482" lon="1.12868">
        <ele>122.5</ele>
        <time>2014-07-14T15:55:39Z</time>
      </trkpt>
      <trkpt lat="49.01482" lon="1.12869">
        <ele>122.5</ele>
        <time>2014-07-14T15:55:40Z</time>
      </trkpt>
      <trkpt lat="49.0148" lon="1.12873">
        <ele>120.5</ele>
        <time>2014-07-14T15:55:44Z</time>
      </trkpt>
      <trkpt lat="49.01478" lon="1.12879">
        <ele>117.5</ele>
        <time>2014-07-14T15:56:09Z</time>
      </trkpt>
      <trkpt lat="49.01475" lon="1.12881">
        <ele>114.5</ele>
        <time>2014-07-14T15:56:10Z</time>
      </trkpt>
      <trkpt lat="49.01471" lon="1.12885">
        <ele>113.5</ele>
        <time>2014-07-14T15:56:13Z</time>
      </trkpt>
      <trkpt lat="49.01468" lon="1.12888">
        <ele>110.5</ele>
        <time>2014-07-14T15:56:16Z</time>
      </trkpt>
      <trkpt lat="49.01463" lon="1.12887">
        <ele>112.5</ele>
        <time>2014-07-14T15:56:36Z</time>
      </trkpt>
      <trkpt lat="49.0146" lon="1.1288">
        <ele>113.5</ele>
        <time>2014-07-14T15:56:41Z</time>
      </trkpt>
      <trkpt lat="49.01457" lon="1.12873">
        <ele>115.5</ele>
        <time>2014-07-14T15:56:46Z</time>
      </trkpt>
      <trkpt lat="49.01454" lon="1.12866">
        <ele>120.5</ele>
        <time>2014-07-14T15:56:50Z</time>
      </trkpt>
      <trkpt lat="49.01453" lon="1.12864">
        <ele>122.5</ele>
        <time>2014-07-14T15:56:51Z</time>
      </trkpt>
      <trkpt lat="49.01451" lon="1.12856">
        <ele>122.5</ele>
        <time>2014-07-14T15:56:55Z</time>
      </trkpt>
      <trkpt lat="49.01446" lon="1.12849">
        <ele>126.5</ele>
        <time>2014-07-14T15:56:59Z</time>
      </trkpt>
      <trkpt lat="49.01445" lon="1.12843">
        <ele>131.5</ele>
        <time>2014-07-14T15:57:02Z</time>
      </trkpt>
      <trkpt lat="49.01443" lon="1.12835">
        <ele>132.5</ele>
        <time>2014-07-14T15:57:05Z</time>
      </trkpt>
      <trkpt lat="49.01441" lon="1.12827">
        <ele>135.5</ele>
        <time>2014-07-14T15:57:08Z</time>
      </trkpt>
      <trkpt lat="49.01439" lon="1.12819">
        <ele>135.5</ele>
        <time>2014-07-14T15:57:11Z</time>
      </trkpt>
      <trkpt lat="49.01437" lon="1.12808">
        <ele>137.5</ele>
        <time>2014-07-14T15:57:15Z</time>
      </trkpt>
      <trkpt lat="49.01435" lon="1.12799">
        <ele>139.5</ele>
        <time>2014-07-14T15:57:18Z</time>
      </trkpt>
      <trkpt lat="49.01433" lon="1.12791">
        <ele>139.5</ele>
        <time>2014-07-14T15:57:21Z</time>
      </trkpt>
      <trkpt lat="49.01431" lon="1.12785">
        <ele>141.5</ele>
        <time>2014-07-14T15:57:24Z</time>
      </trkpt>
      <trkpt lat="49.01429" lon="1.12776">
        <ele>140.5</ele>
        <time>2014-07-14T15:57:27Z</time>
      </trkpt>
      <trkpt lat="49.01428" lon="1.12769">
        <ele>138.5</ele>
        <time>2014-07-14T15:57:30Z</time>
      </trkpt>
      <trkpt lat="49.01427" lon="1.12765">
        <ele>137.5</ele>
        <time>2014-07-14T15:57:32Z</time>
      </trkpt>
      <trkpt lat="49.01422" lon="1.12766">
        <ele>133.5</ele>
        <time>2014-07-14T15:57:39Z</time>
      </trkpt>
      <trkpt lat="49.01422" lon="1.12766">
        <ele>133.5</ele>
        <time>2014-07-14T15:57:40Z</time>
      </trkpt>
      <trkpt lat="49.01418" lon="1.12772">
        <ele>135.5</ele>
        <time>2014-07-14T15:57:50Z</time>
      </trkpt>
      <trkpt lat="49.01418" lon="1.1278">
        <ele>135.5</ele>
        <time>2014-07-14T15:57:55Z</time>
      </trkpt>
      <trkpt lat="49.01417" lon="1.12783">
        <ele>136.5</ele>
        <time>2014-07-14T15:57:57Z</time>
      </trkpt>
      <trkpt lat="49.01412" lon="1.12786">
        <ele>136.5</ele>
        <time>2014-07-14T15:58:00Z</time>
      </trkpt>
      <trkpt lat="49.01407" lon="1.12788">
        <ele>137.5</ele>
        <time>2014-07-14T15:58:04Z</time>
      </trkpt>
      <trkpt lat="49.01402" lon="1.1279">
        <ele>140.5</ele>
        <time>2014-07-14T15:58:09Z</time>
      </trkpt>
      <trkpt lat="49.01399" lon="1.12794">
        <ele>141.5</ele>
        <time>2014-07-14T15:58:12Z</time>
      </trkpt>
      <trkpt lat="49.01395" lon="1.12799">
        <ele>142.5</ele>
        <time>2014-07-14T15:58:16Z</time>
      </trkpt>
      <trkpt lat="49.01392" lon="1.12804">
        <ele>147.5</ele>
        <time>2014-07-14T15:58:20Z</time>
      </trkpt>
      <trkpt lat="49.01388" lon="1.1281">
        <ele>150.5</ele>
        <time>2014-07-14T15:58:25Z</time>
      </trkpt>
      <trkpt lat="49.01383" lon="1.12814">
        <ele>150.5</ele>
        <time>2014-07-14T15:58:28Z</time>
      </trkpt>
      <trkpt lat="49.0138" lon="1.1282">
        <ele>151.5</ele>
        <time>2014-07-14T15:58:31Z</time>
      </trkpt>
      <trkpt lat="49.01376" lon="1.12826">
        <ele>155.5</ele>
        <time>2014-07-14T15:58:34Z</time>
      </trkpt>
      <trkpt lat="49.01373" lon="1.1283">
        <ele>154.5</ele>
        <time>2014-07-14T15:58:36Z</time>
      </trkpt>
      <trkpt lat="49.01369" lon="1.12835">
        <ele>153.5</ele>
        <time>2014-07-14T15:58:39Z</time>
      </trkpt>
      <trkpt lat="49.01364" lon="1.12838">
        <ele>153.5</ele>
        <time>2014-07-14T15:58:42Z</time>
      </trkpt>
      <trkpt lat="49.01359" lon="1.12841">
        <ele>153.5</ele>
        <time>2014-07-14T15:58:46Z</time>
      </trkpt>
      <trkpt lat="49.01354" lon="1.12842">
        <ele>151.5</ele>
        <time>2014-07-14T15:58:49Z</time>
      </trkpt>
      <trkpt lat="49.01351" lon="1.12845">
        <ele>149.5</ele>
        <time>2014-07-14T15:58:51Z</time>
      </trkpt>
      <trkpt lat="49.01347" lon="1.1285">
        <ele>148.5</ele>
        <time>2014-07-14T15:58:53Z</time>
      </trkpt>
      <trkpt lat="49.01344" lon="1.12856">
        <ele>149.5</ele>
        <time>2014-07-14T15:58:57Z</time>
      </trkpt>
      <trkpt lat="49.01342" lon="1.12862">
        <ele>151.5</ele>
        <time>2014-07-14T15:59:03Z</time>
      </trkpt>
      <trkpt lat="49.01336" lon="1.12858">
        <ele>151.5</ele>
        <time>2014-07-14T15:59:33Z</time>
      </trkpt>
      <trkpt lat="49.01334" lon="1.12852">
        <ele>151.5</ele>
        <time>2014-07-14T15:59:36Z</time>
      </trkpt>
      <trkpt lat="49.01331" lon="1.12845">
        <ele>150.5</ele>
        <time>2014-07-14T15:59:40Z</time>
      </trkpt>
      <trkpt lat="49.0133" lon="1.12844">
        <ele>150.5</ele>
        <time>2014-07-14T15:59:41Z</time>
      </trkpt>
      <trkpt lat="49.01327" lon="1.12838">
        <ele>147.5</ele>
        <time>2014-07-14T15:59:48Z</time>
      </trkpt>
      <trkpt lat="49.01326" lon="1.12828">
        <ele>147.5</ele>
        <time>2014-07-14T16:00:04Z</time>
      </trkpt>
      <trkpt lat="49.01324" lon="1.12819">
        <ele>149.5</ele>
        <time>2014-07-14T16:00:06Z</time>
      </trkpt>
      <trkpt lat="49.01322" lon="1.12811">
        <ele>149.5</ele>
        <time>2014-07-14T16:00:08Z</time>
      </trkpt>
      <trkpt lat="49.0132" lon="1.12801">
        <ele>144.5</ele>
        <time>2014-07-14T16:00:10Z</time>
      </trkpt>
      <trkpt lat="49.01317" lon="1.12791">
        <ele>145.5</ele>
        <time>2014-07-14T16:00:12Z</time>
      </trkpt>
      <trkpt lat="49.01317" lon="1.12785">
        <ele>144.5</ele>
        <time>2014-07-14T16:00:13Z</time>
      </trkpt>
      <trkpt lat="49.01316" lon="1.12772">
        <ele>144.5</ele>
        <time>2014-07-14T16:00:15Z</time>
      </trkpt>
      <trkpt lat="49.01316" lon="1.12766">
        <ele>146.5</ele>
        <time>2014-07-14T16:00:16Z</time>
      </trkpt>
      <trkpt lat="49.01316" lon="1.12754">
        <ele>148.5</ele>
        <time>2014-07-14T16:00:18Z</time>
      </trkpt>
      <trkpt lat="49.01314" lon="1.12743">
        <ele>148.5</ele>
        <time>2014-07-14T16:00:20Z</time>
      </trkpt>
      <trkpt lat="49.01311" lon="1.12724">
        <ele>148.5</ele>
        <time>2014-07-14T16:00:23Z</time>
      </trkpt>
      <trkpt lat="49.01309" lon="1.12713">
        <ele>146.5</ele>
        <time>2014-07-14T16:00:25Z</time>
      </trkpt>
      <trkpt lat="49.01307" lon="1.12703">
        <ele>146.5</ele>
        <time>2014-07-14T16:00:27Z</time>
      </trkpt>
      <trkpt lat="49.01305" lon="1.12692">
        <ele>148.5</ele>
        <time>2014-07-14T16:00:29Z</time>
      </trkpt>
      <trkpt lat="49.01303" lon="1.12681">
        <ele>150.5</ele>
        <time>2014-07-14T16:00:31Z</time>
      </trkpt>
      <trkpt lat="49.01298" lon="1.12665">
        <ele>150.5</ele>
        <time>2014-07-14T16:00:32Z</time>
      </trkpt>
      <trkpt lat="49.01295" lon="1.12659">
        <ele>149.5</ele>
        <time>2014-07-14T16:00:33Z</time>
      </trkpt>
      <trkpt lat="49.01293" lon="1.1265">
        <ele>151.5</ele>
        <time>2014-07-14T16:00:34Z</time>
      </trkpt>
      <trkpt lat="49.01288" lon="1.12645">
        <ele>150.5</ele>
        <time>2014-07-14T16:00:35Z</time>
      </trkpt>
      <trkpt lat="49.01284" lon="1.12636">
        <ele>152.5</ele>
        <time>2014-07-14T16:00:37Z</time>
      </trkpt>
      <trkpt lat="49.01283" lon="1.12632">
        <ele>152.5</ele>
        <time>2014-07-14T16:00:38Z</time>
      </trkpt>
      <trkpt lat="49.01279" lon="1.12623">
        <ele>148.5</ele>
        <time>2014-07-14T16:00:40Z</time>
      </trkpt>
      <trkpt lat="49.01277" lon="1.12611">
        <ele>147.5</ele>
        <time>2014-07-14T16:00:42Z</time>
      </trkpt>
      <trkpt lat="49.01274" lon="1.12601">
        <ele>148.5</ele>
        <time>2014-07-14T16:00:44Z</time>
      </trkpt>
      <trkpt lat="49.01271" lon="1.12592">
        <ele>147.5</ele>
        <time>2014-07-14T16:00:46Z</time>
      </trkpt>
      <trkpt lat="49.0127" lon="1.12584">
        <ele>145.5</ele>
        <time>2014-07-14T16:00:48Z</time>
      </trkpt>
      <trkpt lat="49.01267" lon="1.12579">
        <ele>144.5</ele>
        <time>2014-07-14T16:00:51Z</time>
      </trkpt>
      <trkpt lat="49.01263" lon="1.12574">
        <ele>144.5</ele>
        <time>2014-07-14T16:00:54Z</time>
      </trkpt>
      <trkpt lat="49.01261" lon="1.12571">
        <ele>144.5</ele>
        <time>2014-07-14T16:00:55Z</time>
      </trkpt>
      <trkpt lat="49.01257" lon="1.12565">
        <ele>144.5</ele>
        <time>2014-07-14T16:00:57Z</time>
      </trkpt>
      <trkpt lat="49.01254" lon="1.12559">
        <ele>144.5</ele>
        <time>2014-07-14T16:00:59Z</time>
      </trkpt>
      <trkpt lat="49.01251" lon="1.12551">
        <ele>144.5</ele>
        <time>2014-07-14T16:01:01Z</time>
      </trkpt>
      <trkpt lat="49.01249" lon="1.12543">
        <ele>144.5</ele>
        <time>2014-07-14T16:01:03Z</time>
      </trkpt>
      <trkpt lat="49.01246" lon="1.12533">
        <ele>146.5</ele>
        <time>2014-07-14T16:01:05Z</time>
      </trkpt>
      <trkpt lat="49.01242" lon="1.12522">
        <ele>146.5</ele>
        <time>2014-07-14T16:01:07Z</time>
      </trkpt>
      <trkpt lat="49.0124" lon="1.12516">
        <ele>146.5</ele>
        <time>2014-07-14T16:01:08Z</time>
      </trkpt>
      <trkpt lat="49.01236" lon="1.12506">
        <ele>147.5</ele>
        <time>2014-07-14T16:01:10Z</time>
      </trkpt>
      <trkpt lat="49.01234" lon="1.12502">
        <ele>148.5</ele>
        <time>2014-07-14T16:01:11Z</time>
      </trkpt>
      <trkpt lat="49.01229" lon="1.12496">
        <ele>151.5</ele>
        <time>2014-07-14T16:01:13Z</time>
      </trkpt>
      <trkpt lat="49.01224" lon="1.12493">
        <ele>151.5</ele>
        <time>2014-07-14T16:01:15Z</time>
      </trkpt>
      <trkpt lat="49.0122" lon="1.12489">
        <ele>151.5</ele>
        <time>2014-07-14T16:01:19Z</time>
      </trkpt>
      <trkpt lat="49.01216" lon="1.12483">
        <ele>151.5</ele>
        <time>2014-07-14T16:01:22Z</time>
      </trkpt>
      <trkpt lat="49.0121" lon="1.1248">
        <ele>151.5</ele>
        <time>2014-07-14T16:01:24Z</time>
      </trkpt>
      <trkpt lat="49.01205" lon="1.12476">
        <ele>150.5</ele>
        <time>2014-07-14T16:01:26Z</time>
      </trkpt>
      <trkpt lat="49.01199" lon="1.12475">
        <ele>152.5</ele>
        <time>2014-07-14T16:01:28Z</time>
      </trkpt>
      <trkpt lat="49.01194" lon="1.12475">
        <ele>152.5</ele>
        <time>2014-07-14T16:01:30Z</time>
      </trkpt>
      <trkpt lat="49.01188" lon="1.12474">
        <ele>153.5</ele>
        <time>2014-07-14T16:01:32Z</time>
      </trkpt>
      <trkpt lat="49.01183" lon="1.12473">
        <ele>155.5</ele>
        <time>2014-07-14T16:01:34Z</time>
      </trkpt>
      <trkpt lat="49.0118" lon="1.12473">
        <ele>154.5</ele>
        <time>2014-07-14T16:01:35Z</time>
      </trkpt>
      <trkpt lat="49.01174" lon="1.12473">
        <ele>155.5</ele>
        <time>2014-07-14T16:01:37Z</time>
      </trkpt>
      <trkpt lat="49.01169" lon="1.12469">
        <ele>154.5</ele>
        <time>2014-07-14T16:01:39Z</time>
      </trkpt>
      <trkpt lat="49.01166" lon="1.12466">
        <ele>154.5</ele>
        <time>2014-07-14T16:01:40Z</time>
      </trkpt>
      <trkpt lat="49.01163" lon="1.12457">
        <ele>154.5</ele>
        <time>2014-07-14T16:01:42Z</time>
      </trkpt>
      <trkpt lat="49.01161" lon="1.12447">
        <ele>153.5</ele>
        <time>2014-07-14T16:01:44Z</time>
      </trkpt>
      <trkpt lat="49.01159" lon="1.12436">
        <ele>155.5</ele>
        <time>2014-07-14T16:01:46Z</time>
      </trkpt>
      <trkpt lat="49.01159" lon="1.12426">
        <ele>153.5</ele>
        <time>2014-07-14T16:01:48Z</time>
      </trkpt>
      <trkpt lat="49.01159" lon="1.12414">
        <ele>153.5</ele>
        <time>2014-07-14T16:01:50Z</time>
      </trkpt>
      <trkpt lat="49.01161" lon="1.12401">
        <ele>153.5</ele>
        <time>2014-07-14T16:01:52Z</time>
      </trkpt>
      <trkpt lat="49.01163" lon="1.12391">
        <ele>155.5</ele>
        <time>2014-07-14T16:01:54Z</time>
      </trkpt>
      <trkpt lat="49.01164" lon="1.1238">
        <ele>155.5</ele>
        <time>2014-07-14T16:01:56Z</time>
      </trkpt>
      <trkpt lat="49.01164" lon="1.1237">
        <ele>158.5</ele>
        <time>2014-07-14T16:01:58Z</time>
      </trkpt>
      <trkpt lat="49.01164" lon="1.12361">
        <ele>157.5</ele>
        <time>2014-07-14T16:02:00Z</time>
      </trkpt>
      <trkpt lat="49.01165" lon="1.12351">
        <ele>156.5</ele>
        <time>2014-07-14T16:02:02Z</time>
      </trkpt>
      <trkpt lat="49.01167" lon="1.12343">
        <ele>158.5</ele>
        <time>2014-07-14T16:02:04Z</time>
      </trkpt>
      <trkpt lat="49.01169" lon="1.12336">
        <ele>159.5</ele>
        <time>2014-07-14T16:02:06Z</time>
      </trkpt>
      <trkpt lat="49.0117" lon="1.12329">
        <ele>158.5</ele>
        <time>2014-07-14T16:02:08Z</time>
      </trkpt>
      <trkpt lat="49.01172" lon="1.12321">
        <ele>156.5</ele>
        <time>2014-07-14T16:02:10Z</time>
      </trkpt>
      <trkpt lat="49.01173" lon="1.12317">
        <ele>156.5</ele>
        <time>2014-07-14T16:02:11Z</time>
      </trkpt>
      <trkpt lat="49.01176" lon="1.12309">
        <ele>155.5</ele>
        <time>2014-07-14T16:02:13Z</time>
      </trkpt>
      <trkpt lat="49.0118" lon="1.12298">
        <ele>154.5</ele>
        <time>2014-07-14T16:02:15Z</time>
      </trkpt>
      <trkpt lat="49.01183" lon="1.12291">
        <ele>153.5</ele>
        <time>2014-07-14T16:02:16Z</time>
      </trkpt>
      <trkpt lat="49.01185" lon="1.12285">
        <ele>156.5</ele>
        <time>2014-07-14T16:02:17Z</time>
      </trkpt>
      <trkpt lat="49.01189" lon="1.12273">
        <ele>156.5</ele>
        <time>2014-07-14T16:02:19Z</time>
      </trkpt>
      <trkpt lat="49.01194" lon="1.12261">
        <ele>151.5</ele>
        <time>2014-07-14T16:02:21Z</time>
      </trkpt>
      <trkpt lat="49.01199" lon="1.1225">
        <ele>150.5</ele>
        <time>2014-07-14T16:02:23Z</time>
      </trkpt>
      <trkpt lat="49.01203" lon="1.12237">
        <ele>148.5</ele>
        <time>2014-07-14T16:02:25Z</time>
      </trkpt>
      <trkpt lat="49.01205" lon="1.12231">
        <ele>149.5</ele>
        <time>2014-07-14T16:02:26Z</time>
      </trkpt>
      <trkpt lat="49.01208" lon="1.12224">
        <ele>147.5</ele>
        <time>2014-07-14T16:02:27Z</time>
      </trkpt>
      <trkpt lat="49.0121" lon="1.12217">
        <ele>144.5</ele>
        <time>2014-07-14T16:02:28Z</time>
      </trkpt>
      <trkpt lat="49.01213" lon="1.12211">
        <ele>143.5</ele>
        <time>2014-07-14T16:02:29Z</time>
      </trkpt>
      <trkpt lat="49.01214" lon="1.12204">
        <ele>142.5</ele>
        <time>2014-07-14T16:02:30Z</time>
      </trkpt>
      <trkpt lat="49.01218" lon="1.12193">
        <ele>143.5</ele>
        <time>2014-07-14T16:02:32Z</time>
      </trkpt>
      <trkpt lat="49.01221" lon="1.12184">
        <ele>143.5</ele>
        <time>2014-07-14T16:02:34Z</time>
      </trkpt>
      <trkpt lat="49.01225" lon="1.12174">
        <ele>142.5</ele>
        <time>2014-07-14T16:02:36Z</time>
      </trkpt>
      <trkpt lat="49.01227" lon="1.12167">
        <ele>141.5</ele>
        <time>2014-07-14T16:02:37Z</time>
      </trkpt>
      <trkpt lat="49.01231" lon="1.12155">
        <ele>141.5</ele>
        <time>2014-07-14T16:02:38Z</time>
      </trkpt>
      <trkpt lat="49.01232" lon="1.12142">
        <ele>141.5</ele>
        <time>2014-07-14T16:02:40Z</time>
      </trkpt>
      <trkpt lat="49.01234" lon="1.12133">
        <ele>142.5</ele>
        <time>2014-07-14T16:02:41Z</time>
      </trkpt>
      <trkpt lat="49.01235" lon="1.12125">
        <ele>141.5</ele>
        <time>2014-07-14T16:02:42Z</time>
      </trkpt>
      <trkpt lat="49.01239" lon="1.12116">
        <ele>141.5</ele>
        <time>2014-07-14T16:02:43Z</time>
      </trkpt>
      <trkpt lat="49.01243" lon="1.12108">
        <ele>141.5</ele>
        <time>2014-07-14T16:02:44Z</time>
      </trkpt>
      <trkpt lat="49.01246" lon="1.12102">
        <ele>141.5</ele>
        <time>2014-07-14T16:02:45Z</time>
      </trkpt>
      <trkpt lat="49.01244" lon="1.12094">
        <ele>141.5</ele>
        <time>2014-07-14T16:02:46Z</time>
      </trkpt>
      <trkpt lat="49.01245" lon="1.12085">
        <ele>141.5</ele>
        <time>2014-07-14T16:02:47Z</time>
      </trkpt>
      <trkpt lat="49.01243" lon="1.12077">
        <ele>140.5</ele>
        <time>2014-07-14T16:02:48Z</time>
      </trkpt>
      <trkpt lat="49.0124" lon="1.12071">
        <ele>140.5</ele>
        <time>2014-07-14T16:02:49Z</time>
      </trkpt>
      <trkpt lat="49.01236" lon="1.12064">
        <ele>140.5</ele>
        <time>2014-07-14T16:02:50Z</time>
      </trkpt>
      <trkpt lat="49.01232" lon="1.12057">
        <ele>141.5</ele>
        <time>2014-07-14T16:02:51Z</time>
      </trkpt>
      <trkpt lat="49.01232" lon="1.12052">
        <ele>141.5</ele>
        <time>2014-07-14T16:02:52Z</time>
      </trkpt>
      <trkpt lat="49.0123" lon="1.12046">
        <ele>138.5</ele>
        <time>2014-07-14T16:02:53Z</time>
      </trkpt>
      <trkpt lat="49.01223" lon="1.12033">
        <ele>138.5</ele>
        <time>2014-07-14T16:02:55Z</time>
      </trkpt>
      <trkpt lat="49.0122" lon="1.12026">
        <ele>141.5</ele>
        <time>2014-07-14T16:02:57Z</time>
      </trkpt>
      <trkpt lat="49.01218" lon="1.12018">
        <ele>142.5</ele>
        <time>2014-07-14T16:02:59Z</time>
      </trkpt>
      <trkpt lat="49.01216" lon="1.12011">
        <ele>139.5</ele>
        <time>2014-07-14T16:03:01Z</time>
      </trkpt>
      <trkpt lat="49.01213" lon="1.12004">
        <ele>142.5</ele>
        <time>2014-07-14T16:03:05Z</time>
      </trkpt>
      <trkpt lat="49.01213" lon="1.11997">
        <ele>137.5</ele>
        <time>2014-07-14T16:03:11Z</time>
      </trkpt>
      <trkpt lat="49.01214" lon="1.11993">
        <ele>135.5</ele>
        <time>2014-07-14T16:03:49Z</time>
      </trkpt>
      <trkpt lat="49.01215" lon="1.11992">
        <ele>134.5</ele>
        <time>2014-07-14T16:05:17Z</time>
      </trkpt>
      <trkpt lat="49.01216" lon="1.11993">
        <ele>134.5</ele>
        <time>2014-07-14T16:05:18Z</time>
      </trkpt>
      <trkpt lat="49.01219" lon="1.11988">
        <ele>128.5</ele>
        <time>2014-07-14T16:05:22Z</time>
      </trkpt>
      <trkpt lat="49.01215" lon="1.11989">
        <ele>131.5</ele>
        <time>2014-07-14T16:05:41Z</time>
      </trkpt>
      <trkpt lat="49.0121" lon="1.11992">
        <ele>129.5</ele>
        <time>2014-07-14T16:05:43Z</time>
      </trkpt>
      <trkpt lat="49.01205" lon="1.11994">
        <ele>129.5</ele>
        <time>2014-07-14T16:05:45Z</time>
      </trkpt>
      <trkpt lat="49.01201" lon="1.11996">
        <ele>128.5</ele>
        <time>2014-07-14T16:05:47Z</time>
      </trkpt>
      <trkpt lat="49.01195" lon="1.11995">
        <ele>129.5</ele>
        <time>2014-07-14T16:05:50Z</time>
      </trkpt>
      <trkpt lat="49.01188" lon="1.11996">
        <ele>131.5</ele>
        <time>2014-07-14T16:05:53Z</time>
      </trkpt>
      <trkpt lat="49.01182" lon="1.11997">
        <ele>134.5</ele>
        <time>2014-07-14T16:05:55Z</time>
      </trkpt>
      <trkpt lat="49.01176" lon="1.11995">
        <ele>136.5</ele>
        <time>2014-07-14T16:05:57Z</time>
      </trkpt>
      <trkpt lat="49.01169" lon="1.11991">
        <ele>138.5</ele>
        <time>2014-07-14T16:05:59Z</time>
      </trkpt>
      <trkpt lat="49.01162" lon="1.11988">
        <ele>135.5</ele>
        <time>2014-07-14T16:06:01Z</time>
      </trkpt>
      <trkpt lat="49.01157" lon="1.11983">
        <ele>137.5</ele>
        <time>2014-07-14T16:06:03Z</time>
      </trkpt>
      <trkpt lat="49.01152" lon="1.11975">
        <ele>141.5</ele>
        <time>2014-07-14T16:06:05Z</time>
      </trkpt>
      <trkpt lat="49.01147" lon="1.11969">
        <ele>142.5</ele>
        <time>2014-07-14T16:06:07Z</time>
      </trkpt>
      <trkpt lat="49.01142" lon="1.11961">
        <ele>143.5</ele>
        <time>2014-07-14T16:06:09Z</time>
      </trkpt>
      <trkpt lat="49.01137" lon="1.1195">
        <ele>143.5</ele>
        <time>2014-07-14T16:06:11Z</time>
      </trkpt>
      <trkpt lat="49.01134" lon="1.11945">
        <ele>143.5</ele>
        <time>2014-07-14T16:06:12Z</time>
      </trkpt>
      <trkpt lat="49.01128" lon="1.11938">
        <ele>144.5</ele>
        <time>2014-07-14T16:06:14Z</time>
      </trkpt>
      <trkpt lat="49.01121" lon="1.11937">
        <ele>145.5</ele>
        <time>2014-07-14T16:06:16Z</time>
      </trkpt>
      <trkpt lat="49.01115" lon="1.11935">
        <ele>145.5</ele>
        <time>2014-07-14T16:06:18Z</time>
      </trkpt>
      <trkpt lat="49.01109" lon="1.11934">
        <ele>145.5</ele>
        <time>2014-07-14T16:06:20Z</time>
      </trkpt>
      <trkpt lat="49.01103" lon="1.11932">
        <ele>144.5</ele>
        <time>2014-07-14T16:06:22Z</time>
      </trkpt>
      <trkpt lat="49.01098" lon="1.11929">
        <ele>145.5</ele>
        <time>2014-07-14T16:06:24Z</time>
      </trkpt>
      <trkpt lat="49.01092" lon="1.11932">
        <ele>142.5</ele>
        <time>2014-07-14T16:06:26Z</time>
      </trkpt>
      <trkpt lat="49.01084" lon="1.11933">
        <ele>142.5</ele>
        <time>2014-07-14T16:06:28Z</time>
      </trkpt>
      <trkpt lat="49.01075" lon="1.11931">
        <ele>143.5</ele>
        <time>2014-07-14T16:06:30Z</time>
      </trkpt>
      <trkpt lat="49.01071" lon="1.11929">
        <ele>143.5</ele>
        <time>2014-07-14T16:06:31Z</time>
      </trkpt>
      <trkpt lat="49.01066" lon="1.11927">
        <ele>143.5</ele>
        <time>2014-07-14T16:06:32Z</time>
      </trkpt>
      <trkpt lat="49.0106" lon="1.11925">
        <ele>143.5</ele>
        <time>2014-07-14T16:06:33Z</time>
      </trkpt>
      <trkpt lat="49.01053" lon="1.11924">
        <ele>142.5</ele>
        <time>2014-07-14T16:06:35Z</time>
      </trkpt>
      <trkpt lat="49.01049" lon="1.11919">
        <ele>141.5</ele>
        <time>2014-07-14T16:06:41Z</time>
      </trkpt>
      <trkpt lat="49.01046" lon="1.11917">
        <ele>142.5</ele>
        <time>2014-07-14T16:06:43Z</time>
      </trkpt>
      <trkpt lat="49.01046" lon="1.11916">
        <ele>140.5</ele>
        <time>2014-07-14T16:06:44Z</time>
      </trkpt>
      <trkpt lat="49.01041" lon="1.11911">
        <ele>139.5</ele>
        <time>2014-07-14T16:06:49Z</time>
      </trkpt>
      <trkpt lat="49.01037" lon="1.11908">
        <ele>139.5</ele>
        <time>2014-07-14T16:06:51Z</time>
      </trkpt>
      <trkpt lat="49.01028" lon="1.11904">
        <ele>137.5</ele>
        <time>2014-07-14T16:06:55Z</time>
      </trkpt>
      <trkpt lat="49.01024" lon="1.11901">
        <ele>136.5</ele>
        <time>2014-07-14T16:06:57Z</time>
      </trkpt>
      <trkpt lat="49.01018" lon="1.11901">
        <ele>136.5</ele>
        <time>2014-07-14T16:06:59Z</time>
      </trkpt>
      <trkpt lat="49.01013" lon="1.11901">
        <ele>137.5</ele>
        <time>2014-07-14T16:07:01Z</time>
      </trkpt>
      <trkpt lat="49.01008" lon="1.119">
        <ele>137.5</ele>
        <time>2014-07-14T16:07:04Z</time>
      </trkpt>
      <trkpt lat="49.01004" lon="1.11895">
        <ele>138.5</ele>
        <time>2014-07-14T16:07:07Z</time>
      </trkpt>
      <trkpt lat="49.00998" lon="1.11893">
        <ele>134.5</ele>
        <time>2014-07-14T16:07:11Z</time>
      </trkpt>
      <trkpt lat="49.00993" lon="1.11891">
        <ele>133.5</ele>
        <time>2014-07-14T16:07:14Z</time>
      </trkpt>
      <trkpt lat="49.00988" lon="1.11887">
        <ele>133.5</ele>
        <time>2014-07-14T16:07:17Z</time>
      </trkpt>
      <trkpt lat="49.00982" lon="1.11884">
        <ele>131.5</ele>
        <time>2014-07-14T16:07:20Z</time>
      </trkpt>
      <trkpt lat="49.00975" lon="1.11884">
        <ele>130.5</ele>
        <time>2014-07-14T16:07:22Z</time>
      </trkpt>
      <trkpt lat="49.00967" lon="1.11883">
        <ele>132.5</ele>
        <time>2014-07-14T16:07:24Z</time>
      </trkpt>
      <trkpt lat="49.0096" lon="1.1188">
        <ele>134.5</ele>
        <time>2014-07-14T16:07:26Z</time>
      </trkpt>
      <trkpt lat="49.00953" lon="1.11875">
        <ele>136.5</ele>
        <time>2014-07-14T16:07:29Z</time>
      </trkpt>
      <trkpt lat="49.00949" lon="1.1187">
        <ele>138.5</ele>
        <time>2014-07-14T16:07:31Z</time>
      </trkpt>
      <trkpt lat="49.00945" lon="1.11867">
        <ele>139.5</ele>
        <time>2014-07-14T16:07:33Z</time>
      </trkpt>
      <trkpt lat="49.00938" lon="1.11867">
        <ele>139.5</ele>
        <time>2014-07-14T16:07:35Z</time>
      </trkpt>
      <trkpt lat="49.00931" lon="1.11866">
        <ele>139.5</ele>
        <time>2014-07-14T16:07:37Z</time>
      </trkpt>
      <trkpt lat="49.00924" lon="1.11863">
        <ele>141.5</ele>
        <time>2014-07-14T16:07:39Z</time>
      </trkpt>
      <trkpt lat="49.00917" lon="1.1186">
        <ele>141.5</ele>
        <time>2014-07-14T16:07:41Z</time>
      </trkpt>
      <trkpt lat="49.0091" lon="1.11857">
        <ele>139.5</ele>
        <time>2014-07-14T16:07:43Z</time>
      </trkpt>
      <trkpt lat="49.00907" lon="1.11856">
        <ele>140.5</ele>
        <time>2014-07-14T16:07:44Z</time>
      </trkpt>
      <trkpt lat="49.00899" lon="1.11855">
        <ele>137.5</ele>
        <time>2014-07-14T16:07:46Z</time>
      </trkpt>
      <trkpt lat="49.00892" lon="1.11852">
        <ele>137.5</ele>
        <time>2014-07-14T16:07:48Z</time>
      </trkpt>
      <trkpt lat="49.00888" lon="1.1185">
        <ele>136.5</ele>
        <time>2014-07-14T16:07:49Z</time>
      </trkpt>
      <trkpt lat="49.00881" lon="1.11844">
        <ele>136.5</ele>
        <time>2014-07-14T16:07:51Z</time>
      </trkpt>
      <trkpt lat="49.00878" lon="1.1184">
        <ele>137.5</ele>
        <time>2014-07-14T16:07:52Z</time>
      </trkpt>
      <trkpt lat="49.00867" lon="1.1183">
        <ele>138.5</ele>
        <time>2014-07-14T16:07:55Z</time>
      </trkpt>
      <trkpt lat="49.0086" lon="1.11824">
        <ele>140.5</ele>
        <time>2014-07-14T16:07:57Z</time>
      </trkpt>
      <trkpt lat="49.00853" lon="1.11818">
        <ele>140.5</ele>
        <time>2014-07-14T16:07:59Z</time>
      </trkpt>
      <trkpt lat="49.00845" lon="1.11816">
        <ele>138.5</ele>
        <time>2014-07-14T16:08:01Z</time>
      </trkpt>
      <trkpt lat="49.00836" lon="1.11813">
        <ele>138.5</ele>
        <time>2014-07-14T16:08:03Z</time>
      </trkpt>
      <trkpt lat="49.00829" lon="1.1181">
        <ele>136.5</ele>
        <time>2014-07-14T16:08:05Z</time>
      </trkpt>
      <trkpt lat="49.00824" lon="1.11807">
        <ele>134.5</ele>
        <time>2014-07-14T16:08:07Z</time>
      </trkpt>
      <trkpt lat="49.00818" lon="1.11809">
        <ele>134.5</ele>
        <time>2014-07-14T16:08:09Z</time>
      </trkpt>
      <trkpt lat="49.00809" lon="1.1181">
        <ele>133.5</ele>
        <time>2014-07-14T16:08:11Z</time>
      </trkpt>
      <trkpt lat="49.00805" lon="1.11808">
        <ele>130.5</ele>
        <time>2014-07-14T16:08:12Z</time>
      </trkpt>
      <trkpt lat="49.008" lon="1.11806">
        <ele>131.5</ele>
        <time>2014-07-14T16:08:13Z</time>
      </trkpt>
      <trkpt lat="49.00792" lon="1.11797">
        <ele>130.5</ele>
        <time>2014-07-14T16:08:14Z</time>
      </trkpt>
      <trkpt lat="49.00782" lon="1.11793">
        <ele>130.5</ele>
        <time>2014-07-14T16:08:16Z</time>
      </trkpt>
      <trkpt lat="49.00774" lon="1.11794">
        <ele>130.5</ele>
        <time>2014-07-14T16:08:18Z</time>
      </trkpt>
      <trkpt lat="49.00769" lon="1.11794">
        <ele>131.5</ele>
        <time>2014-07-14T16:08:19Z</time>
      </trkpt>
      <trkpt lat="49.00761" lon="1.1179">
        <ele>130.5</ele>
        <time>2014-07-14T16:08:21Z</time>
      </trkpt>
      <trkpt lat="49.00755" lon="1.11784">
        <ele>129.5</ele>
        <time>2014-07-14T16:08:23Z</time>
      </trkpt>
      <trkpt lat="49.00751" lon="1.1177">
        <ele>127.5</ele>
        <time>2014-07-14T16:08:25Z</time>
      </trkpt>
      <trkpt lat="49.00748" lon="1.11766">
        <ele>126.5</ele>
        <time>2014-07-14T16:08:26Z</time>
      </trkpt>
      <trkpt lat="49.00743" lon="1.1176">
        <ele>126.5</ele>
        <time>2014-07-14T16:08:28Z</time>
      </trkpt>
      <trkpt lat="49.00736" lon="1.11758">
        <ele>125.5</ele>
        <time>2014-07-14T16:08:31Z</time>
      </trkpt>
      <trkpt lat="49.00729" lon="1.11759">
        <ele>124.5</ele>
        <time>2014-07-14T16:08:33Z</time>
      </trkpt>
      <trkpt lat="49.00725" lon="1.1176">
        <ele>125.5</ele>
        <time>2014-07-14T16:08:34Z</time>
      </trkpt>
      <trkpt lat="49.00716" lon="1.1176">
        <ele>127.5</ele>
        <time>2014-07-14T16:08:36Z</time>
      </trkpt>
      <trkpt lat="49.00711" lon="1.11759">
        <ele>129.5</ele>
        <time>2014-07-14T16:08:37Z</time>
      </trkpt>
      <trkpt lat="49.00706" lon="1.11757">
        <ele>129.5</ele>
        <time>2014-07-14T16:08:38Z</time>
      </trkpt>
      <trkpt lat="49.00702" lon="1.11755">
        <ele>129.5</ele>
        <time>2014-07-14T16:08:39Z</time>
      </trkpt>
      <trkpt lat="49.00694" lon="1.11752">
        <ele>130.5</ele>
        <time>2014-07-14T16:08:41Z</time>
      </trkpt>
      <trkpt lat="49.00688" lon="1.11753">
        <ele>130.5</ele>
        <time>2014-07-14T16:08:43Z</time>
      </trkpt>
      <trkpt lat="49.00685" lon="1.11754">
        <ele>132.5</ele>
        <time>2014-07-14T16:08:44Z</time>
      </trkpt>
      <trkpt lat="49.00677" lon="1.11754">
        <ele>128.5</ele>
        <time>2014-07-14T16:08:46Z</time>
      </trkpt>
      <trkpt lat="49.00672" lon="1.11753">
        <ele>127.5</ele>
        <time>2014-07-14T16:08:48Z</time>
      </trkpt>
      <trkpt lat="49.00667" lon="1.11753">
        <ele>126.5</ele>
        <time>2014-07-14T16:08:53Z</time>
      </trkpt>
      <trkpt lat="49.00662" lon="1.11757">
        <ele>124.5</ele>
        <time>2014-07-14T16:08:58Z</time>
      </trkpt>
      <trkpt lat="49.00661" lon="1.11755">
        <ele>137.5</ele>
        <time>2014-07-14T16:09:04Z</time>
      </trkpt>
      <trkpt lat="49.00659" lon="1.11751">
        <ele>137.5</ele>
        <time>2014-07-14T16:09:06Z</time>
      </trkpt>
      <trkpt lat="49.00654" lon="1.11747">
        <ele>136.5</ele>
        <time>2014-07-14T16:09:08Z</time>
      </trkpt>
      <trkpt lat="49.00646" lon="1.11739">
        <ele>135.5</ele>
        <time>2014-07-14T16:09:10Z</time>
      </trkpt>
      <trkpt lat="49.00643" lon="1.11734">
        <ele>134.5</ele>
        <time>2014-07-14T16:09:11Z</time>
      </trkpt>
      <trkpt lat="49.00639" lon="1.1173">
        <ele>133.5</ele>
        <time>2014-07-14T16:09:12Z</time>
      </trkpt>
      <trkpt lat="49.00636" lon="1.11726">
        <ele>134.5</ele>
        <time>2014-07-14T16:09:13Z</time>
      </trkpt>
      <trkpt lat="49.00632" lon="1.11719">
        <ele>134.5</ele>
        <time>2014-07-14T16:09:15Z</time>
      </trkpt>
      <trkpt lat="49.00628" lon="1.11713">
        <ele>134.5</ele>
        <time>2014-07-14T16:09:17Z</time>
      </trkpt>
      <trkpt lat="49.00624" lon="1.11708">
        <ele>133.5</ele>
        <time>2014-07-14T16:09:19Z</time>
      </trkpt>
      <trkpt lat="49.00622" lon="1.11705">
        <ele>133.5</ele>
        <time>2014-07-14T16:09:20Z</time>
      </trkpt>
      <trkpt lat="49.00617" lon="1.11699">
        <ele>129.5</ele>
        <time>2014-07-14T16:09:22Z</time>
      </trkpt>
      <trkpt lat="49.00611" lon="1.11695">
        <ele>132.5</ele>
        <time>2014-07-14T16:09:24Z</time>
      </trkpt>
      <trkpt lat="49.00607" lon="1.11694">
        <ele>137.5</ele>
        <time>2014-07-14T16:09:26Z</time>
      </trkpt>
      <trkpt lat="49.00601" lon="1.11699">
        <ele>137.5</ele>
        <time>2014-07-14T16:09:29Z</time>
      </trkpt>
      <trkpt lat="49.00597" lon="1.11701">
        <ele>138.5</ele>
        <time>2014-07-14T16:09:31Z</time>
      </trkpt>
      <trkpt lat="49.0059" lon="1.11701">
        <ele>142.5</ele>
        <time>2014-07-14T16:09:33Z</time>
      </trkpt>
      <trkpt lat="49.00585" lon="1.11699">
        <ele>142.5</ele>
        <time>2014-07-14T16:09:34Z</time>
      </trkpt>
      <trkpt lat="49.00581" lon="1.11696">
        <ele>141.5</ele>
        <time>2014-07-14T16:09:35Z</time>
      </trkpt>
      <trkpt lat="49.00576" lon="1.11694">
        <ele>142.5</ele>
        <time>2014-07-14T16:09:36Z</time>
      </trkpt>
      <trkpt lat="49.00569" lon="1.11694">
        <ele>141.5</ele>
        <time>2014-07-14T16:09:38Z</time>
      </trkpt>
      <trkpt lat="49.00563" lon="1.11699">
        <ele>141.5</ele>
        <time>2014-07-14T16:09:40Z</time>
      </trkpt>
      <trkpt lat="49.00558" lon="1.11706">
        <ele>142.5</ele>
        <time>2014-07-14T16:09:42Z</time>
      </trkpt>
      <trkpt lat="49.00555" lon="1.11711">
        <ele>145.5</ele>
        <time>2014-07-14T16:09:43Z</time>
      </trkpt>
      <trkpt lat="49.00552" lon="1.11722">
        <ele>146.5</ele>
        <time>2014-07-14T16:09:45Z</time>
      </trkpt>
      <trkpt lat="49.00548" lon="1.11731">
        <ele>146.5</ele>
        <time>2014-07-14T16:09:47Z</time>
      </trkpt>
      <trkpt lat="49.00544" lon="1.11739">
        <ele>146.5</ele>
        <time>2014-07-14T16:09:49Z</time>
      </trkpt>
      <trkpt lat="49.00543" lon="1.11744">
        <ele>142.5</ele>
        <time>2014-07-14T16:09:50Z</time>
      </trkpt>
      <trkpt lat="49.00542" lon="1.11754">
        <ele>141.5</ele>
        <time>2014-07-14T16:09:52Z</time>
      </trkpt>
      <trkpt lat="49.0054" lon="1.11763">
        <ele>142.5</ele>
        <time>2014-07-14T16:09:54Z</time>
      </trkpt>
      <trkpt lat="49.0054" lon="1.11773">
        <ele>143.5</ele>
        <time>2014-07-14T16:09:56Z</time>
      </trkpt>
      <trkpt lat="49.00542" lon="1.11786">
        <ele>146.5</ele>
        <time>2014-07-14T16:09:59Z</time>
      </trkpt>
      <trkpt lat="49.00544" lon="1.1179">
        <ele>147.5</ele>
        <time>2014-07-14T16:10:00Z</time>
      </trkpt>
      <trkpt lat="49.00544" lon="1.11797">
        <ele>146.5</ele>
        <time>2014-07-14T16:10:02Z</time>
      </trkpt>
      <trkpt lat="49.00542" lon="1.11804">
        <ele>147.5</ele>
        <time>2014-07-14T16:10:04Z</time>
      </trkpt>
      <trkpt lat="49.00541" lon="1.11808">
        <ele>146.5</ele>
        <time>2014-07-14T16:10:05Z</time>
      </trkpt>
      <trkpt lat="49.0054" lon="1.11812">
        <ele>147.5</ele>
        <time>2014-07-14T16:10:06Z</time>
      </trkpt>
      <trkpt lat="49.00538" lon="1.11819">
        <ele>148.5</ele>
        <time>2014-07-14T16:10:08Z</time>
      </trkpt>
      <trkpt lat="49.00531" lon="1.11822">
        <ele>141.5</ele>
        <time>2014-07-14T16:10:10Z</time>
      </trkpt>
      <trkpt lat="49.00523" lon="1.11818">
        <ele>139.5</ele>
        <time>2014-07-14T16:10:12Z</time>
      </trkpt>
      <trkpt lat="49.00515" lon="1.11813">
        <ele>138.5</ele>
        <time>2014-07-14T16:10:14Z</time>
      </trkpt>
      <trkpt lat="49.00511" lon="1.1181">
        <ele>138.5</ele>
        <time>2014-07-14T16:10:15Z</time>
      </trkpt>
      <trkpt lat="49.00504" lon="1.11804">
        <ele>139.5</ele>
        <time>2014-07-14T16:10:17Z</time>
      </trkpt>
      <trkpt lat="49.00501" lon="1.11801">
        <ele>138.5</ele>
        <time>2014-07-14T16:10:18Z</time>
      </trkpt>
      <trkpt lat="49.00497" lon="1.11798">
        <ele>139.5</ele>
        <time>2014-07-14T16:10:20Z</time>
      </trkpt>
      <trkpt lat="49.00492" lon="1.11793">
        <ele>136.5</ele>
        <time>2014-07-14T16:10:22Z</time>
      </trkpt>
      <trkpt lat="49.00487" lon="1.11788">
        <ele>134.5</ele>
        <time>2014-07-14T16:10:24Z</time>
      </trkpt>
      <trkpt lat="49.00483" lon="1.11783">
        <ele>137.5</ele>
        <time>2014-07-14T16:10:26Z</time>
      </trkpt>
      <trkpt lat="49.00479" lon="1.1178">
        <ele>135.5</ele>
        <time>2014-07-14T16:10:32Z</time>
      </trkpt>
      <trkpt lat="49.00474" lon="1.11776">
        <ele>136.5</ele>
        <time>2014-07-14T16:10:35Z</time>
      </trkpt>
      <trkpt lat="49.0047" lon="1.11773">
        <ele>135.5</ele>
        <time>2014-07-14T16:10:37Z</time>
      </trkpt>
      <trkpt lat="49.00469" lon="1.1177">
        <ele>133.5</ele>
        <time>2014-07-14T16:10:38Z</time>
      </trkpt>
      <trkpt lat="49.00468" lon="1.11763">
        <ele>131.5</ele>
        <time>2014-07-14T16:10:40Z</time>
      </trkpt>
      <trkpt lat="49.00467" lon="1.1176">
        <ele>130.5</ele>
        <time>2014-07-14T16:10:41Z</time>
      </trkpt>
      <trkpt lat="49.00466" lon="1.11752">
        <ele>128.5</ele>
        <time>2014-07-14T16:10:44Z</time>
      </trkpt>
      <trkpt lat="49.00466" lon="1.11749">
        <ele>128.5</ele>
        <time>2014-07-14T16:10:45Z</time>
      </trkpt>
      <trkpt lat="49.00461" lon="1.11747">
        <ele>128.5</ele>
        <time>2014-07-14T16:10:49Z</time>
      </trkpt>
      <trkpt lat="49.00459" lon="1.11745">
        <ele>128.5</ele>
        <time>2014-07-14T16:11:17Z</time>
      </trkpt>
      <trkpt lat="49.00457" lon="1.11734">
        <ele>128.5</ele>
        <time>2014-07-14T16:11:39Z</time>
      </trkpt>
      <trkpt lat="49.00457" lon="1.11726">
        <ele>126.5</ele>
        <time>2014-07-14T16:11:41Z</time>
      </trkpt>
      <trkpt lat="49.00455" lon="1.11723">
        <ele>128.5</ele>
        <time>2014-07-14T16:11:44Z</time>
      </trkpt>
      <trkpt lat="49.00452" lon="1.11717">
        <ele>129.5</ele>
        <time>2014-07-14T16:11:52Z</time>
      </trkpt>
      <trkpt lat="49.00451" lon="1.11714">
        <ele>127.5</ele>
        <time>2014-07-14T16:11:53Z</time>
      </trkpt>
      <trkpt lat="49.0045" lon="1.11708">
        <ele>125.5</ele>
        <time>2014-07-14T16:12:16Z</time>
      </trkpt>
      <trkpt lat="49.00451" lon="1.11707">
        <ele>124.5</ele>
        <time>2014-07-14T16:12:21Z</time>
      </trkpt>
      <trkpt lat="49.00451" lon="1.11707">
        <ele>124.5</ele>
        <time>2014-07-14T16:12:26Z</time>
      </trkpt>
      <trkpt lat="49.00451" lon="1.11707">
        <ele>124.5</ele>
        <time>2014-07-14T16:12:33Z</time>
      </trkpt>
      <trkpt lat="49.00449" lon="1.117">
        <ele>116.5</ele>
        <time>2014-07-14T16:12:54Z</time>
      </trkpt>
      <trkpt lat="49.00446" lon="1.11692">
        <ele>116.5</ele>
        <time>2014-07-14T16:12:59Z</time>
      </trkpt>
      <trkpt lat="49.00444" lon="1.11683">
        <ele>118.5</ele>
        <time>2014-07-14T16:13:02Z</time>
      </trkpt>
      <trkpt lat="49.00445" lon="1.11681">
        <ele>120.5</ele>
        <time>2014-07-14T16:13:03Z</time>
      </trkpt>
      <trkpt lat="49.00445" lon="1.1168">
        <ele>118.5</ele>
        <time>2014-07-14T16:13:04Z</time>
      </trkpt>
      <trkpt lat="49.00446" lon="1.11675">
        <ele>117.5</ele>
        <time>2014-07-14T16:13:12Z</time>
      </trkpt>
      <trkpt lat="49.00445" lon="1.11674">
        <ele>120.5</ele>
        <time>2014-07-14T16:13:30Z</time>
      </trkpt>
      <trkpt lat="49.00445" lon="1.11674">
        <ele>120.5</ele>
        <time>2014-07-14T16:13:32Z</time>
      </trkpt>
      <trkpt lat="49.00443" lon="1.11681">
        <ele>116.5</ele>
        <time>2014-07-14T16:14:11Z</time>
      </trkpt>
      <trkpt lat="49.00437" lon="1.11688">
        <ele>116.5</ele>
        <time>2014-07-14T16:14:13Z</time>
      </trkpt>
      <trkpt lat="49.00431" lon="1.11691">
        <ele>118.5</ele>
        <time>2014-07-14T16:14:15Z</time>
      </trkpt>
      <trkpt lat="49.00426" lon="1.11695">
        <ele>122.5</ele>
        <time>2014-07-14T16:14:17Z</time>
      </trkpt>
      <trkpt lat="49.00424" lon="1.11698">
        <ele>122.5</ele>
        <time>2014-07-14T16:14:18Z</time>
      </trkpt>
      <trkpt lat="49.00421" lon="1.11705">
        <ele>124.5</ele>
        <time>2014-07-14T16:14:20Z</time>
      </trkpt>
      <trkpt lat="49.00419" lon="1.11711">
        <ele>127.5</ele>
        <time>2014-07-14T16:14:22Z</time>
      </trkpt>
      <trkpt lat="49.00417" lon="1.11723">
        <ele>127.5</ele>
        <time>2014-07-14T16:14:26Z</time>
      </trkpt>
      <trkpt lat="49.00417" lon="1.11728">
        <ele>125.5</ele>
        <time>2014-07-14T16:14:28Z</time>
      </trkpt>
      <trkpt lat="49.00417" lon="1.11731">
        <ele>126.5</ele>
        <time>2014-07-14T16:14:29Z</time>
      </trkpt>
      <trkpt lat="49.00414" lon="1.11737">
        <ele>128.5</ele>
        <time>2014-07-14T16:14:31Z</time>
      </trkpt>
      <trkpt lat="49.00409" lon="1.11746">
        <ele>130.5</ele>
        <time>2014-07-14T16:14:33Z</time>
      </trkpt>
      <trkpt lat="49.00405" lon="1.11753">
        <ele>130.5</ele>
        <time>2014-07-14T16:14:35Z</time>
      </trkpt>
      <trkpt lat="49.00402" lon="1.1176">
        <ele>132.5</ele>
        <time>2014-07-14T16:14:37Z</time>
      </trkpt>
      <trkpt lat="49.004" lon="1.11768">
        <ele>131.5</ele>
        <time>2014-07-14T16:14:40Z</time>
      </trkpt>
      <trkpt lat="49.00399" lon="1.11776">
        <ele>133.5</ele>
        <time>2014-07-14T16:14:43Z</time>
      </trkpt>
      <trkpt lat="49.00398" lon="1.11783">
        <ele>135.5</ele>
        <time>2014-07-14T16:14:46Z</time>
      </trkpt>
      <trkpt lat="49.00396" lon="1.1179">
        <ele>134.5</ele>
        <time>2014-07-14T16:14:49Z</time>
      </trkpt>
      <trkpt lat="49.00393" lon="1.11797">
        <ele>135.5</ele>
        <time>2014-07-14T16:14:51Z</time>
      </trkpt>
      <trkpt lat="49.0039" lon="1.11804">
        <ele>135.5</ele>
        <time>2014-07-14T16:14:53Z</time>
      </trkpt>
      <trkpt lat="49.00389" lon="1.11806">
        <ele>135.5</ele>
        <time>2014-07-14T16:14:54Z</time>
      </trkpt>
      <trkpt lat="49.00387" lon="1.11808">
        <ele>135.5</ele>
        <time>2014-07-14T16:14:55Z</time>
      </trkpt>
      <trkpt lat="49.00386" lon="1.11809">
        <ele>136.5</ele>
        <time>2014-07-14T16:14:56Z</time>
      </trkpt>
      <trkpt lat="49.00381" lon="1.11815">
        <ele>136.5</ele>
        <time>2014-07-14T16:15:00Z</time>
      </trkpt>
      <trkpt lat="49.0038" lon="1.11818">
        <ele>136.5</ele>
        <time>2014-07-14T16:15:01Z</time>
      </trkpt>
      <trkpt lat="49.00375" lon="1.11823">
        <ele>134.5</ele>
        <time>2014-07-14T16:15:04Z</time>
      </trkpt>
      <trkpt lat="49.00371" lon="1.11826">
        <ele>128.5</ele>
        <time>2014-07-14T16:15:05Z</time>
      </trkpt>
      <trkpt lat="49.00367" lon="1.1183">
        <ele>129.5</ele>
        <time>2014-07-14T16:15:06Z</time>
      </trkpt>
      <trkpt lat="49.0036" lon="1.11837">
        <ele>128.5</ele>
        <time>2014-07-14T16:15:08Z</time>
      </trkpt>
      <trkpt lat="49.00354" lon="1.11843">
        <ele>130.5</ele>
        <time>2014-07-14T16:15:10Z</time>
      </trkpt>
      <trkpt lat="49.0035" lon="1.11845">
        <ele>129.5</ele>
        <time>2014-07-14T16:15:11Z</time>
      </trkpt>
      <trkpt lat="49.00346" lon="1.11848">
        <ele>130.5</ele>
        <time>2014-07-14T16:15:13Z</time>
      </trkpt>
      <trkpt lat="49.00344" lon="1.11849">
        <ele>129.5</ele>
        <time>2014-07-14T16:15:14Z</time>
      </trkpt>
      <trkpt lat="49.00341" lon="1.11855">
        <ele>130.5</ele>
        <time>2014-07-14T16:15:17Z</time>
      </trkpt>
      <trkpt lat="49.0034" lon="1.11859">
        <ele>129.5</ele>
        <time>2014-07-14T16:15:19Z</time>
      </trkpt>
      <trkpt lat="49.00339" lon="1.1186">
        <ele>128.5</ele>
        <time>2014-07-14T16:15:20Z</time>
      </trkpt>
      <trkpt lat="49.00334" lon="1.11864">
        <ele>132.5</ele>
        <time>2014-07-14T16:15:23Z</time>
      </trkpt>
      <trkpt lat="49.0033" lon="1.1187">
        <ele>134.5</ele>
        <time>2014-07-14T16:15:26Z</time>
      </trkpt>
      <trkpt lat="49.0033" lon="1.11872">
        <ele>134.5</ele>
        <time>2014-07-14T16:15:27Z</time>
      </trkpt>
      <trkpt lat="49.00331" lon="1.1188">
        <ele>135.5</ele>
        <time>2014-07-14T16:15:31Z</time>
      </trkpt>
      <trkpt lat="49.0033" lon="1.11887">
        <ele>135.5</ele>
        <time>2014-07-14T16:15:34Z</time>
      </trkpt>
      <trkpt lat="49.00328" lon="1.11894">
        <ele>135.5</ele>
        <time>2014-07-14T16:15:38Z</time>
      </trkpt>
      <trkpt lat="49.00329" lon="1.11893">
        <ele>133.5</ele>
        <time>2014-07-14T16:15:44Z</time>
      </trkpt>
      <trkpt lat="49.0033" lon="1.11889">
        <ele>132.5</ele>
        <time>2014-07-14T16:15:47Z</time>
      </trkpt>
      <trkpt lat="49.00332" lon="1.11889">
        <ele>132.5</ele>
        <time>2014-07-14T16:15:48Z</time>
      </trkpt>
      <trkpt lat="49.00329" lon="1.11898">
        <ele>134.5</ele>
        <time>2014-07-14T16:15:54Z</time>
      </trkpt>
      <trkpt lat="49.00324" lon="1.11908">
        <ele>138.5</ele>
        <time>2014-07-14T16:15:56Z</time>
      </trkpt>
      <trkpt lat="49.00322" lon="1.11911">
        <ele>137.5</ele>
        <time>2014-07-14T16:15:57Z</time>
      </trkpt>
      <trkpt lat="49.0032" lon="1.11914">
        <ele>137.5</ele>
        <time>2014-07-14T16:15:58Z</time>
      </trkpt>
      <trkpt lat="49.00318" lon="1.1192">
        <ele>136.5</ele>
        <time>2014-07-14T16:16:00Z</time>
      </trkpt>
      <trkpt lat="49.00318" lon="1.11922">
        <ele>136.5</ele>
        <time>2014-07-14T16:16:01Z</time>
      </trkpt>
      <trkpt lat="49.00316" lon="1.11926">
        <ele>140.5</ele>
        <time>2014-07-14T16:16:06Z</time>
      </trkpt>
      <trkpt lat="49.00316" lon="1.11925">
        <ele>139.5</ele>
        <time>2014-07-14T16:16:08Z</time>
      </trkpt>
      <trkpt lat="49.0032" lon="1.11929">
        <ele>139.5</ele>
        <time>2014-07-14T16:16:15Z</time>
      </trkpt>
      <trkpt lat="49.0032" lon="1.11931">
        <ele>138.5</ele>
        <time>2014-07-14T16:16:16Z</time>
      </trkpt>
      <trkpt lat="49.00319" lon="1.11932">
        <ele>136.5</ele>
        <time>2014-07-14T16:16:17Z</time>
      </trkpt>
      <trkpt lat="49.0032" lon="1.11937">
        <ele>126.5</ele>
        <time>2014-07-14T16:16:29Z</time>
      </trkpt>
      <trkpt lat="49.0032" lon="1.11938">
        <ele>128.5</ele>
        <time>2014-07-14T16:16:30Z</time>
      </trkpt>
      <trkpt lat="49.00322" lon="1.11943">
        <ele>128.5</ele>
        <time>2014-07-14T16:16:40Z</time>
      </trkpt>
      <trkpt lat="49.00322" lon="1.1195">
        <ele>124.5</ele>
        <time>2014-07-14T16:16:45Z</time>
      </trkpt>
      <trkpt lat="49.00322" lon="1.11958">
        <ele>120.5</ele>
        <time>2014-07-14T16:17:05Z</time>
      </trkpt>
      <trkpt lat="49.00322" lon="1.1196">
        <ele>122.5</ele>
        <time>2014-07-14T16:17:06Z</time>
      </trkpt>
      <trkpt lat="49.00322" lon="1.11967">
        <ele>125.5</ele>
        <time>2014-07-14T16:17:08Z</time>
      </trkpt>
      <trkpt lat="49.00318" lon="1.11973">
        <ele>133.5</ele>
        <time>2014-07-14T16:17:11Z</time>
      </trkpt>
      <trkpt lat="49.00317" lon="1.11974">
        <ele>128.5</ele>
        <time>2014-07-14T16:17:12Z</time>
      </trkpt>
      <trkpt lat="49.00317" lon="1.11978">
        <ele>131.5</ele>
        <time>2014-07-14T16:17:14Z</time>
      </trkpt>
      <trkpt lat="49.00321" lon="1.11982">
        <ele>129.5</ele>
        <time>2014-07-14T16:17:18Z</time>
      </trkpt>
      <trkpt lat="49.00322" lon="1.11983">
        <ele>129.5</ele>
        <time>2014-07-14T16:17:19Z</time>
      </trkpt>
      <trkpt lat="49.0032" lon="1.11989">
        <ele>124.5</ele>
        <time>2014-07-14T16:17:30Z</time>
      </trkpt>
      <trkpt lat="49.0032" lon="1.1199">
        <ele>124.5</ele>
        <time>2014-07-14T16:17:31Z</time>
      </trkpt>
      <trkpt lat="49.0032" lon="1.11998">
        <ele>127.5</ele>
        <time>2014-07-14T16:17:41Z</time>
      </trkpt>
      <trkpt lat="49.00318" lon="1.12005">
        <ele>125.5</ele>
        <time>2014-07-14T16:17:44Z</time>
      </trkpt>
      <trkpt lat="49.00317" lon="1.12009">
        <ele>125.5</ele>
        <time>2014-07-14T16:17:45Z</time>
      </trkpt>
      <trkpt lat="49.00316" lon="1.12013">
        <ele>122.5</ele>
        <time>2014-07-14T16:17:46Z</time>
      </trkpt>
      <trkpt lat="49.00314" lon="1.12019">
        <ele>122.5</ele>
        <time>2014-07-14T16:17:47Z</time>
      </trkpt>
      <trkpt lat="49.00312" lon="1.12025">
        <ele>124.5</ele>
        <time>2014-07-14T16:17:48Z</time>
      </trkpt>
      <trkpt lat="49.00307" lon="1.12031">
        <ele>127.5</ele>
        <time>2014-07-14T16:17:49Z</time>
      </trkpt>
      <trkpt lat="49.00303" lon="1.12034">
        <ele>127.5</ele>
        <time>2014-07-14T16:17:50Z</time>
      </trkpt>
      <trkpt lat="49.00301" lon="1.12037">
        <ele>126.5</ele>
        <time>2014-07-14T16:17:51Z</time>
      </trkpt>
      <trkpt lat="49.00296" lon="1.12043">
        <ele>128.5</ele>
        <time>2014-07-14T16:17:53Z</time>
      </trkpt>
      <trkpt lat="49.00293" lon="1.12045">
        <ele>127.5</ele>
        <time>2014-07-14T16:17:54Z</time>
      </trkpt>
      <trkpt lat="49.00288" lon="1.12051">
        <ele>127.5</ele>
        <time>2014-07-14T16:17:56Z</time>
      </trkpt>
      <trkpt lat="49.00284" lon="1.12055">
        <ele>126.5</ele>
        <time>2014-07-14T16:17:58Z</time>
      </trkpt>
      <trkpt lat="49.0028" lon="1.12051">
        <ele>128.5</ele>
        <time>2014-07-14T16:18:07Z</time>
      </trkpt>
      <trkpt lat="49.00279" lon="1.12052">
        <ele>128.5</ele>
        <time>2014-07-14T16:18:10Z</time>
      </trkpt>
      <trkpt lat="49.00278" lon="1.12058">
        <ele>129.5</ele>
        <time>2014-07-14T16:18:12Z</time>
      </trkpt>
      <trkpt lat="49.00278" lon="1.12065">
        <ele>129.5</ele>
        <time>2014-07-14T16:18:15Z</time>
      </trkpt>
      <trkpt lat="49.00278" lon="1.12071">
        <ele>129.5</ele>
        <time>2014-07-14T16:18:17Z</time>
      </trkpt>
      <trkpt lat="49.00277" lon="1.12079">
        <ele>130.5</ele>
        <time>2014-07-14T16:18:20Z</time>
      </trkpt>
      <trkpt lat="49.00276" lon="1.1208">
        <ele>129.5</ele>
        <time>2014-07-14T16:18:21Z</time>
      </trkpt>
      <trkpt lat="49.0027" lon="1.12085">
        <ele>128.5</ele>
        <time>2014-07-14T16:18:23Z</time>
      </trkpt>
      <trkpt lat="49.00263" lon="1.12091">
        <ele>129.5</ele>
        <time>2014-07-14T16:18:25Z</time>
      </trkpt>
      <trkpt lat="49.00259" lon="1.12093">
        <ele>129.5</ele>
        <time>2014-07-14T16:18:26Z</time>
      </trkpt>
      <trkpt lat="49.00252" lon="1.12096">
        <ele>133.5</ele>
        <time>2014-07-14T16:18:28Z</time>
      </trkpt>
      <trkpt lat="49.00245" lon="1.12099">
        <ele>135.5</ele>
        <time>2014-07-14T16:18:30Z</time>
      </trkpt>
      <trkpt lat="49.00239" lon="1.12096">
        <ele>135.5</ele>
        <time>2014-07-14T16:18:32Z</time>
      </trkpt>
      <trkpt lat="49.00237" lon="1.12092">
        <ele>136.5</ele>
        <time>2014-07-14T16:18:33Z</time>
      </trkpt>
      <trkpt lat="49.00232" lon="1.12082">
        <ele>139.5</ele>
        <time>2014-07-14T16:18:35Z</time>
      </trkpt>
      <trkpt lat="49.00227" lon="1.12077">
        <ele>140.5</ele>
        <time>2014-07-14T16:18:36Z</time>
      </trkpt>
      <trkpt lat="49.00223" lon="1.12073">
        <ele>140.5</ele>
        <time>2014-07-14T16:18:37Z</time>
      </trkpt>
      <trkpt lat="49.0022" lon="1.12069">
        <ele>141.5</ele>
        <time>2014-07-14T16:18:38Z</time>
      </trkpt>
      <trkpt lat="49.00215" lon="1.12063">
        <ele>144.5</ele>
        <time>2014-07-14T16:18:40Z</time>
      </trkpt>
      <trkpt lat="49.00213" lon="1.12056">
        <ele>143.5</ele>
        <time>2014-07-14T16:18:42Z</time>
      </trkpt>
      <trkpt lat="49.00215" lon="1.12049">
        <ele>142.5</ele>
        <time>2014-07-14T16:18:44Z</time>
      </trkpt>
      <trkpt lat="49.00219" lon="1.12047">
        <ele>142.5</ele>
        <time>2014-07-14T16:18:48Z</time>
      </trkpt>
      <trkpt lat="49.0022" lon="1.12048">
        <ele>142.5</ele>
        <time>2014-07-14T16:18:50Z</time>
      </trkpt>
      <trkpt lat="49.00222" lon="1.12047">
        <ele>144.5</ele>
        <time>2014-07-14T16:18:51Z</time>
      </trkpt>
      <trkpt lat="49.00221" lon="1.1205">
        <ele>147.5</ele>
        <time>2014-07-14T16:18:53Z</time>
      </trkpt>
      <trkpt lat="49.0022" lon="1.1205">
        <ele>146.5</ele>
        <time>2014-07-14T16:18:55Z</time>
      </trkpt>
      <trkpt lat="49.00225" lon="1.12053">
        <ele>146.5</ele>
        <time>2014-07-14T16:19:34Z</time>
      </trkpt>
      <trkpt lat="49.00231" lon="1.12057">
        <ele>145.5</ele>
        <time>2014-07-14T16:19:36Z</time>
      </trkpt>
      <trkpt lat="49.00242" lon="1.1207">
        <ele>149.5</ele>
        <time>2014-07-14T16:19:41Z</time>
      </trkpt>
      <trkpt lat="49.00247" lon="1.12073">
        <ele>149.5</ele>
        <time>2014-07-14T16:19:45Z</time>
      </trkpt>
      <trkpt lat="49.00247" lon="1.12076">
        <ele>147.5</ele>
        <time>2014-07-14T16:19:47Z</time>
      </trkpt>
      <trkpt lat="49.00247" lon="1.12077">
        <ele>147.5</ele>
        <time>2014-07-14T16:19:48Z</time>
      </trkpt>
      <trkpt lat="49.00245" lon="1.12084">
        <ele>142.5</ele>
        <time>2014-07-14T16:19:54Z</time>
      </trkpt>
      <trkpt lat="49.0025" lon="1.12087">
        <ele>141.5</ele>
        <time>2014-07-14T16:21:25Z</time>
      </trkpt>
      <trkpt lat="49.00254" lon="1.12086">
        <ele>142.5</ele>
        <time>2014-07-14T16:21:47Z</time>
      </trkpt>
      <trkpt lat="49.00257" lon="1.12093">
        <ele>141.5</ele>
        <time>2014-07-14T16:21:54Z</time>
      </trkpt>
      <trkpt lat="49.00258" lon="1.12095">
        <ele>137.5</ele>
        <time>2014-07-14T16:21:56Z</time>
      </trkpt>
      <trkpt lat="49.00259" lon="1.12102">
        <ele>138.5</ele>
        <time>2014-07-14T16:22:04Z</time>
      </trkpt>
      <trkpt lat="49.00261" lon="1.12108">
        <ele>138.5</ele>
        <time>2014-07-14T16:22:16Z</time>
      </trkpt>
      <trkpt lat="49.00265" lon="1.12113">
        <ele>133.5</ele>
        <time>2014-07-14T16:22:53Z</time>
      </trkpt>
      <trkpt lat="49.00266" lon="1.1212">
        <ele>135.5</ele>
        <time>2014-07-14T16:22:57Z</time>
      </trkpt>
      <trkpt lat="49.00263" lon="1.12126">
        <ele>129.5</ele>
        <time>2014-07-14T16:23:03Z</time>
      </trkpt>
      <trkpt lat="49.00259" lon="1.12129">
        <ele>132.5</ele>
        <time>2014-07-14T16:23:07Z</time>
      </trkpt>
      <trkpt lat="49.00253" lon="1.12127">
        <ele>137.5</ele>
        <time>2014-07-14T16:23:12Z</time>
      </trkpt>
      <trkpt lat="49.00246" lon="1.12122">
        <ele>139.5</ele>
        <time>2014-07-14T16:23:14Z</time>
      </trkpt>
      <trkpt lat="49.00242" lon="1.1212">
        <ele>140.5</ele>
        <time>2014-07-14T16:23:15Z</time>
      </trkpt>
      <trkpt lat="49.00235" lon="1.12116">
        <ele>140.5</ele>
        <time>2014-07-14T16:23:17Z</time>
      </trkpt>
      <trkpt lat="49.00228" lon="1.12115">
        <ele>142.5</ele>
        <time>2014-07-14T16:23:19Z</time>
      </trkpt>
      <trkpt lat="49.00225" lon="1.12115">
        <ele>143.5</ele>
        <time>2014-07-14T16:23:20Z</time>
      </trkpt>
      <trkpt lat="49.00217" lon="1.12112">
        <ele>145.5</ele>
        <time>2014-07-14T16:23:22Z</time>
      </trkpt>
      <trkpt lat="49.00211" lon="1.12105">
        <ele>145.5</ele>
        <time>2014-07-14T16:23:24Z</time>
      </trkpt>
      <trkpt lat="49.00207" lon="1.12094">
        <ele>143.5</ele>
        <time>2014-07-14T16:23:26Z</time>
      </trkpt>
      <trkpt lat="49.00202" lon="1.12084">
        <ele>143.5</ele>
        <time>2014-07-14T16:23:28Z</time>
      </trkpt>
      <trkpt lat="49.00196" lon="1.12078">
        <ele>140.5</ele>
        <time>2014-07-14T16:23:30Z</time>
      </trkpt>
      <trkpt lat="49.0019" lon="1.1207">
        <ele>134.5</ele>
        <time>2014-07-14T16:23:32Z</time>
      </trkpt>
      <trkpt lat="49.00185" lon="1.12064">
        <ele>134.5</ele>
        <time>2014-07-14T16:23:34Z</time>
      </trkpt>
      <trkpt lat="49.0018" lon="1.12064">
        <ele>128.5</ele>
        <time>2014-07-14T16:23:37Z</time>
      </trkpt>
      <trkpt lat="49.00175" lon="1.12065">
        <ele>128.5</ele>
        <time>2014-07-14T16:23:40Z</time>
      </trkpt>
      <trkpt lat="49.0017" lon="1.12066">
        <ele>130.5</ele>
        <time>2014-07-14T16:23:42Z</time>
      </trkpt>
      <trkpt lat="49.00166" lon="1.12063">
        <ele>129.5</ele>
        <time>2014-07-14T16:23:44Z</time>
      </trkpt>
      <trkpt lat="49.0016" lon="1.12059">
        <ele>130.5</ele>
        <time>2014-07-14T16:23:46Z</time>
      </trkpt>
      <trkpt lat="49.00155" lon="1.12055">
        <ele>128.5</ele>
        <time>2014-07-14T16:23:48Z</time>
      </trkpt>
      <trkpt lat="49.00149" lon="1.12053">
        <ele>128.5</ele>
        <time>2014-07-14T16:23:50Z</time>
      </trkpt>
      <trkpt lat="49.00141" lon="1.1205">
        <ele>127.5</ele>
        <time>2014-07-14T16:23:52Z</time>
      </trkpt>
      <trkpt lat="49.00134" lon="1.12044">
        <ele>128.5</ele>
        <time>2014-07-14T16:23:54Z</time>
      </trkpt>
      <trkpt lat="49.00128" lon="1.12039">
        <ele>127.5</ele>
        <time>2014-07-14T16:23:56Z</time>
      </trkpt>
      <trkpt lat="49.00122" lon="1.12033">
        <ele>124.5</ele>
        <time>2014-07-14T16:23:58Z</time>
      </trkpt>
      <trkpt lat="49.00118" lon="1.12026">
        <ele>124.5</ele>
        <time>2014-07-14T16:24:00Z</time>
      </trkpt>
      <trkpt lat="49.00115" lon="1.1202">
        <ele>123.5</ele>
        <time>2014-07-14T16:24:02Z</time>
      </trkpt>
      <trkpt lat="49.00113" lon="1.12018">
        <ele>122.5</ele>
        <time>2014-07-14T16:24:03Z</time>
      </trkpt>
      <trkpt lat="49.00109" lon="1.12014">
        <ele>121.5</ele>
        <time>2014-07-14T16:24:05Z</time>
      </trkpt>
      <trkpt lat="49.00105" lon="1.12008">
        <ele>119.5</ele>
        <time>2014-07-14T16:24:07Z</time>
      </trkpt>
      <trkpt lat="49.00103" lon="1.12006">
        <ele>120.5</ele>
        <time>2014-07-14T16:24:08Z</time>
      </trkpt>
      <trkpt lat="49.00098" lon="1.12002">
        <ele>119.5</ele>
        <time>2014-07-14T16:24:10Z</time>
      </trkpt>
      <trkpt lat="49.00092" lon="1.11999">
        <ele>123.5</ele>
        <time>2014-07-14T16:24:13Z</time>
      </trkpt>
      <trkpt lat="49.00087" lon="1.11996">
        <ele>123.5</ele>
        <time>2014-07-14T16:24:15Z</time>
      </trkpt>
      <trkpt lat="49.0008" lon="1.11991">
        <ele>124.5</ele>
        <time>2014-07-14T16:24:17Z</time>
      </trkpt>
      <trkpt lat="49.00076" lon="1.11989">
        <ele>125.5</ele>
        <time>2014-07-14T16:24:18Z</time>
      </trkpt>
      <trkpt lat="49.00072" lon="1.11987">
        <ele>125.5</ele>
        <time>2014-07-14T16:24:19Z</time>
      </trkpt>
      <trkpt lat="49.00063" lon="1.11984">
        <ele>125.5</ele>
        <time>2014-07-14T16:24:21Z</time>
      </trkpt>
      <trkpt lat="49.00055" lon="1.11983">
        <ele>126.5</ele>
        <time>2014-07-14T16:24:23Z</time>
      </trkpt>
      <trkpt lat="49.00047" lon="1.11979">
        <ele>127.5</ele>
        <time>2014-07-14T16:24:25Z</time>
      </trkpt>
      <trkpt lat="49.00039" lon="1.11976">
        <ele>128.5</ele>
        <time>2014-07-14T16:24:27Z</time>
      </trkpt>
      <trkpt lat="49.00032" lon="1.11971">
        <ele>130.5</ele>
        <time>2014-07-14T16:24:29Z</time>
      </trkpt>
      <trkpt lat="49.00024" lon="1.11965">
        <ele>130.5</ele>
        <time>2014-07-14T16:24:31Z</time>
      </trkpt>
      <trkpt lat="49.00016" lon="1.1196">
        <ele>128.5</ele>
        <time>2014-07-14T16:24:33Z</time>
      </trkpt>
      <trkpt lat="49.00012" lon="1.11959">
        <ele>127.5</ele>
        <time>2014-07-14T16:24:34Z</time>
      </trkpt>
      <trkpt lat="49.00006" lon="1.11956">
        <ele>127.5</ele>
        <time>2014-07-14T16:24:36Z</time>
      </trkpt>
      <trkpt lat="48.99999" lon="1.11954">
        <ele>126.5</ele>
        <time>2014-07-14T16:24:38Z</time>
      </trkpt>
      <trkpt lat="48.99992" lon="1.11952">
        <ele>126.5</ele>
        <time>2014-07-14T16:24:40Z</time>
      </trkpt>
      <trkpt lat="48.99986" lon="1.11949">
        <ele>125.5</ele>
        <time>2014-07-14T16:24:42Z</time>
      </trkpt>
      <trkpt lat="48.99979" lon="1.11947">
        <ele>128.5</ele>
        <time>2014-07-14T16:24:44Z</time>
      </trkpt>
      <trkpt lat="48.99976" lon="1.11945">
        <ele>128.5</ele>
        <time>2014-07-14T16:24:45Z</time>
      </trkpt>
      <trkpt lat="48.99969" lon="1.11941">
        <ele>128.5</ele>
        <time>2014-07-14T16:24:47Z</time>
      </trkpt>
      <trkpt lat="48.99963" lon="1.11936">
        <ele>127.5</ele>
        <time>2014-07-14T16:24:49Z</time>
      </trkpt>
      <trkpt lat="48.99956" lon="1.11932">
        <ele>128.5</ele>
        <time>2014-07-14T16:24:51Z</time>
      </trkpt>
      <trkpt lat="48.99952" lon="1.1193">
        <ele>126.5</ele>
        <time>2014-07-14T16:24:52Z</time>
      </trkpt>
      <trkpt lat="48.99945" lon="1.11925">
        <ele>125.5</ele>
        <time>2014-07-14T16:24:54Z</time>
      </trkpt>
      <trkpt lat="48.99938" lon="1.11921">
        <ele>127.5</ele>
        <time>2014-07-14T16:24:56Z</time>
      </trkpt>
      <trkpt lat="48.9993" lon="1.11919">
        <ele>126.5</ele>
        <time>2014-07-14T16:24:58Z</time>
      </trkpt>
      <trkpt lat="48.99925" lon="1.11917">
        <ele>126.5</ele>
        <time>2014-07-14T16:24:59Z</time>
      </trkpt>
      <trkpt lat="48.9992" lon="1.11915">
        <ele>126.5</ele>
        <time>2014-07-14T16:25:00Z</time>
      </trkpt>
      <trkpt lat="48.99916" lon="1.11911">
        <ele>128.5</ele>
        <time>2014-07-14T16:25:01Z</time>
      </trkpt>
      <trkpt lat="48.99912" lon="1.11907">
        <ele>126.5</ele>
        <time>2014-07-14T16:25:02Z</time>
      </trkpt>
      <trkpt lat="48.99908" lon="1.11903">
        <ele>122.5</ele>
        <time>2014-07-14T16:25:03Z</time>
      </trkpt>
      <trkpt lat="48.99904" lon="1.11899">
        <ele>121.5</ele>
        <time>2014-07-14T16:25:04Z</time>
      </trkpt>
      <trkpt lat="48.99896" lon="1.11894">
        <ele>122.5</ele>
        <time>2014-07-14T16:25:06Z</time>
      </trkpt>
      <trkpt lat="48.99887" lon="1.1189">
        <ele>121.5</ele>
        <time>2014-07-14T16:25:08Z</time>
      </trkpt>
      <trkpt lat="48.99881" lon="1.11886">
        <ele>124.5</ele>
        <time>2014-07-14T16:25:10Z</time>
      </trkpt>
      <trkpt lat="48.99878" lon="1.11884">
        <ele>127.5</ele>
        <time>2014-07-14T16:25:11Z</time>
      </trkpt>
      <trkpt lat="48.99872" lon="1.1188">
        <ele>125.5</ele>
        <time>2014-07-14T16:25:13Z</time>
      </trkpt>
      <trkpt lat="48.99866" lon="1.11878">
        <ele>125.5</ele>
        <time>2014-07-14T16:25:15Z</time>
      </trkpt>
      <trkpt lat="48.99861" lon="1.11876">
        <ele>126.5</ele>
        <time>2014-07-14T16:25:18Z</time>
      </trkpt>
      <trkpt lat="48.99856" lon="1.11876">
        <ele>127.5</ele>
        <time>2014-07-14T16:25:20Z</time>
      </trkpt>
      <trkpt lat="48.99852" lon="1.11878">
        <ele>126.5</ele>
        <time>2014-07-14T16:25:21Z</time>
      </trkpt>
      <trkpt lat="48.99845" lon="1.11881">
        <ele>122.5</ele>
        <time>2014-07-14T16:25:23Z</time>
      </trkpt>
      <trkpt lat="48.99837" lon="1.11882">
        <ele>122.5</ele>
        <time>2014-07-14T16:25:25Z</time>
      </trkpt>
      <trkpt lat="48.99826" lon="1.11883">
        <ele>121.5</ele>
        <time>2014-07-14T16:25:28Z</time>
      </trkpt>
      <trkpt lat="48.9982" lon="1.11886">
        <ele>121.5</ele>
        <time>2014-07-14T16:25:30Z</time>
      </trkpt>
      <trkpt lat="48.99814" lon="1.11889">
        <ele>119.5</ele>
        <time>2014-07-14T16:25:32Z</time>
      </trkpt>
      <trkpt lat="48.9981" lon="1.11889">
        <ele>119.5</ele>
        <time>2014-07-14T16:25:33Z</time>
      </trkpt>
      <trkpt lat="48.99802" lon="1.11891">
        <ele>121.5</ele>
        <time>2014-07-14T16:25:35Z</time>
      </trkpt>
      <trkpt lat="48.99798" lon="1.11892">
        <ele>120.5</ele>
        <time>2014-07-14T16:25:36Z</time>
      </trkpt>
      <trkpt lat="48.99791" lon="1.1189">
        <ele>120.5</ele>
        <time>2014-07-14T16:25:38Z</time>
      </trkpt>
      <trkpt lat="48.99785" lon="1.11885">
        <ele>120.5</ele>
        <time>2014-07-14T16:25:40Z</time>
      </trkpt>
      <trkpt lat="48.99781" lon="1.11882">
        <ele>120.5</ele>
        <time>2014-07-14T16:25:41Z</time>
      </trkpt>
      <trkpt lat="48.99774" lon="1.1188">
        <ele>120.5</ele>
        <time>2014-07-14T16:25:43Z</time>
      </trkpt>
      <trkpt lat="48.99769" lon="1.11878">
        <ele>122.5</ele>
        <time>2014-07-14T16:25:45Z</time>
      </trkpt>
      <trkpt lat="48.99768" lon="1.11871">
        <ele>128.5</ele>
        <time>2014-07-14T16:25:51Z</time>
      </trkpt>
      <trkpt lat="48.99766" lon="1.11865">
        <ele>128.5</ele>
        <time>2014-07-14T16:25:58Z</time>
      </trkpt>
      <trkpt lat="48.99763" lon="1.11858">
        <ele>138.5</ele>
        <time>2014-07-14T16:26:02Z</time>
      </trkpt>
      <trkpt lat="48.99762" lon="1.1185">
        <ele>134.5</ele>
        <time>2014-07-14T16:26:05Z</time>
      </trkpt>
      <trkpt lat="48.99761" lon="1.11841">
        <ele>134.5</ele>
        <time>2014-07-14T16:26:07Z</time>
      </trkpt>
      <trkpt lat="48.9976" lon="1.11833">
        <ele>135.5</ele>
        <time>2014-07-14T16:26:09Z</time>
      </trkpt>
      <trkpt lat="48.9976" lon="1.11825">
        <ele>137.5</ele>
        <time>2014-07-14T16:26:11Z</time>
      </trkpt>
      <trkpt lat="48.99759" lon="1.11818">
        <ele>137.5</ele>
        <time>2014-07-14T16:26:13Z</time>
      </trkpt>
      <trkpt lat="48.99757" lon="1.11811">
        <ele>136.5</ele>
        <time>2014-07-14T16:26:16Z</time>
      </trkpt>
      <trkpt lat="48.99756" lon="1.11805">
        <ele>136.5</ele>
        <time>2014-07-14T16:26:19Z</time>
      </trkpt>
      <trkpt lat="48.99755" lon="1.11798">
        <ele>131.5</ele>
        <time>2014-07-14T16:26:28Z</time>
      </trkpt>
      <trkpt lat="48.99755" lon="1.11791">
        <ele>133.5</ele>
        <time>2014-07-14T16:26:41Z</time>
      </trkpt>
      <trkpt lat="48.99757" lon="1.11784">
        <ele>131.5</ele>
        <time>2014-07-14T16:26:47Z</time>
      </trkpt>
      <trkpt lat="48.99757" lon="1.11776">
        <ele>133.5</ele>
        <time>2014-07-14T16:26:51Z</time>
      </trkpt>
      <trkpt lat="48.99755" lon="1.1177">
        <ele>135.5</ele>
        <time>2014-07-14T16:26:56Z</time>
      </trkpt>
      <trkpt lat="48.9975" lon="1.11765">
        <ele>136.5</ele>
        <time>2014-07-14T16:27:01Z</time>
      </trkpt>
      <trkpt lat="48.99747" lon="1.11758">
        <ele>138.5</ele>
        <time>2014-07-14T16:27:04Z</time>
      </trkpt>
      <trkpt lat="48.99743" lon="1.11751">
        <ele>136.5</ele>
        <time>2014-07-14T16:27:07Z</time>
      </trkpt>
      <trkpt lat="48.99741" lon="1.11743">
        <ele>135.5</ele>
        <time>2014-07-14T16:27:10Z</time>
      </trkpt>
      <trkpt lat="48.99738" lon="1.11736">
        <ele>134.5</ele>
        <time>2014-07-14T16:27:13Z</time>
      </trkpt>
      <trkpt lat="48.99736" lon="1.11729">
        <ele>136.5</ele>
        <time>2014-07-14T16:27:16Z</time>
      </trkpt>
      <trkpt lat="48.99735" lon="1.11721">
        <ele>143.5</ele>
        <time>2014-07-14T16:27:19Z</time>
      </trkpt>
      <trkpt lat="48.99732" lon="1.11715">
        <ele>137.5</ele>
        <time>2014-07-14T16:27:28Z</time>
      </trkpt>
      <trkpt lat="48.99731" lon="1.11708">
        <ele>134.5</ele>
        <time>2014-07-14T16:28:01Z</time>
      </trkpt>
      <trkpt lat="48.99731" lon="1.11699">
        <ele>134.5</ele>
        <time>2014-07-14T16:28:05Z</time>
      </trkpt>
      <trkpt lat="48.99734" lon="1.11691">
        <ele>132.5</ele>
        <time>2014-07-14T16:28:08Z</time>
      </trkpt>
      <trkpt lat="48.99736" lon="1.11684">
        <ele>130.5</ele>
        <time>2014-07-14T16:28:10Z</time>
      </trkpt>
      <trkpt lat="48.99739" lon="1.11674">
        <ele>127.5</ele>
        <time>2014-07-14T16:28:12Z</time>
      </trkpt>
      <trkpt lat="48.99742" lon="1.11666">
        <ele>126.5</ele>
        <time>2014-07-14T16:28:14Z</time>
      </trkpt>
      <trkpt lat="48.99744" lon="1.11657">
        <ele>124.5</ele>
        <time>2014-07-14T16:28:16Z</time>
      </trkpt>
      <trkpt lat="48.99747" lon="1.1165">
        <ele>127.5</ele>
        <time>2014-07-14T16:28:18Z</time>
      </trkpt>
      <trkpt lat="48.99749" lon="1.11643">
        <ele>127.5</ele>
        <time>2014-07-14T16:28:20Z</time>
      </trkpt>
      <trkpt lat="48.99751" lon="1.11635">
        <ele>126.5</ele>
        <time>2014-07-14T16:28:22Z</time>
      </trkpt>
      <trkpt lat="48.99757" lon="1.11628">
        <ele>127.5</ele>
        <time>2014-07-14T16:28:24Z</time>
      </trkpt>
      <trkpt lat="48.99762" lon="1.11623">
        <ele>127.5</ele>
        <time>2014-07-14T16:28:26Z</time>
      </trkpt>
      <trkpt lat="48.99767" lon="1.11619">
        <ele>127.5</ele>
        <time>2014-07-14T16:28:28Z</time>
      </trkpt>
      <trkpt lat="48.99772" lon="1.11614">
        <ele>128.5</ele>
        <time>2014-07-14T16:28:30Z</time>
      </trkpt>
      <trkpt lat="48.99776" lon="1.11608">
        <ele>129.5</ele>
        <time>2014-07-14T16:28:32Z</time>
      </trkpt>
      <trkpt lat="48.99781" lon="1.11604">
        <ele>129.5</ele>
        <time>2014-07-14T16:28:34Z</time>
      </trkpt>
      <trkpt lat="48.99786" lon="1.116">
        <ele>129.5</ele>
        <time>2014-07-14T16:28:36Z</time>
      </trkpt>
      <trkpt lat="48.99791" lon="1.11596">
        <ele>129.5</ele>
        <time>2014-07-14T16:28:39Z</time>
      </trkpt>
      <trkpt lat="48.99797" lon="1.11594">
        <ele>128.5</ele>
        <time>2014-07-14T16:28:43Z</time>
      </trkpt>
      <trkpt lat="48.99802" lon="1.11591">
        <ele>128.5</ele>
        <time>2014-07-14T16:28:45Z</time>
      </trkpt>
      <trkpt lat="48.99808" lon="1.11588">
        <ele>129.5</ele>
        <time>2014-07-14T16:28:47Z</time>
      </trkpt>
      <trkpt lat="48.99813" lon="1.11584">
        <ele>128.5</ele>
        <time>2014-07-14T16:28:49Z</time>
      </trkpt>
      <trkpt lat="48.99817" lon="1.11578">
        <ele>129.5</ele>
        <time>2014-07-14T16:28:51Z</time>
      </trkpt>
      <trkpt lat="48.99822" lon="1.11574">
        <ele>129.5</ele>
        <time>2014-07-14T16:28:53Z</time>
      </trkpt>
      <trkpt lat="48.99827" lon="1.11571">
        <ele>130.5</ele>
        <time>2014-07-14T16:28:55Z</time>
      </trkpt>
      <trkpt lat="48.99833" lon="1.1157">
        <ele>131.5</ele>
        <time>2014-07-14T16:28:57Z</time>
      </trkpt>
      <trkpt lat="48.9984" lon="1.11568">
        <ele>131.5</ele>
        <time>2014-07-14T16:28:59Z</time>
      </trkpt>
      <trkpt lat="48.99847" lon="1.11565">
        <ele>131.5</ele>
        <time>2014-07-14T16:29:01Z</time>
      </trkpt>
      <trkpt lat="48.99853" lon="1.11562">
        <ele>131.5</ele>
        <time>2014-07-14T16:29:03Z</time>
      </trkpt>
      <trkpt lat="48.9986" lon="1.1156">
        <ele>131.5</ele>
        <time>2014-07-14T16:29:05Z</time>
      </trkpt>
      <trkpt lat="48.99868" lon="1.11557">
        <ele>131.5</ele>
        <time>2014-07-14T16:29:07Z</time>
      </trkpt>
      <trkpt lat="48.99874" lon="1.11551">
        <ele>132.5</ele>
        <time>2014-07-14T16:29:09Z</time>
      </trkpt>
      <trkpt lat="48.99886" lon="1.11545">
        <ele>131.5</ele>
        <time>2014-07-14T16:29:12Z</time>
      </trkpt>
      <trkpt lat="48.99894" lon="1.1154">
        <ele>132.5</ele>
        <time>2014-07-14T16:29:14Z</time>
      </trkpt>
      <trkpt lat="48.99901" lon="1.11535">
        <ele>133.5</ele>
        <time>2014-07-14T16:29:16Z</time>
      </trkpt>
      <trkpt lat="48.99909" lon="1.11532">
        <ele>132.5</ele>
        <time>2014-07-14T16:29:18Z</time>
      </trkpt>
      <trkpt lat="48.99917" lon="1.11529">
        <ele>132.5</ele>
        <time>2014-07-14T16:29:20Z</time>
      </trkpt>
      <trkpt lat="48.99925" lon="1.11524">
        <ele>131.5</ele>
        <time>2014-07-14T16:29:22Z</time>
      </trkpt>
      <trkpt lat="48.99933" lon="1.1152">
        <ele>131.5</ele>
        <time>2014-07-14T16:29:24Z</time>
      </trkpt>
      <trkpt lat="48.99941" lon="1.11516">
        <ele>131.5</ele>
        <time>2014-07-14T16:29:26Z</time>
      </trkpt>
      <trkpt lat="48.99946" lon="1.11515">
        <ele>131.5</ele>
        <time>2014-07-14T16:29:28Z</time>
      </trkpt>
      <trkpt lat="48.99952" lon="1.11514">
        <ele>132.5</ele>
        <time>2014-07-14T16:29:31Z</time>
      </trkpt>
      <trkpt lat="48.99957" lon="1.11511">
        <ele>131.5</ele>
        <time>2014-07-14T16:29:33Z</time>
      </trkpt>
      <trkpt lat="48.99962" lon="1.11509">
        <ele>131.5</ele>
        <time>2014-07-14T16:29:35Z</time>
      </trkpt>
      <trkpt lat="48.99969" lon="1.11507">
        <ele>131.5</ele>
        <time>2014-07-14T16:29:37Z</time>
      </trkpt>
      <trkpt lat="48.99975" lon="1.11504">
        <ele>132.5</ele>
        <time>2014-07-14T16:29:39Z</time>
      </trkpt>
      <trkpt lat="48.99982" lon="1.11503">
        <ele>132.5</ele>
        <time>2014-07-14T16:29:41Z</time>
      </trkpt>
      <trkpt lat="48.99989" lon="1.11502">
        <ele>132.5</ele>
        <time>2014-07-14T16:29:43Z</time>
      </trkpt>
      <trkpt lat="48.99994" lon="1.115">
        <ele>132.5</ele>
        <time>2014-07-14T16:29:44Z</time>
      </trkpt>
      <trkpt lat="48.99998" lon="1.11497">
        <ele>131.5</ele>
        <time>2014-07-14T16:29:45Z</time>
      </trkpt>
      <trkpt lat="49.00006" lon="1.11493">
        <ele>131.5</ele>
        <time>2014-07-14T16:29:47Z</time>
      </trkpt>
      <trkpt lat="49.00014" lon="1.11488">
        <ele>132.5</ele>
        <time>2014-07-14T16:29:49Z</time>
      </trkpt>
      <trkpt lat="49.00022" lon="1.11483">
        <ele>132.5</ele>
        <time>2014-07-14T16:29:51Z</time>
      </trkpt>
      <trkpt lat="49.00027" lon="1.11479">
        <ele>132.5</ele>
        <time>2014-07-14T16:29:52Z</time>
      </trkpt>
      <trkpt lat="49.00033" lon="1.11475">
        <ele>132.5</ele>
        <time>2014-07-14T16:29:53Z</time>
      </trkpt>
      <trkpt lat="49.00039" lon="1.11471">
        <ele>131.5</ele>
        <time>2014-07-14T16:29:54Z</time>
      </trkpt>
      <trkpt lat="49.00052" lon="1.11463">
        <ele>131.5</ele>
        <time>2014-07-14T16:29:55Z</time>
      </trkpt>
      <trkpt lat="49.00057" lon="1.11461">
        <ele>131.5</ele>
        <time>2014-07-14T16:29:56Z</time>
      </trkpt>
      <trkpt lat="49.00062" lon="1.1146">
        <ele>131.5</ele>
        <time>2014-07-14T16:29:57Z</time>
      </trkpt>
      <trkpt lat="49.00068" lon="1.11458">
        <ele>131.5</ele>
        <time>2014-07-14T16:29:58Z</time>
      </trkpt>
      <trkpt lat="49.00074" lon="1.11452">
        <ele>130.5</ele>
        <time>2014-07-14T16:29:59Z</time>
      </trkpt>
      <trkpt lat="49.0008" lon="1.11449">
        <ele>130.5</ele>
        <time>2014-07-14T16:30:00Z</time>
      </trkpt>
      <trkpt lat="49.00091" lon="1.1144">
        <ele>129.5</ele>
        <time>2014-07-14T16:30:02Z</time>
      </trkpt>
      <trkpt lat="49.00098" lon="1.1144">
        <ele>129.5</ele>
        <time>2014-07-14T16:30:03Z</time>
      </trkpt>
      <trkpt lat="49.00103" lon="1.11441">
        <ele>129.5</ele>
        <time>2014-07-14T16:30:04Z</time>
      </trkpt>
      <trkpt lat="49.00112" lon="1.11446">
        <ele>127.5</ele>
        <time>2014-07-14T16:30:06Z</time>
      </trkpt>
      <trkpt lat="49.0012" lon="1.11457">
        <ele>127.5</ele>
        <time>2014-07-14T16:30:07Z</time>
      </trkpt>
      <trkpt lat="49.00125" lon="1.11467">
        <ele>127.5</ele>
        <time>2014-07-14T16:30:08Z</time>
      </trkpt>
      <trkpt lat="49.00134" lon="1.11485">
        <ele>127.5</ele>
        <time>2014-07-14T16:30:10Z</time>
      </trkpt>
      <trkpt lat="49.00136" lon="1.11492">
        <ele>127.5</ele>
        <time>2014-07-14T16:30:11Z</time>
      </trkpt>
      <trkpt lat="49.00137" lon="1.115">
        <ele>128.5</ele>
        <time>2014-07-14T16:30:12Z</time>
      </trkpt>
      <trkpt lat="49.00142" lon="1.11507">
        <ele>127.5</ele>
        <time>2014-07-14T16:30:13Z</time>
      </trkpt>
      <trkpt lat="49.00144" lon="1.11514">
        <ele>127.5</ele>
        <time>2014-07-14T16:30:14Z</time>
      </trkpt>
      <trkpt lat="49.00146" lon="1.11528">
        <ele>127.5</ele>
        <time>2014-07-14T16:30:16Z</time>
      </trkpt>
      <trkpt lat="49.00149" lon="1.11541">
        <ele>127.5</ele>
        <time>2014-07-14T16:30:18Z</time>
      </trkpt>
      <trkpt lat="49.00151" lon="1.11548">
        <ele>127.5</ele>
        <time>2014-07-14T16:30:20Z</time>
      </trkpt>
      <trkpt lat="49.00153" lon="1.1156">
        <ele>126.5</ele>
        <time>2014-07-14T16:30:22Z</time>
      </trkpt>
      <trkpt lat="49.00155" lon="1.11571">
        <ele>127.5</ele>
        <time>2014-07-14T16:30:24Z</time>
      </trkpt>
      <trkpt lat="49.00158" lon="1.11582">
        <ele>127.5</ele>
        <time>2014-07-14T16:30:26Z</time>
      </trkpt>
      <trkpt lat="49.0016" lon="1.11596">
        <ele>127.5</ele>
        <time>2014-07-14T16:30:28Z</time>
      </trkpt>
      <trkpt lat="49.00161" lon="1.11605">
        <ele>127.5</ele>
        <time>2014-07-14T16:30:29Z</time>
      </trkpt>
      <trkpt lat="49.00163" lon="1.11613">
        <ele>125.5</ele>
        <time>2014-07-14T16:30:30Z</time>
      </trkpt>
      <trkpt lat="49.00164" lon="1.11622">
        <ele>124.5</ele>
        <time>2014-07-14T16:30:31Z</time>
      </trkpt>
      <trkpt lat="49.00167" lon="1.1163">
        <ele>125.5</ele>
        <time>2014-07-14T16:30:32Z</time>
      </trkpt>
      <trkpt lat="49.00169" lon="1.11638">
        <ele>125.5</ele>
        <time>2014-07-14T16:30:33Z</time>
      </trkpt>
      <trkpt lat="49.00175" lon="1.1167">
        <ele>124.5</ele>
        <time>2014-07-14T16:30:35Z</time>
      </trkpt>
      <trkpt lat="49.00178" lon="1.11677">
        <ele>124.5</ele>
        <time>2014-07-14T16:30:36Z</time>
      </trkpt>
      <trkpt lat="49.00181" lon="1.11684">
        <ele>124.5</ele>
        <time>2014-07-14T16:30:37Z</time>
      </trkpt>
      <trkpt lat="49.00184" lon="1.11693">
        <ele>124.5</ele>
        <time>2014-07-14T16:30:38Z</time>
      </trkpt>
      <trkpt lat="49.00186" lon="1.11703">
        <ele>124.5</ele>
        <time>2014-07-14T16:30:39Z</time>
      </trkpt>
      <trkpt lat="49.00188" lon="1.11713">
        <ele>123.5</ele>
        <time>2014-07-14T16:30:40Z</time>
      </trkpt>
      <trkpt lat="49.00189" lon="1.11723">
        <ele>123.5</ele>
        <time>2014-07-14T16:30:41Z</time>
      </trkpt>
      <trkpt lat="49.00191" lon="1.11733">
        <ele>123.5</ele>
        <time>2014-07-14T16:30:42Z</time>
      </trkpt>
      <trkpt lat="49.00191" lon="1.11744">
        <ele>121.5</ele>
        <time>2014-07-14T16:30:43Z</time>
      </trkpt>
      <trkpt lat="49.00194" lon="1.11753">
        <ele>121.5</ele>
        <time>2014-07-14T16:30:44Z</time>
      </trkpt>
      <trkpt lat="49.00195" lon="1.11765">
        <ele>121.5</ele>
        <time>2014-07-14T16:30:45Z</time>
      </trkpt>
      <trkpt lat="49.00195" lon="1.11774">
        <ele>121.5</ele>
        <time>2014-07-14T16:30:46Z</time>
      </trkpt>
      <trkpt lat="49.00196" lon="1.11789">
        <ele>120.5</ele>
        <time>2014-07-14T16:30:47Z</time>
      </trkpt>
      <trkpt lat="49.00196" lon="1.11802">
        <ele>120.5</ele>
        <time>2014-07-14T16:30:48Z</time>
      </trkpt>
      <trkpt lat="49.00196" lon="1.11812">
        <ele>119.5</ele>
        <time>2014-07-14T16:30:49Z</time>
      </trkpt>
      <trkpt lat="49.00196" lon="1.11821">
        <ele>120.5</ele>
        <time>2014-07-14T16:30:50Z</time>
      </trkpt>
      <trkpt lat="49.00197" lon="1.11831">
        <ele>119.5</ele>
        <time>2014-07-14T16:30:51Z</time>
      </trkpt>
      <trkpt lat="49.00198" lon="1.11838">
        <ele>119.5</ele>
        <time>2014-07-14T16:30:52Z</time>
      </trkpt>
      <trkpt lat="49.00199" lon="1.11847">
        <ele>120.5</ele>
        <time>2014-07-14T16:30:53Z</time>
      </trkpt>
      <trkpt lat="49.00199" lon="1.11856">
        <ele>119.5</ele>
        <time>2014-07-14T16:30:54Z</time>
      </trkpt>
      <trkpt lat="49.00198" lon="1.11865">
        <ele>118.5</ele>
        <time>2014-07-14T16:30:55Z</time>
      </trkpt>
      <trkpt lat="49.00198" lon="1.11875">
        <ele>116.5</ele>
        <time>2014-07-14T16:30:56Z</time>
      </trkpt>
      <trkpt lat="49.00201" lon="1.11886">
        <ele>117.5</ele>
        <time>2014-07-14T16:30:57Z</time>
      </trkpt>
      <trkpt lat="49.00202" lon="1.11896">
        <ele>116.5</ele>
        <time>2014-07-14T16:30:58Z</time>
      </trkpt>
      <trkpt lat="49.00204" lon="1.11907">
        <ele>115.5</ele>
        <time>2014-07-14T16:31:00Z</time>
      </trkpt>
      <trkpt lat="49.00204" lon="1.11913">
        <ele>115.5</ele>
        <time>2014-07-14T16:31:01Z</time>
      </trkpt>
      <trkpt lat="49.00205" lon="1.11921">
        <ele>113.5</ele>
        <time>2014-07-14T16:31:03Z</time>
      </trkpt>
      <trkpt lat="49.00207" lon="1.11928">
        <ele>112.5</ele>
        <time>2014-07-14T16:31:05Z</time>
      </trkpt>
      <trkpt lat="49.00211" lon="1.11945">
        <ele>109.5</ele>
        <time>2014-07-14T16:31:08Z</time>
      </trkpt>
      <trkpt lat="49.00213" lon="1.11954">
        <ele>107.5</ele>
        <time>2014-07-14T16:31:10Z</time>
      </trkpt>
      <trkpt lat="49.00213" lon="1.11961">
        <ele>106.5</ele>
        <time>2014-07-14T16:31:12Z</time>
      </trkpt>
      <trkpt lat="49.00212" lon="1.11972">
        <ele>104.5</ele>
        <time>2014-07-14T16:31:15Z</time>
      </trkpt>
      <trkpt lat="49.00212" lon="1.11982">
        <ele>102.5</ele>
        <time>2014-07-14T16:31:17Z</time>
      </trkpt>
      <trkpt lat="49.0021" lon="1.12001">
        <ele>101.5</ele>
        <time>2014-07-14T16:31:19Z</time>
      </trkpt>
      <trkpt lat="49.00205" lon="1.12029">
        <ele>101.5</ele>
        <time>2014-07-14T16:31:20Z</time>
      </trkpt>
      <trkpt lat="49.00203" lon="1.12038">
        <ele>101.5</ele>
        <time>2014-07-14T16:31:21Z</time>
      </trkpt>
      <trkpt lat="49.00201" lon="1.12049">
        <ele>100.5</ele>
        <time>2014-07-14T16:31:22Z</time>
      </trkpt>
      <trkpt lat="49.002" lon="1.12056">
        <ele>101.5</ele>
        <time>2014-07-14T16:31:23Z</time>
      </trkpt>
      <trkpt lat="49.00199" lon="1.12062">
        <ele>101.5</ele>
        <time>2014-07-14T16:31:24Z</time>
      </trkpt>
      <trkpt lat="49.00198" lon="1.12066">
        <ele>102.5</ele>
        <time>2014-07-14T16:31:25Z</time>
      </trkpt>
      <trkpt lat="49.00196" lon="1.12073">
        <ele>101.5</ele>
        <time>2014-07-14T16:31:26Z</time>
      </trkpt>
      <trkpt lat="49.00194" lon="1.1208">
        <ele>101.5</ele>
        <time>2014-07-14T16:31:27Z</time>
      </trkpt>
      <trkpt lat="49.00189" lon="1.12094">
        <ele>102.5</ele>
        <time>2014-07-14T16:31:30Z</time>
      </trkpt>
      <trkpt lat="49.00187" lon="1.12105">
        <ele>100.5</ele>
        <time>2014-07-14T16:31:32Z</time>
      </trkpt>
      <trkpt lat="49.00184" lon="1.12114">
        <ele>101.5</ele>
        <time>2014-07-14T16:31:34Z</time>
      </trkpt>
      <trkpt lat="49.00181" lon="1.12122">
        <ele>101.5</ele>
        <time>2014-07-14T16:31:36Z</time>
      </trkpt>
      <trkpt lat="49.00179" lon="1.12129">
        <ele>101.5</ele>
        <time>2014-07-14T16:31:38Z</time>
      </trkpt>
      <trkpt lat="49.00177" lon="1.12135">
        <ele>102.5</ele>
        <time>2014-07-14T16:31:40Z</time>
      </trkpt>
      <trkpt lat="49.00175" lon="1.12145">
        <ele>104.5</ele>
        <time>2014-07-14T16:31:43Z</time>
      </trkpt>
      <trkpt lat="49.00173" lon="1.12153">
        <ele>105.5</ele>
        <time>2014-07-14T16:31:46Z</time>
      </trkpt>
      <trkpt lat="49.00169" lon="1.1216">
        <ele>106.5</ele>
        <time>2014-07-14T16:31:49Z</time>
      </trkpt>
      <trkpt lat="49.00165" lon="1.12167">
        <ele>106.5</ele>
        <time>2014-07-14T16:31:52Z</time>
      </trkpt>
      <trkpt lat="49.00162" lon="1.12174">
        <ele>107.5</ele>
        <time>2014-07-14T16:31:55Z</time>
      </trkpt>
      <trkpt lat="49.0016" lon="1.1218">
        <ele>108.5</ele>
        <time>2014-07-14T16:31:59Z</time>
      </trkpt>
      <trkpt lat="49.00157" lon="1.12186">
        <ele>109.5</ele>
        <time>2014-07-14T16:32:02Z</time>
      </trkpt>
      <trkpt lat="49.00154" lon="1.12193">
        <ele>110.5</ele>
        <time>2014-07-14T16:32:05Z</time>
      </trkpt>
      <trkpt lat="49.00151" lon="1.12199">
        <ele>111.5</ele>
        <time>2014-07-14T16:32:08Z</time>
      </trkpt>
      <trkpt lat="49.00147" lon="1.12204">
        <ele>112.5</ele>
        <time>2014-07-14T16:32:11Z</time>
      </trkpt>
      <trkpt lat="49.00143" lon="1.12211">
        <ele>112.5</ele>
        <time>2014-07-14T16:32:14Z</time>
      </trkpt>
      <trkpt lat="49.00142" lon="1.1222">
        <ele>113.5</ele>
        <time>2014-07-14T16:32:17Z</time>
      </trkpt>
      <trkpt lat="49.0014" lon="1.12228">
        <ele>113.5</ele>
        <time>2014-07-14T16:32:20Z</time>
      </trkpt>
      <trkpt lat="49.00138" lon="1.12236">
        <ele>114.5</ele>
        <time>2014-07-14T16:32:23Z</time>
      </trkpt>
      <trkpt lat="49.00138" lon="1.12245">
        <ele>115.5</ele>
        <time>2014-07-14T16:32:26Z</time>
      </trkpt>
      <trkpt lat="49.00137" lon="1.12254">
        <ele>115.5</ele>
        <time>2014-07-14T16:32:29Z</time>
      </trkpt>
      <trkpt lat="49.00134" lon="1.12261">
        <ele>115.5</ele>
        <time>2014-07-14T16:32:32Z</time>
      </trkpt>
      <trkpt lat="49.00133" lon="1.12263">
        <ele>115.5</ele>
        <time>2014-07-14T16:32:33Z</time>
      </trkpt>
      <trkpt lat="49.00132" lon="1.12271">
        <ele>116.5</ele>
        <time>2014-07-14T16:32:36Z</time>
      </trkpt>
      <trkpt lat="49.00132" lon="1.1228">
        <ele>116.5</ele>
        <time>2014-07-14T16:32:39Z</time>
      </trkpt>
      <trkpt lat="49.00131" lon="1.12289">
        <ele>116.5</ele>
        <time>2014-07-14T16:32:42Z</time>
      </trkpt>
      <trkpt lat="49.0013" lon="1.12296">
        <ele>117.5</ele>
        <time>2014-07-14T16:32:45Z</time>
      </trkpt>
      <trkpt lat="49.00126" lon="1.12303">
        <ele>117.5</ele>
        <time>2014-07-14T16:32:48Z</time>
      </trkpt>
      <trkpt lat="49.00122" lon="1.12311">
        <ele>117.5</ele>
        <time>2014-07-14T16:32:51Z</time>
      </trkpt>
      <trkpt lat="49.0012" lon="1.12321">
        <ele>117.5</ele>
        <time>2014-07-14T16:32:54Z</time>
      </trkpt>
      <trkpt lat="49.00121" lon="1.1233">
        <ele>118.5</ele>
        <time>2014-07-14T16:32:57Z</time>
      </trkpt>
      <trkpt lat="49.00122" lon="1.12338">
        <ele>119.5</ele>
        <time>2014-07-14T16:33:00Z</time>
      </trkpt>
      <trkpt lat="49.00124" lon="1.12345">
        <ele>121.5</ele>
        <time>2014-07-14T16:33:04Z</time>
      </trkpt>
      <trkpt lat="49.00127" lon="1.12352">
        <ele>123.5</ele>
        <time>2014-07-14T16:33:07Z</time>
      </trkpt>
      <trkpt lat="49.00128" lon="1.12359">
        <ele>125.5</ele>
        <time>2014-07-14T16:33:14Z</time>
      </trkpt>
      <trkpt lat="49.0013" lon="1.12368">
        <ele>123.5</ele>
        <time>2014-07-14T16:33:19Z</time>
      </trkpt>
      <trkpt lat="49.00131" lon="1.12375">
        <ele>123.5</ele>
        <time>2014-07-14T16:33:22Z</time>
      </trkpt>
      <trkpt lat="49.00133" lon="1.12383">
        <ele>122.5</ele>
        <time>2014-07-14T16:33:25Z</time>
      </trkpt>
      <trkpt lat="49.00134" lon="1.12391">
        <ele>123.5</ele>
        <time>2014-07-14T16:33:28Z</time>
      </trkpt>
      <trkpt lat="49.00135" lon="1.12399">
        <ele>122.5</ele>
        <time>2014-07-14T16:33:31Z</time>
      </trkpt>
      <trkpt lat="49.00137" lon="1.12406">
        <ele>123.5</ele>
        <time>2014-07-14T16:33:34Z</time>
      </trkpt>
      <trkpt lat="49.00139" lon="1.12414">
        <ele>122.5</ele>
        <time>2014-07-14T16:33:38Z</time>
      </trkpt>
      <trkpt lat="49.00139" lon="1.12422">
        <ele>122.5</ele>
        <time>2014-07-14T16:33:41Z</time>
      </trkpt>
      <trkpt lat="49.0014" lon="1.1243">
        <ele>121.5</ele>
        <time>2014-07-14T16:33:45Z</time>
      </trkpt>
      <trkpt lat="49.00141" lon="1.12438">
        <ele>122.5</ele>
        <time>2014-07-14T16:33:49Z</time>
      </trkpt>
      <trkpt lat="49.00143" lon="1.12445">
        <ele>123.5</ele>
        <time>2014-07-14T16:33:53Z</time>
      </trkpt>
      <trkpt lat="49.00145" lon="1.12453">
        <ele>123.5</ele>
        <time>2014-07-14T16:33:57Z</time>
      </trkpt>
      <trkpt lat="49.00145" lon="1.12462">
        <ele>125.5</ele>
        <time>2014-07-14T16:34:01Z</time>
      </trkpt>
      <trkpt lat="49.00145" lon="1.12471">
        <ele>126.5</ele>
        <time>2014-07-14T16:34:06Z</time>
      </trkpt>
      <trkpt lat="49.00147" lon="1.12478">
        <ele>127.5</ele>
        <time>2014-07-14T16:34:10Z</time>
      </trkpt>
      <trkpt lat="49.00151" lon="1.12482">
        <ele>127.5</ele>
        <time>2014-07-14T16:34:14Z</time>
      </trkpt>
      <trkpt lat="49.00154" lon="1.12488">
        <ele>127.5</ele>
        <time>2014-07-14T16:34:17Z</time>
      </trkpt>
      <trkpt lat="49.00157" lon="1.12497">
        <ele>127.5</ele>
        <time>2014-07-14T16:34:20Z</time>
      </trkpt>
      <trkpt lat="49.0016" lon="1.12503">
        <ele>127.5</ele>
        <time>2014-07-14T16:34:22Z</time>
      </trkpt>
      <trkpt lat="49.00162" lon="1.12512">
        <ele>129.5</ele>
        <time>2014-07-14T16:34:24Z</time>
      </trkpt>
      <trkpt lat="49.00163" lon="1.12521">
        <ele>129.5</ele>
        <time>2014-07-14T16:34:26Z</time>
      </trkpt>
      <trkpt lat="49.00165" lon="1.1253">
        <ele>128.5</ele>
        <time>2014-07-14T16:34:28Z</time>
      </trkpt>
      <trkpt lat="49.00166" lon="1.1254">
        <ele>128.5</ele>
        <time>2014-07-14T16:34:30Z</time>
      </trkpt>
      <trkpt lat="49.00168" lon="1.1255">
        <ele>129.5</ele>
        <time>2014-07-14T16:34:32Z</time>
      </trkpt>
      <trkpt lat="49.0017" lon="1.1256">
        <ele>129.5</ele>
        <time>2014-07-14T16:34:34Z</time>
      </trkpt>
      <trkpt lat="49.00173" lon="1.1257">
        <ele>130.5</ele>
        <time>2014-07-14T16:34:36Z</time>
      </trkpt>
      <trkpt lat="49.00175" lon="1.12578">
        <ele>129.5</ele>
        <time>2014-07-14T16:34:38Z</time>
      </trkpt>
      <trkpt lat="49.00178" lon="1.12587">
        <ele>130.5</ele>
        <time>2014-07-14T16:34:40Z</time>
      </trkpt>
      <trkpt lat="49.00181" lon="1.12595">
        <ele>130.5</ele>
        <time>2014-07-14T16:34:42Z</time>
      </trkpt>
      <trkpt lat="49.00183" lon="1.12604">
        <ele>131.5</ele>
        <time>2014-07-14T16:34:44Z</time>
      </trkpt>
      <trkpt lat="49.00185" lon="1.12612">
        <ele>131.5</ele>
        <time>2014-07-14T16:34:46Z</time>
      </trkpt>
      <trkpt lat="49.00187" lon="1.12621">
        <ele>131.5</ele>
        <time>2014-07-14T16:34:49Z</time>
      </trkpt>
      <trkpt lat="49.00188" lon="1.12629">
        <ele>132.5</ele>
        <time>2014-07-14T16:34:51Z</time>
      </trkpt>
      <trkpt lat="49.00192" lon="1.1264">
        <ele>131.5</ele>
        <time>2014-07-14T16:34:53Z</time>
      </trkpt>
      <trkpt lat="49.00196" lon="1.12649">
        <ele>132.5</ele>
        <time>2014-07-14T16:34:55Z</time>
      </trkpt>
      <trkpt lat="49.00199" lon="1.12658">
        <ele>132.5</ele>
        <time>2014-07-14T16:34:57Z</time>
      </trkpt>
      <trkpt lat="49.00201" lon="1.12667">
        <ele>133.5</ele>
        <time>2014-07-14T16:34:59Z</time>
      </trkpt>
      <trkpt lat="49.00204" lon="1.12677">
        <ele>133.5</ele>
        <time>2014-07-14T16:35:01Z</time>
      </trkpt>
      <trkpt lat="49.00208" lon="1.12687">
        <ele>133.5</ele>
        <time>2014-07-14T16:35:03Z</time>
      </trkpt>
      <trkpt lat="49.00211" lon="1.12697">
        <ele>133.5</ele>
        <time>2014-07-14T16:35:05Z</time>
      </trkpt>
      <trkpt lat="49.00212" lon="1.12702">
        <ele>133.5</ele>
        <time>2014-07-14T16:35:06Z</time>
      </trkpt>
      <trkpt lat="49.00215" lon="1.12712">
        <ele>134.5</ele>
        <time>2014-07-14T16:35:08Z</time>
      </trkpt>
      <trkpt lat="49.00217" lon="1.12716">
        <ele>134.5</ele>
        <time>2014-07-14T16:35:09Z</time>
      </trkpt>
      <trkpt lat="49.0022" lon="1.12725">
        <ele>134.5</ele>
        <time>2014-07-14T16:35:11Z</time>
      </trkpt>
      <trkpt lat="49.00221" lon="1.12733">
        <ele>134.5</ele>
        <time>2014-07-14T16:35:13Z</time>
      </trkpt>
      <trkpt lat="49.00221" lon="1.12741">
        <ele>135.5</ele>
        <time>2014-07-14T16:35:15Z</time>
      </trkpt>
      <trkpt lat="49.00222" lon="1.12749">
        <ele>135.5</ele>
        <time>2014-07-14T16:35:17Z</time>
      </trkpt>
      <trkpt lat="49.00223" lon="1.12753">
        <ele>136.5</ele>
        <time>2014-07-14T16:35:18Z</time>
      </trkpt>
      <trkpt lat="49.00224" lon="1.1276">
        <ele>136.5</ele>
        <time>2014-07-14T16:35:20Z</time>
      </trkpt>
      <trkpt lat="49.00226" lon="1.12768">
        <ele>136.5</ele>
        <time>2014-07-14T16:35:22Z</time>
      </trkpt>
      <trkpt lat="49.00228" lon="1.12775">
        <ele>137.5</ele>
        <time>2014-07-14T16:35:24Z</time>
      </trkpt>
      <trkpt lat="49.00231" lon="1.12782">
        <ele>136.5</ele>
        <time>2014-07-14T16:35:26Z</time>
      </trkpt>
      <trkpt lat="49.00233" lon="1.1279">
        <ele>137.5</ele>
        <time>2014-07-14T16:35:28Z</time>
      </trkpt>
      <trkpt lat="49.00236" lon="1.12796">
        <ele>136.5</ele>
        <time>2014-07-14T16:35:30Z</time>
      </trkpt>
      <trkpt lat="49.00239" lon="1.12801">
        <ele>136.5</ele>
        <time>2014-07-14T16:35:32Z</time>
      </trkpt>
      <trkpt lat="49.0024" lon="1.1281">
        <ele>135.5</ele>
        <time>2014-07-14T16:35:36Z</time>
      </trkpt>
      <trkpt lat="49.00239" lon="1.12819">
        <ele>135.5</ele>
        <time>2014-07-14T16:35:39Z</time>
      </trkpt>
      <trkpt lat="49.0024" lon="1.12825">
        <ele>135.5</ele>
        <time>2014-07-14T16:35:42Z</time>
      </trkpt>
      <trkpt lat="49.00237" lon="1.12832">
        <ele>134.5</ele>
        <time>2014-07-14T16:35:46Z</time>
      </trkpt>
      <trkpt lat="49.00232" lon="1.12836">
        <ele>133.5</ele>
        <time>2014-07-14T16:35:49Z</time>
      </trkpt>
      <trkpt lat="49.00227" lon="1.12838">
        <ele>133.5</ele>
        <time>2014-07-14T16:35:51Z</time>
      </trkpt>
      <trkpt lat="49.00221" lon="1.12841">
        <ele>132.5</ele>
        <time>2014-07-14T16:35:53Z</time>
      </trkpt>
      <trkpt lat="49.00215" lon="1.12843">
        <ele>133.5</ele>
        <time>2014-07-14T16:35:55Z</time>
      </trkpt>
      <trkpt lat="49.0021" lon="1.12846">
        <ele>133.5</ele>
        <time>2014-07-14T16:35:57Z</time>
      </trkpt>
      <trkpt lat="49.00201" lon="1.12848">
        <ele>134.5</ele>
        <time>2014-07-14T16:36:00Z</time>
      </trkpt>
      <trkpt lat="49.00195" lon="1.12848">
        <ele>134.5</ele>
        <time>2014-07-14T16:36:02Z</time>
      </trkpt>
      <trkpt lat="49.00189" lon="1.12848">
        <ele>134.5</ele>
        <time>2014-07-14T16:36:04Z</time>
      </trkpt>
      <trkpt lat="49.00184" lon="1.12847">
        <ele>134.5</ele>
        <time>2014-07-14T16:36:06Z</time>
      </trkpt>
      <trkpt lat="49.00178" lon="1.12845">
        <ele>134.5</ele>
        <time>2014-07-14T16:36:08Z</time>
      </trkpt>
      <trkpt lat="49.00172" lon="1.12842">
        <ele>135.5</ele>
        <time>2014-07-14T16:36:10Z</time>
      </trkpt>
      <trkpt lat="49.00167" lon="1.1284">
        <ele>136.5</ele>
        <time>2014-07-14T16:36:12Z</time>
      </trkpt>
      <trkpt lat="49.00161" lon="1.12839">
        <ele>135.5</ele>
        <time>2014-07-14T16:36:14Z</time>
      </trkpt>
      <trkpt lat="49.00155" lon="1.12838">
        <ele>136.5</ele>
        <time>2014-07-14T16:36:16Z</time>
      </trkpt>
      <trkpt lat="49.00149" lon="1.12839">
        <ele>136.5</ele>
        <time>2014-07-14T16:36:18Z</time>
      </trkpt>
      <trkpt lat="49.00144" lon="1.1284">
        <ele>136.5</ele>
        <time>2014-07-14T16:36:20Z</time>
      </trkpt>
      <trkpt lat="49.00138" lon="1.12841">
        <ele>136.5</ele>
        <time>2014-07-14T16:36:22Z</time>
      </trkpt>
      <trkpt lat="49.00134" lon="1.12839">
        <ele>136.5</ele>
        <time>2014-07-14T16:36:25Z</time>
      </trkpt>
      <trkpt lat="49.0013" lon="1.12834">
        <ele>136.5</ele>
        <time>2014-07-14T16:37:37Z</time>
      </trkpt>
      <trkpt lat="49.00129" lon="1.12827">
        <ele>137.5</ele>
        <time>2014-07-14T16:38:11Z</time>
      </trkpt>
      <trkpt lat="49.00126" lon="1.12833">
        <ele>137.5</ele>
        <time>2014-07-14T16:38:34Z</time>
      </trkpt>
      <trkpt lat="49.00125" lon="1.12825">
        <ele>139.5</ele>
        <time>2014-07-14T16:38:41Z</time>
      </trkpt>
      <trkpt lat="49.00124" lon="1.12817">
        <ele>139.5</ele>
        <time>2014-07-14T16:38:43Z</time>
      </trkpt>
      <trkpt lat="49.00122" lon="1.12806">
        <ele>138.5</ele>
        <time>2014-07-14T16:38:45Z</time>
      </trkpt>
      <trkpt lat="49.00121" lon="1.12799">
        <ele>138.5</ele>
        <time>2014-07-14T16:38:46Z</time>
      </trkpt>
      <trkpt lat="49.0012" lon="1.12791">
        <ele>137.5</ele>
        <time>2014-07-14T16:38:47Z</time>
      </trkpt>
      <trkpt lat="49.0012" lon="1.12784">
        <ele>138.5</ele>
        <time>2014-07-14T16:38:48Z</time>
      </trkpt>
      <trkpt lat="49.00118" lon="1.12774">
        <ele>137.5</ele>
        <time>2014-07-14T16:38:50Z</time>
      </trkpt>
      <trkpt lat="49.00115" lon="1.12768">
        <ele>136.5</ele>
        <time>2014-07-14T16:38:54Z</time>
      </trkpt>
      <trkpt lat="49.0011" lon="1.12764">
        <ele>136.5</ele>
        <time>2014-07-14T16:38:57Z</time>
      </trkpt>
      <trkpt lat="49.00102" lon="1.12757">
        <ele>135.5</ele>
        <time>2014-07-14T16:39:00Z</time>
      </trkpt>
      <trkpt lat="49.00097" lon="1.12751">
        <ele>134.5</ele>
        <time>2014-07-14T16:39:02Z</time>
      </trkpt>
      <trkpt lat="49.00092" lon="1.12748">
        <ele>134.5</ele>
        <time>2014-07-14T16:39:04Z</time>
      </trkpt>
      <trkpt lat="49.00087" lon="1.12742">
        <ele>134.5</ele>
        <time>2014-07-14T16:39:06Z</time>
      </trkpt>
      <trkpt lat="49.00083" lon="1.12737">
        <ele>135.5</ele>
        <time>2014-07-14T16:39:08Z</time>
      </trkpt>
      <trkpt lat="49.00078" lon="1.12739">
        <ele>135.5</ele>
        <time>2014-07-14T16:39:15Z</time>
      </trkpt>
      <trkpt lat="49.00073" lon="1.12735">
        <ele>135.5</ele>
        <time>2014-07-14T16:39:20Z</time>
      </trkpt>
      <trkpt lat="49.00069" lon="1.1273">
        <ele>136.5</ele>
        <time>2014-07-14T16:39:23Z</time>
      </trkpt>
      <trkpt lat="49.00062" lon="1.12726">
        <ele>137.5</ele>
        <time>2014-07-14T16:39:26Z</time>
      </trkpt>
      <trkpt lat="49.00055" lon="1.12723">
        <ele>137.5</ele>
        <time>2014-07-14T16:39:28Z</time>
      </trkpt>
      <trkpt lat="49.00048" lon="1.12721">
        <ele>138.5</ele>
        <time>2014-07-14T16:39:30Z</time>
      </trkpt>
      <trkpt lat="49.00043" lon="1.12719">
        <ele>139.5</ele>
        <time>2014-07-14T16:39:32Z</time>
      </trkpt>
      <trkpt lat="49.00038" lon="1.12717">
        <ele>138.5</ele>
        <time>2014-07-14T16:39:34Z</time>
      </trkpt>
      <trkpt lat="49.00033" lon="1.12714">
        <ele>138.5</ele>
        <time>2014-07-14T16:39:36Z</time>
      </trkpt>
      <trkpt lat="49.00028" lon="1.1271">
        <ele>138.5</ele>
        <time>2014-07-14T16:39:38Z</time>
      </trkpt>
      <trkpt lat="49.00021" lon="1.12705">
        <ele>138.5</ele>
        <time>2014-07-14T16:39:40Z</time>
      </trkpt>
      <trkpt lat="49.00016" lon="1.12701">
        <ele>139.5</ele>
        <time>2014-07-14T16:39:42Z</time>
      </trkpt>
      <trkpt lat="49.00012" lon="1.12699">
        <ele>138.5</ele>
        <time>2014-07-14T16:39:44Z</time>
      </trkpt>
      <trkpt lat="49.00008" lon="1.12696">
        <ele>138.5</ele>
        <time>2014-07-14T16:39:47Z</time>
      </trkpt>
      <trkpt lat="49.00002" lon="1.12688">
        <ele>138.5</ele>
        <time>2014-07-14T16:39:50Z</time>
      </trkpt>
      <trkpt lat="48.99998" lon="1.12683">
        <ele>137.5</ele>
        <time>2014-07-14T16:39:52Z</time>
      </trkpt>
      <trkpt lat="48.99992" lon="1.12681">
        <ele>138.5</ele>
        <time>2014-07-14T16:39:54Z</time>
      </trkpt>
      <trkpt lat="48.99986" lon="1.12679">
        <ele>139.5</ele>
        <time>2014-07-14T16:39:56Z</time>
      </trkpt>
      <trkpt lat="48.99982" lon="1.12676">
        <ele>139.5</ele>
        <time>2014-07-14T16:39:58Z</time>
      </trkpt>
      <trkpt lat="48.99976" lon="1.12673">
        <ele>139.5</ele>
        <time>2014-07-14T16:40:01Z</time>
      </trkpt>
      <trkpt lat="48.9997" lon="1.12671">
        <ele>138.5</ele>
        <time>2014-07-14T16:40:04Z</time>
      </trkpt>
      <trkpt lat="48.99965" lon="1.12675">
        <ele>138.5</ele>
        <time>2014-07-14T16:40:07Z</time>
      </trkpt>
      <trkpt lat="48.9996" lon="1.12675">
        <ele>138.5</ele>
        <time>2014-07-14T16:40:10Z</time>
      </trkpt>
      <trkpt lat="48.99954" lon="1.12675">
        <ele>139.5</ele>
        <time>2014-07-14T16:40:13Z</time>
      </trkpt>
      <trkpt lat="48.99949" lon="1.12675">
        <ele>139.5</ele>
        <time>2014-07-14T16:40:16Z</time>
      </trkpt>
      <trkpt lat="48.99945" lon="1.12677">
        <ele>139.5</ele>
        <time>2014-07-14T16:40:19Z</time>
      </trkpt>
      <trkpt lat="48.9994" lon="1.1268">
        <ele>139.5</ele>
        <time>2014-07-14T16:40:22Z</time>
      </trkpt>
      <trkpt lat="48.99933" lon="1.12678">
        <ele>139.5</ele>
        <time>2014-07-14T16:40:24Z</time>
      </trkpt>
      <trkpt lat="48.99926" lon="1.12677">
        <ele>139.5</ele>
        <time>2014-07-14T16:40:26Z</time>
      </trkpt>
      <trkpt lat="48.9992" lon="1.12678">
        <ele>140.5</ele>
        <time>2014-07-14T16:40:28Z</time>
      </trkpt>
      <trkpt lat="48.99916" lon="1.1268">
        <ele>140.5</ele>
        <time>2014-07-14T16:40:30Z</time>
      </trkpt>
      <trkpt lat="48.9991" lon="1.12681">
        <ele>139.5</ele>
        <time>2014-07-14T16:40:32Z</time>
      </trkpt>
      <trkpt lat="48.99904" lon="1.1268">
        <ele>140.5</ele>
        <time>2014-07-14T16:40:35Z</time>
      </trkpt>
      <trkpt lat="48.999" lon="1.12677">
        <ele>140.5</ele>
        <time>2014-07-14T16:40:37Z</time>
      </trkpt>
      <trkpt lat="48.99896" lon="1.12672">
        <ele>139.5</ele>
        <time>2014-07-14T16:40:39Z</time>
      </trkpt>
      <trkpt lat="48.99892" lon="1.12662">
        <ele>138.5</ele>
        <time>2014-07-14T16:40:41Z</time>
      </trkpt>
      <trkpt lat="48.99889" lon="1.12653">
        <ele>139.5</ele>
        <time>2014-07-14T16:40:43Z</time>
      </trkpt>
      <trkpt lat="48.99885" lon="1.12641">
        <ele>138.5</ele>
        <time>2014-07-14T16:40:45Z</time>
      </trkpt>
      <trkpt lat="48.99882" lon="1.12634">
        <ele>138.5</ele>
        <time>2014-07-14T16:40:46Z</time>
      </trkpt>
      <trkpt lat="48.9988" lon="1.12625">
        <ele>138.5</ele>
        <time>2014-07-14T16:40:47Z</time>
      </trkpt>
      <trkpt lat="48.99879" lon="1.12605">
        <ele>138.5</ele>
        <time>2014-07-14T16:40:48Z</time>
      </trkpt>
      <trkpt lat="48.99878" lon="1.12595">
        <ele>137.5</ele>
        <time>2014-07-14T16:40:49Z</time>
      </trkpt>
      <trkpt lat="48.99875" lon="1.12585">
        <ele>137.5</ele>
        <time>2014-07-14T16:40:50Z</time>
      </trkpt>
      <trkpt lat="48.99873" lon="1.12578">
        <ele>137.5</ele>
        <time>2014-07-14T16:40:51Z</time>
      </trkpt>
      <trkpt lat="48.99873" lon="1.12569">
        <ele>137.5</ele>
        <time>2014-07-14T16:40:52Z</time>
      </trkpt>
      <trkpt lat="48.9987" lon="1.12562">
        <ele>136.5</ele>
        <time>2014-07-14T16:40:53Z</time>
      </trkpt>
      <trkpt lat="48.99868" lon="1.12552">
        <ele>136.5</ele>
        <time>2014-07-14T16:40:54Z</time>
      </trkpt>
      <trkpt lat="48.99866" lon="1.12545">
        <ele>136.5</ele>
        <time>2014-07-14T16:40:55Z</time>
      </trkpt>
      <trkpt lat="48.99863" lon="1.12535">
        <ele>136.5</ele>
        <time>2014-07-14T16:40:56Z</time>
      </trkpt>
      <trkpt lat="48.99861" lon="1.12526">
        <ele>135.5</ele>
        <time>2014-07-14T16:40:57Z</time>
      </trkpt>
      <trkpt lat="48.9986" lon="1.12516">
        <ele>135.5</ele>
        <time>2014-07-14T16:40:58Z</time>
      </trkpt>
      <trkpt lat="48.99854" lon="1.12502">
        <ele>135.5</ele>
        <time>2014-07-14T16:41:00Z</time>
      </trkpt>
      <trkpt lat="48.99853" lon="1.12492">
        <ele>134.5</ele>
        <time>2014-07-14T16:41:01Z</time>
      </trkpt>
      <trkpt lat="48.99851" lon="1.12486">
        <ele>134.5</ele>
        <time>2014-07-14T16:41:02Z</time>
      </trkpt>
      <trkpt lat="48.99848" lon="1.12477">
        <ele>134.5</ele>
        <time>2014-07-14T16:41:03Z</time>
      </trkpt>
      <trkpt lat="48.99844" lon="1.12468">
        <ele>134.5</ele>
        <time>2014-07-14T16:41:04Z</time>
      </trkpt>
      <trkpt lat="48.99844" lon="1.12461">
        <ele>134.5</ele>
        <time>2014-07-14T16:41:05Z</time>
      </trkpt>
      <trkpt lat="48.99841" lon="1.12443">
        <ele>134.5</ele>
        <time>2014-07-14T16:41:07Z</time>
      </trkpt>
      <trkpt lat="48.99841" lon="1.12428">
        <ele>133.5</ele>
        <time>2014-07-14T16:41:08Z</time>
      </trkpt>
      <trkpt lat="48.99841" lon="1.12414">
        <ele>133.5</ele>
        <time>2014-07-14T16:41:08Z</time>
      </trkpt>
      <trkpt lat="48.99838" lon="1.12407">
        <ele>133.5</ele>
        <time>2014-07-14T16:41:10Z</time>
      </trkpt>
      <trkpt lat="48.99838" lon="1.12396">
        <ele>133.5</ele>
        <time>2014-07-14T16:41:11Z</time>
      </trkpt>
      <trkpt lat="48.99838" lon="1.12389">
        <ele>134.5</ele>
        <time>2014-07-14T16:41:12Z</time>
      </trkpt>
      <trkpt lat="48.99838" lon="1.1238">
        <ele>134.5</ele>
        <time>2014-07-14T16:41:13Z</time>
      </trkpt>
      <trkpt lat="48.99838" lon="1.1237">
        <ele>134.5</ele>
        <time>2014-07-14T16:41:14Z</time>
      </trkpt>
      <trkpt lat="48.99836" lon="1.12355">
        <ele>134.5</ele>
        <time>2014-07-14T16:41:16Z</time>
      </trkpt>
      <trkpt lat="48.99833" lon="1.12348">
        <ele>134.5</ele>
        <time>2014-07-14T16:41:17Z</time>
      </trkpt>
      <trkpt lat="48.99829" lon="1.12341">
        <ele>133.5</ele>
        <time>2014-07-14T16:41:18Z</time>
      </trkpt>
      <trkpt lat="48.99824" lon="1.12332">
        <ele>133.5</ele>
        <time>2014-07-14T16:41:20Z</time>
      </trkpt>
      <trkpt lat="48.9982" lon="1.12327">
        <ele>133.5</ele>
        <time>2014-07-14T16:41:21Z</time>
      </trkpt>
      <trkpt lat="48.99818" lon="1.12314">
        <ele>133.5</ele>
        <time>2014-07-14T16:41:23Z</time>
      </trkpt>
      <trkpt lat="48.99817" lon="1.12307">
        <ele>132.5</ele>
        <time>2014-07-14T16:41:24Z</time>
      </trkpt>
      <trkpt lat="48.99815" lon="1.123">
        <ele>131.5</ele>
        <time>2014-07-14T16:41:25Z</time>
      </trkpt>
      <trkpt lat="48.99813" lon="1.12291">
        <ele>131.5</ele>
        <time>2014-07-14T16:41:26Z</time>
      </trkpt>
      <trkpt lat="48.99812" lon="1.12272">
        <ele>131.5</ele>
        <time>2014-07-14T16:41:27Z</time>
      </trkpt>
      <trkpt lat="48.99808" lon="1.12262">
        <ele>131.5</ele>
        <time>2014-07-14T16:41:28Z</time>
      </trkpt>
      <trkpt lat="48.99809" lon="1.12251">
        <ele>131.5</ele>
        <time>2014-07-14T16:41:29Z</time>
      </trkpt>
      <trkpt lat="48.99808" lon="1.12242">
        <ele>131.5</ele>
        <time>2014-07-14T16:41:30Z</time>
      </trkpt>
      <trkpt lat="48.99809" lon="1.12227">
        <ele>131.5</ele>
        <time>2014-07-14T16:41:31Z</time>
      </trkpt>
      <trkpt lat="48.9981" lon="1.12213">
        <ele>131.5</ele>
        <time>2014-07-14T16:41:32Z</time>
      </trkpt>
      <trkpt lat="48.99807" lon="1.12206">
        <ele>131.5</ele>
        <time>2014-07-14T16:41:33Z</time>
      </trkpt>
      <trkpt lat="48.99806" lon="1.12197">
        <ele>131.5</ele>
        <time>2014-07-14T16:41:34Z</time>
      </trkpt>
      <trkpt lat="48.99806" lon="1.12186">
        <ele>131.5</ele>
        <time>2014-07-14T16:41:35Z</time>
      </trkpt>
      <trkpt lat="48.99802" lon="1.12173">
        <ele>130.5</ele>
        <time>2014-07-14T16:41:37Z</time>
      </trkpt>
      <trkpt lat="48.998" lon="1.12165">
        <ele>129.5</ele>
        <time>2014-07-14T16:41:38Z</time>
      </trkpt>
      <trkpt lat="48.99798" lon="1.12156">
        <ele>129.5</ele>
        <time>2014-07-14T16:41:43Z</time>
      </trkpt>
      <trkpt lat="48.99796" lon="1.12163">
        <ele>131.5</ele>
        <time>2014-07-14T16:41:49Z</time>
      </trkpt>
      <trkpt lat="48.99795" lon="1.12171">
        <ele>131.5</ele>
        <time>2014-07-14T16:41:54Z</time>
      </trkpt>
      <trkpt lat="48.99791" lon="1.12179">
        <ele>133.5</ele>
        <time>2014-07-14T16:41:57Z</time>
      </trkpt>
      <trkpt lat="48.99788" lon="1.12185">
        <ele>133.5</ele>
        <time>2014-07-14T16:41:59Z</time>
      </trkpt>
      <trkpt lat="48.99785" lon="1.12193">
        <ele>132.5</ele>
        <time>2014-07-14T16:42:02Z</time>
      </trkpt>
      <trkpt lat="48.99783" lon="1.122">
        <ele>133.5</ele>
        <time>2014-07-14T16:42:06Z</time>
      </trkpt>
      <trkpt lat="48.99778" lon="1.12206">
        <ele>134.5</ele>
        <time>2014-07-14T16:42:09Z</time>
      </trkpt>
      <trkpt lat="48.99775" lon="1.12211">
        <ele>134.5</ele>
        <time>2014-07-14T16:42:11Z</time>
      </trkpt>
      <trkpt lat="48.99771" lon="1.12217">
        <ele>134.5</ele>
        <time>2014-07-14T16:42:13Z</time>
      </trkpt>
      <trkpt lat="48.99767" lon="1.12222">
        <ele>135.5</ele>
        <time>2014-07-14T16:42:15Z</time>
      </trkpt>
      <trkpt lat="48.99762" lon="1.12227">
        <ele>135.5</ele>
        <time>2014-07-14T16:42:17Z</time>
      </trkpt>
      <trkpt lat="48.99758" lon="1.12232">
        <ele>135.5</ele>
        <time>2014-07-14T16:42:19Z</time>
      </trkpt>
      <trkpt lat="48.99755" lon="1.12237">
        <ele>135.5</ele>
        <time>2014-07-14T16:42:21Z</time>
      </trkpt>
      <trkpt lat="48.99751" lon="1.12244">
        <ele>135.5</ele>
        <time>2014-07-14T16:42:23Z</time>
      </trkpt>
      <trkpt lat="48.99747" lon="1.12252">
        <ele>135.5</ele>
        <time>2014-07-14T16:42:25Z</time>
      </trkpt>
      <trkpt lat="48.99741" lon="1.1226">
        <ele>135.5</ele>
        <time>2014-07-14T16:42:27Z</time>
      </trkpt>
      <trkpt lat="48.99736" lon="1.12267">
        <ele>135.5</ele>
        <time>2014-07-14T16:42:29Z</time>
      </trkpt>
      <trkpt lat="48.99731" lon="1.12274">
        <ele>135.5</ele>
        <time>2014-07-14T16:42:31Z</time>
      </trkpt>
      <trkpt lat="48.99726" lon="1.12282">
        <ele>135.5</ele>
        <time>2014-07-14T16:42:33Z</time>
      </trkpt>
      <trkpt lat="48.99722" lon="1.1229">
        <ele>136.5</ele>
        <time>2014-07-14T16:42:35Z</time>
      </trkpt>
      <trkpt lat="48.99719" lon="1.12297">
        <ele>136.5</ele>
        <time>2014-07-14T16:42:37Z</time>
      </trkpt>
      <trkpt lat="48.99715" lon="1.12304">
        <ele>136.5</ele>
        <time>2014-07-14T16:42:39Z</time>
      </trkpt>
      <trkpt lat="48.99712" lon="1.12312">
        <ele>137.5</ele>
        <time>2014-07-14T16:42:41Z</time>
      </trkpt>
      <trkpt lat="48.99709" lon="1.12317">
        <ele>136.5</ele>
        <time>2014-07-14T16:42:43Z</time>
      </trkpt>
      <trkpt lat="48.99705" lon="1.12323">
        <ele>137.5</ele>
        <time>2014-07-14T16:42:45Z</time>
      </trkpt>
      <trkpt lat="48.99702" lon="1.12328">
        <ele>137.5</ele>
        <time>2014-07-14T16:42:47Z</time>
      </trkpt>
      <trkpt lat="48.99698" lon="1.12334">
        <ele>136.5</ele>
        <time>2014-07-14T16:42:48Z</time>
      </trkpt>
      <trkpt lat="48.99694" lon="1.12339">
        <ele>137.5</ele>
        <time>2014-07-14T16:42:51Z</time>
      </trkpt>
      <trkpt lat="48.99692" lon="1.12347">
        <ele>136.5</ele>
        <time>2014-07-14T16:42:53Z</time>
      </trkpt>
      <trkpt lat="48.9969" lon="1.12351">
        <ele>136.5</ele>
        <time>2014-07-14T16:42:54Z</time>
      </trkpt>
      <trkpt lat="48.99686" lon="1.12358">
        <ele>136.5</ele>
        <time>2014-07-14T16:42:56Z</time>
      </trkpt>
      <trkpt lat="48.99682" lon="1.12361">
        <ele>137.5</ele>
        <time>2014-07-14T16:43:01Z</time>
      </trkpt>
      <trkpt lat="48.99679" lon="1.12367">
        <ele>136.5</ele>
        <time>2014-07-14T16:43:07Z</time>
      </trkpt>
      <trkpt lat="48.99676" lon="1.12376">
        <ele>137.5</ele>
        <time>2014-07-14T16:43:10Z</time>
      </trkpt>
      <trkpt lat="48.99672" lon="1.12381">
        <ele>137.5</ele>
        <time>2014-07-14T16:43:12Z</time>
      </trkpt>
      <trkpt lat="48.99667" lon="1.12386">
        <ele>137.5</ele>
        <time>2014-07-14T16:43:14Z</time>
      </trkpt>
      <trkpt lat="48.99661" lon="1.12395">
        <ele>136.5</ele>
        <time>2014-07-14T16:43:16Z</time>
      </trkpt>
      <trkpt lat="48.99656" lon="1.12403">
        <ele>136.5</ele>
        <time>2014-07-14T16:43:18Z</time>
      </trkpt>
      <trkpt lat="48.99651" lon="1.1241">
        <ele>137.5</ele>
        <time>2014-07-14T16:43:20Z</time>
      </trkpt>
      <trkpt lat="48.99647" lon="1.12418">
        <ele>136.5</ele>
        <time>2014-07-14T16:43:22Z</time>
      </trkpt>
      <trkpt lat="48.99643" lon="1.12426">
        <ele>135.5</ele>
        <time>2014-07-14T16:43:24Z</time>
      </trkpt>
      <trkpt lat="48.99637" lon="1.12434">
        <ele>137.5</ele>
        <time>2014-07-14T16:43:26Z</time>
      </trkpt>
      <trkpt lat="48.99633" lon="1.12441">
        <ele>138.5</ele>
        <time>2014-07-14T16:43:28Z</time>
      </trkpt>
      <trkpt lat="48.99628" lon="1.12448">
        <ele>137.5</ele>
        <time>2014-07-14T16:43:30Z</time>
      </trkpt>
      <trkpt lat="48.99624" lon="1.12454">
        <ele>138.5</ele>
        <time>2014-07-14T16:43:32Z</time>
      </trkpt>
      <trkpt lat="48.9962" lon="1.12462">
        <ele>137.5</ele>
        <time>2014-07-14T16:43:34Z</time>
      </trkpt>
      <trkpt lat="48.99615" lon="1.12471">
        <ele>138.5</ele>
        <time>2014-07-14T16:43:36Z</time>
      </trkpt>
      <trkpt lat="48.99609" lon="1.12481">
        <ele>138.5</ele>
        <time>2014-07-14T16:43:38Z</time>
      </trkpt>
      <trkpt lat="48.99604" lon="1.1249">
        <ele>138.5</ele>
        <time>2014-07-14T16:43:40Z</time>
      </trkpt>
      <trkpt lat="48.99599" lon="1.12498">
        <ele>138.5</ele>
        <time>2014-07-14T16:43:42Z</time>
      </trkpt>
      <trkpt lat="48.99592" lon="1.12506">
        <ele>138.5</ele>
        <time>2014-07-14T16:43:44Z</time>
      </trkpt>
      <trkpt lat="48.99586" lon="1.12513">
        <ele>138.5</ele>
        <time>2014-07-14T16:43:46Z</time>
      </trkpt>
      <trkpt lat="48.99581" lon="1.1252">
        <ele>139.5</ele>
        <time>2014-07-14T16:43:48Z</time>
      </trkpt>
      <trkpt lat="48.99578" lon="1.12528">
        <ele>138.5</ele>
        <time>2014-07-14T16:43:50Z</time>
      </trkpt>
      <trkpt lat="48.99574" lon="1.12535">
        <ele>138.5</ele>
        <time>2014-07-14T16:43:52Z</time>
      </trkpt>
      <trkpt lat="48.9957" lon="1.12542">
        <ele>139.5</ele>
        <time>2014-07-14T16:43:54Z</time>
      </trkpt>
      <trkpt lat="48.99567" lon="1.1255">
        <ele>139.5</ele>
        <time>2014-07-14T16:43:56Z</time>
      </trkpt>
      <trkpt lat="48.99562" lon="1.12557">
        <ele>139.5</ele>
        <time>2014-07-14T16:43:58Z</time>
      </trkpt>
      <trkpt lat="48.99559" lon="1.12562">
        <ele>139.5</ele>
        <time>2014-07-14T16:44:00Z</time>
      </trkpt>
      <trkpt lat="48.99554" lon="1.1257">
        <ele>139.5</ele>
        <time>2014-07-14T16:44:02Z</time>
      </trkpt>
      <trkpt lat="48.9955" lon="1.12578">
        <ele>139.5</ele>
        <time>2014-07-14T16:44:04Z</time>
      </trkpt>
      <trkpt lat="48.99546" lon="1.12586">
        <ele>139.5</ele>
        <time>2014-07-14T16:44:06Z</time>
      </trkpt>
      <trkpt lat="48.99542" lon="1.12594">
        <ele>140.5</ele>
        <time>2014-07-14T16:44:08Z</time>
      </trkpt>
      <trkpt lat="48.99536" lon="1.12601">
        <ele>140.5</ele>
        <time>2014-07-14T16:44:10Z</time>
      </trkpt>
      <trkpt lat="48.99531" lon="1.12609">
        <ele>140.5</ele>
        <time>2014-07-14T16:44:12Z</time>
      </trkpt>
      <trkpt lat="48.99526" lon="1.12617">
        <ele>140.5</ele>
        <time>2014-07-14T16:44:14Z</time>
      </trkpt>
      <trkpt lat="48.99519" lon="1.12626">
        <ele>140.5</ele>
        <time>2014-07-14T16:44:16Z</time>
      </trkpt>
      <trkpt lat="48.99516" lon="1.12631">
        <ele>140.5</ele>
        <time>2014-07-14T16:44:17Z</time>
      </trkpt>
      <trkpt lat="48.99512" lon="1.12635">
        <ele>140.5</ele>
        <time>2014-07-14T16:44:18Z</time>
      </trkpt>
      <trkpt lat="48.99508" lon="1.12639">
        <ele>141.5</ele>
        <time>2014-07-14T16:44:19Z</time>
      </trkpt>
      <trkpt lat="48.99504" lon="1.12644">
        <ele>141.5</ele>
        <time>2014-07-14T16:44:20Z</time>
      </trkpt>
      <trkpt lat="48.99499" lon="1.12653">
        <ele>140.5</ele>
        <time>2014-07-14T16:44:22Z</time>
      </trkpt>
      <trkpt lat="48.99496" lon="1.12658">
        <ele>141.5</ele>
        <time>2014-07-14T16:44:23Z</time>
      </trkpt>
      <trkpt lat="48.99493" lon="1.12663">
        <ele>140.5</ele>
        <time>2014-07-14T16:44:24Z</time>
      </trkpt>
      <trkpt lat="48.99486" lon="1.12673">
        <ele>141.5</ele>
        <time>2014-07-14T16:44:26Z</time>
      </trkpt>
      <trkpt lat="48.99479" lon="1.12681">
        <ele>141.5</ele>
        <time>2014-07-14T16:44:28Z</time>
      </trkpt>
      <trkpt lat="48.99474" lon="1.1269">
        <ele>141.5</ele>
        <time>2014-07-14T16:44:30Z</time>
      </trkpt>
      <trkpt lat="48.9947" lon="1.127">
        <ele>140.5</ele>
        <time>2014-07-14T16:44:32Z</time>
      </trkpt>
      <trkpt lat="48.99467" lon="1.12706">
        <ele>140.5</ele>
        <time>2014-07-14T16:44:33Z</time>
      </trkpt>
      <trkpt lat="48.99462" lon="1.12715">
        <ele>140.5</ele>
        <time>2014-07-14T16:44:35Z</time>
      </trkpt>
      <trkpt lat="48.99457" lon="1.12725">
        <ele>140.5</ele>
        <time>2014-07-14T16:44:37Z</time>
      </trkpt>
      <trkpt lat="48.99452" lon="1.12735">
        <ele>140.5</ele>
        <time>2014-07-14T16:44:39Z</time>
      </trkpt>
      <trkpt lat="48.99447" lon="1.12744">
        <ele>140.5</ele>
        <time>2014-07-14T16:44:41Z</time>
      </trkpt>
      <trkpt lat="48.99444" lon="1.12752">
        <ele>140.5</ele>
        <time>2014-07-14T16:44:43Z</time>
      </trkpt>
      <trkpt lat="48.9944" lon="1.12758">
        <ele>139.5</ele>
        <time>2014-07-14T16:44:45Z</time>
      </trkpt>
      <trkpt lat="48.99435" lon="1.12765">
        <ele>139.5</ele>
        <time>2014-07-14T16:44:47Z</time>
      </trkpt>
      <trkpt lat="48.99431" lon="1.1277">
        <ele>139.5</ele>
        <time>2014-07-14T16:44:48Z</time>
      </trkpt>
      <trkpt lat="48.99427" lon="1.12774">
        <ele>139.5</ele>
        <time>2014-07-14T16:44:48Z</time>
      </trkpt>
      <trkpt lat="48.99421" lon="1.12784">
        <ele>139.5</ele>
        <time>2014-07-14T16:44:51Z</time>
      </trkpt>
      <trkpt lat="48.99416" lon="1.12794">
        <ele>139.5</ele>
        <time>2014-07-14T16:44:53Z</time>
      </trkpt>
      <trkpt lat="48.99413" lon="1.12799">
        <ele>139.5</ele>
        <time>2014-07-14T16:44:54Z</time>
      </trkpt>
      <trkpt lat="48.99409" lon="1.12805">
        <ele>138.5</ele>
        <time>2014-07-14T16:44:55Z</time>
      </trkpt>
      <trkpt lat="48.99406" lon="1.1281">
        <ele>137.5</ele>
        <time>2014-07-14T16:44:56Z</time>
      </trkpt>
      <trkpt lat="48.99402" lon="1.12815">
        <ele>138.5</ele>
        <time>2014-07-14T16:44:57Z</time>
      </trkpt>
      <trkpt lat="48.99396" lon="1.12824">
        <ele>138.5</ele>
        <time>2014-07-14T16:44:59Z</time>
      </trkpt>
      <trkpt lat="48.99392" lon="1.12828">
        <ele>138.5</ele>
        <time>2014-07-14T16:45:00Z</time>
      </trkpt>
      <trkpt lat="48.99388" lon="1.12833">
        <ele>137.5</ele>
        <time>2014-07-14T16:45:01Z</time>
      </trkpt>
      <trkpt lat="48.99378" lon="1.12842">
        <ele>136.5</ele>
        <time>2014-07-14T16:45:02Z</time>
      </trkpt>
      <trkpt lat="48.99374" lon="1.12848">
        <ele>137.5</ele>
        <time>2014-07-14T16:45:03Z</time>
      </trkpt>
      <trkpt lat="48.99371" lon="1.12856">
        <ele>137.5</ele>
        <time>2014-07-14T16:45:04Z</time>
      </trkpt>
      <trkpt lat="48.99365" lon="1.12863">
        <ele>137.5</ele>
        <time>2014-07-14T16:45:05Z</time>
      </trkpt>
      <trkpt lat="48.99362" lon="1.1287">
        <ele>136.5</ele>
        <time>2014-07-14T16:45:06Z</time>
      </trkpt>
      <trkpt lat="48.99358" lon="1.1288">
        <ele>135.5</ele>
        <time>2014-07-14T16:45:08Z</time>
      </trkpt>
      <trkpt lat="48.99353" lon="1.12886">
        <ele>134.5</ele>
        <time>2014-07-14T16:45:09Z</time>
      </trkpt>
      <trkpt lat="48.99349" lon="1.12892">
        <ele>133.5</ele>
        <time>2014-07-14T16:45:10Z</time>
      </trkpt>
      <trkpt lat="48.99345" lon="1.12898">
        <ele>133.5</ele>
        <time>2014-07-14T16:45:10Z</time>
      </trkpt>
      <trkpt lat="48.9934" lon="1.12905">
        <ele>132.5</ele>
        <time>2014-07-14T16:45:12Z</time>
      </trkpt>
      <trkpt lat="48.99336" lon="1.1291">
        <ele>133.5</ele>
        <time>2014-07-14T16:45:13Z</time>
      </trkpt>
      <trkpt lat="48.99332" lon="1.12915">
        <ele>133.5</ele>
        <time>2014-07-14T16:45:14Z</time>
      </trkpt>
      <trkpt lat="48.9933" lon="1.12923">
        <ele>134.5</ele>
        <time>2014-07-14T16:45:16Z</time>
      </trkpt>
      <trkpt lat="48.99329" lon="1.1293">
        <ele>134.5</ele>
        <time>2014-07-14T16:45:19Z</time>
      </trkpt>
      <trkpt lat="48.99327" lon="1.12938">
        <ele>135.5</ele>
        <time>2014-07-14T16:45:20Z</time>
      </trkpt>
      <trkpt lat="48.99322" lon="1.12947">
        <ele>134.5</ele>
        <time>2014-07-14T16:45:23Z</time>
      </trkpt>
      <trkpt lat="48.99318" lon="1.12954">
        <ele>135.5</ele>
        <time>2014-07-14T16:45:25Z</time>
      </trkpt>
      <trkpt lat="48.99314" lon="1.1296">
        <ele>134.5</ele>
        <time>2014-07-14T16:45:27Z</time>
      </trkpt>
      <trkpt lat="48.9931" lon="1.12967">
        <ele>134.5</ele>
        <time>2014-07-14T16:45:29Z</time>
      </trkpt>
      <trkpt lat="48.99307" lon="1.12975">
        <ele>135.5</ele>
        <time>2014-07-14T16:45:31Z</time>
      </trkpt>
      <trkpt lat="48.99303" lon="1.12983">
        <ele>135.5</ele>
        <time>2014-07-14T16:45:33Z</time>
      </trkpt>
      <trkpt lat="48.99299" lon="1.1299">
        <ele>135.5</ele>
        <time>2014-07-14T16:45:35Z</time>
      </trkpt>
      <trkpt lat="48.99293" lon="1.12999">
        <ele>135.5</ele>
        <time>2014-07-14T16:45:37Z</time>
      </trkpt>
      <trkpt lat="48.99287" lon="1.13009">
        <ele>135.5</ele>
        <time>2014-07-14T16:45:39Z</time>
      </trkpt>
      <trkpt lat="48.99281" lon="1.13019">
        <ele>135.5</ele>
        <time>2014-07-14T16:45:41Z</time>
      </trkpt>
      <trkpt lat="48.99277" lon="1.13024">
        <ele>135.5</ele>
        <time>2014-07-14T16:45:42Z</time>
      </trkpt>
      <trkpt lat="48.99273" lon="1.13029">
        <ele>135.5</ele>
        <time>2014-07-14T16:45:43Z</time>
      </trkpt>
      <trkpt lat="48.9927" lon="1.13034">
        <ele>134.5</ele>
        <time>2014-07-14T16:45:44Z</time>
      </trkpt>
      <trkpt lat="48.99266" lon="1.13039">
        <ele>134.5</ele>
        <time>2014-07-14T16:45:45Z</time>
      </trkpt>
      <trkpt lat="48.99261" lon="1.13044">
        <ele>135.5</ele>
        <time>2014-07-14T16:45:45Z</time>
      </trkpt>
      <trkpt lat="48.99257" lon="1.13049">
        <ele>134.5</ele>
        <time>2014-07-14T16:45:47Z</time>
      </trkpt>
      <trkpt lat="48.99253" lon="1.13054">
        <ele>135.5</ele>
        <time>2014-07-14T16:45:48Z</time>
      </trkpt>
      <trkpt lat="48.99245" lon="1.13059">
        <ele>134.5</ele>
        <time>2014-07-14T16:45:50Z</time>
      </trkpt>
      <trkpt lat="48.99241" lon="1.13062">
        <ele>134.5</ele>
        <time>2014-07-14T16:45:52Z</time>
      </trkpt>
      <trkpt lat="48.99237" lon="1.13066">
        <ele>134.5</ele>
        <time>2014-07-14T16:46:11Z</time>
      </trkpt>
      <trkpt lat="48.99239" lon="1.13076">
        <ele>135.5</ele>
        <time>2014-07-14T16:46:15Z</time>
      </trkpt>
      <trkpt lat="48.99241" lon="1.13083">
        <ele>136.5</ele>
        <time>2014-07-14T16:46:17Z</time>
      </trkpt>
      <trkpt lat="48.99241" lon="1.13091">
        <ele>136.5</ele>
        <time>2014-07-14T16:46:20Z</time>
      </trkpt>
      <trkpt lat="48.99242" lon="1.13099">
        <ele>137.5</ele>
        <time>2014-07-14T16:46:23Z</time>
      </trkpt>
      <trkpt lat="48.99243" lon="1.13109">
        <ele>138.5</ele>
        <time>2014-07-14T16:46:26Z</time>
      </trkpt>
      <trkpt lat="48.99244" lon="1.13116">
        <ele>138.5</ele>
        <time>2014-07-14T16:46:28Z</time>
      </trkpt>
      <trkpt lat="48.99243" lon="1.13126">
        <ele>138.5</ele>
        <time>2014-07-14T16:46:31Z</time>
      </trkpt>
      <trkpt lat="48.99244" lon="1.13133">
        <ele>139.5</ele>
        <time>2014-07-14T16:46:33Z</time>
      </trkpt>
      <trkpt lat="48.99246" lon="1.1314">
        <ele>138.5</ele>
        <time>2014-07-14T16:46:34Z</time>
      </trkpt>
      <trkpt lat="48.99248" lon="1.13152">
        <ele>138.5</ele>
        <time>2014-07-14T16:46:36Z</time>
      </trkpt>
      <trkpt lat="48.9925" lon="1.1316">
        <ele>138.5</ele>
        <time>2014-07-14T16:46:38Z</time>
      </trkpt>
      <trkpt lat="48.99252" lon="1.13167">
        <ele>139.5</ele>
        <time>2014-07-14T16:46:40Z</time>
      </trkpt>
      <trkpt lat="48.99253" lon="1.13174">
        <ele>139.5</ele>
        <time>2014-07-14T16:46:42Z</time>
      </trkpt>
      <trkpt lat="48.99256" lon="1.13186">
        <ele>142.5</ele>
        <time>2014-07-14T16:46:46Z</time>
      </trkpt>
      <trkpt lat="48.99258" lon="1.13196">
        <ele>142.5</ele>
        <time>2014-07-14T16:46:49Z</time>
      </trkpt>
      <trkpt lat="48.99261" lon="1.13207">
        <ele>140.5</ele>
        <time>2014-07-14T16:46:51Z</time>
      </trkpt>
      <trkpt lat="48.99262" lon="1.13214">
        <ele>140.5</ele>
        <time>2014-07-14T16:46:52Z</time>
      </trkpt>
      <trkpt lat="48.99265" lon="1.13226">
        <ele>140.5</ele>
        <time>2014-07-14T16:46:54Z</time>
      </trkpt>
      <trkpt lat="48.99267" lon="1.13237">
        <ele>140.5</ele>
        <time>2014-07-14T16:46:56Z</time>
      </trkpt>
      <trkpt lat="48.99269" lon="1.13247">
        <ele>140.5</ele>
        <time>2014-07-14T16:46:58Z</time>
      </trkpt>
      <trkpt lat="48.9927" lon="1.13256">
        <ele>140.5</ele>
        <time>2014-07-14T16:47:00Z</time>
      </trkpt>
      <trkpt lat="48.99272" lon="1.13265">
        <ele>141.5</ele>
        <time>2014-07-14T16:47:02Z</time>
      </trkpt>
      <trkpt lat="48.99274" lon="1.13274">
        <ele>141.5</ele>
        <time>2014-07-14T16:47:04Z</time>
      </trkpt>
      <trkpt lat="48.99276" lon="1.13282">
        <ele>142.5</ele>
        <time>2014-07-14T16:47:06Z</time>
      </trkpt>
      <trkpt lat="48.99278" lon="1.13291">
        <ele>143.5</ele>
        <time>2014-07-14T16:47:08Z</time>
      </trkpt>
      <trkpt lat="48.99281" lon="1.13301">
        <ele>142.5</ele>
        <time>2014-07-14T16:47:10Z</time>
      </trkpt>
      <trkpt lat="48.99283" lon="1.13311">
        <ele>142.5</ele>
        <time>2014-07-14T16:47:12Z</time>
      </trkpt>
      <trkpt lat="48.99284" lon="1.1332">
        <ele>143.5</ele>
        <time>2014-07-14T16:47:14Z</time>
      </trkpt>
      <trkpt lat="48.99286" lon="1.13329">
        <ele>143.5</ele>
        <time>2014-07-14T16:47:16Z</time>
      </trkpt>
      <trkpt lat="48.99287" lon="1.13333">
        <ele>143.5</ele>
        <time>2014-07-14T16:47:17Z</time>
      </trkpt>
      <trkpt lat="48.99289" lon="1.13342">
        <ele>144.5</ele>
        <time>2014-07-14T16:47:19Z</time>
      </trkpt>
      <trkpt lat="48.9929" lon="1.1335">
        <ele>144.5</ele>
        <time>2014-07-14T16:47:21Z</time>
      </trkpt>
      <trkpt lat="48.99292" lon="1.1336">
        <ele>145.5</ele>
        <time>2014-07-14T16:47:23Z</time>
      </trkpt>
      <trkpt lat="48.99294" lon="1.13368">
        <ele>144.5</ele>
        <time>2014-07-14T16:47:25Z</time>
      </trkpt>
      <trkpt lat="48.99297" lon="1.13378">
        <ele>144.5</ele>
        <time>2014-07-14T16:47:27Z</time>
      </trkpt>
      <trkpt lat="48.99299" lon="1.13387">
        <ele>145.5</ele>
        <time>2014-07-14T16:47:29Z</time>
      </trkpt>
      <trkpt lat="48.99301" lon="1.13396">
        <ele>145.5</ele>
        <time>2014-07-14T16:47:31Z</time>
      </trkpt>
      <trkpt lat="48.99304" lon="1.13405">
        <ele>145.5</ele>
        <time>2014-07-14T16:47:33Z</time>
      </trkpt>
      <trkpt lat="48.99306" lon="1.13415">
        <ele>145.5</ele>
        <time>2014-07-14T16:47:35Z</time>
      </trkpt>
      <trkpt lat="48.99307" lon="1.13423">
        <ele>146.5</ele>
        <time>2014-07-14T16:47:37Z</time>
      </trkpt>
      <trkpt lat="48.99309" lon="1.13431">
        <ele>146.5</ele>
        <time>2014-07-14T16:47:38Z</time>
      </trkpt>
      <trkpt lat="48.9931" lon="1.13438">
        <ele>146.5</ele>
        <time>2014-07-14T16:47:41Z</time>
      </trkpt>
      <trkpt lat="48.99312" lon="1.13447">
        <ele>147.5</ele>
        <time>2014-07-14T16:47:44Z</time>
      </trkpt>
      <trkpt lat="48.99314" lon="1.13454">
        <ele>147.5</ele>
        <time>2014-07-14T16:47:46Z</time>
      </trkpt>
      <trkpt lat="48.99316" lon="1.13464">
        <ele>148.5</ele>
        <time>2014-07-14T16:47:48Z</time>
      </trkpt>
      <trkpt lat="48.99318" lon="1.13475">
        <ele>144.5</ele>
        <time>2014-07-14T16:47:50Z</time>
      </trkpt>
      <trkpt lat="48.9932" lon="1.13482">
        <ele>144.5</ele>
        <time>2014-07-14T16:47:50Z</time>
      </trkpt>
      <trkpt lat="48.99324" lon="1.13491">
        <ele>144.5</ele>
        <time>2014-07-14T16:47:53Z</time>
      </trkpt>
      <trkpt lat="48.99326" lon="1.135">
        <ele>145.5</ele>
        <time>2014-07-14T16:47:55Z</time>
      </trkpt>
      <trkpt lat="48.99328" lon="1.1351">
        <ele>146.5</ele>
        <time>2014-07-14T16:47:57Z</time>
      </trkpt>
      <trkpt lat="48.99331" lon="1.13522">
        <ele>146.5</ele>
        <time>2014-07-14T16:47:59Z</time>
      </trkpt>
      <trkpt lat="48.99334" lon="1.13533">
        <ele>145.5</ele>
        <time>2014-07-14T16:48:01Z</time>
      </trkpt>
      <trkpt lat="48.99337" lon="1.13546">
        <ele>146.5</ele>
        <time>2014-07-14T16:48:03Z</time>
      </trkpt>
      <trkpt lat="48.99338" lon="1.13553">
        <ele>145.5</ele>
        <time>2014-07-14T16:48:04Z</time>
      </trkpt>
      <trkpt lat="48.9934" lon="1.13561">
        <ele>145.5</ele>
        <time>2014-07-14T16:48:05Z</time>
      </trkpt>
      <trkpt lat="48.99341" lon="1.13568">
        <ele>145.5</ele>
        <time>2014-07-14T16:48:06Z</time>
      </trkpt>
      <trkpt lat="48.99345" lon="1.13579">
        <ele>147.5</ele>
        <time>2014-07-14T16:48:07Z</time>
      </trkpt>
      <trkpt lat="48.99348" lon="1.13587">
        <ele>146.5</ele>
        <time>2014-07-14T16:48:09Z</time>
      </trkpt>
      <trkpt lat="48.9935" lon="1.13594">
        <ele>147.5</ele>
        <time>2014-07-14T16:48:11Z</time>
      </trkpt>
      <trkpt lat="48.99351" lon="1.13602">
        <ele>149.5</ele>
        <time>2014-07-14T16:48:14Z</time>
      </trkpt>
      <trkpt lat="48.99356" lon="1.13615">
        <ele>146.5</ele>
        <time>2014-07-14T16:48:16Z</time>
      </trkpt>
      <trkpt lat="48.99358" lon="1.13623">
        <ele>146.5</ele>
        <time>2014-07-14T16:48:17Z</time>
      </trkpt>
      <trkpt lat="48.9936" lon="1.1363">
        <ele>147.5</ele>
        <time>2014-07-14T16:48:18Z</time>
      </trkpt>
      <trkpt lat="48.99362" lon="1.13637">
        <ele>146.5</ele>
        <time>2014-07-14T16:48:19Z</time>
      </trkpt>
      <trkpt lat="48.99364" lon="1.13644">
        <ele>147.5</ele>
        <time>2014-07-14T16:48:20Z</time>
      </trkpt>
      <trkpt lat="48.99366" lon="1.1365">
        <ele>147.5</ele>
        <time>2014-07-14T16:48:21Z</time>
      </trkpt>
      <trkpt lat="48.99368" lon="1.13658">
        <ele>147.5</ele>
        <time>2014-07-14T16:48:22Z</time>
      </trkpt>
      <trkpt lat="48.99369" lon="1.13672">
        <ele>148.5</ele>
        <time>2014-07-14T16:48:23Z</time>
      </trkpt>
      <trkpt lat="48.99371" lon="1.13681">
        <ele>148.5</ele>
        <time>2014-07-14T16:48:24Z</time>
      </trkpt>
      <trkpt lat="48.99372" lon="1.13692">
        <ele>148.5</ele>
        <time>2014-07-14T16:48:26Z</time>
      </trkpt>
      <trkpt lat="48.99373" lon="1.13699">
        <ele>149.5</ele>
        <time>2014-07-14T16:48:27Z</time>
      </trkpt>
      <trkpt lat="48.99375" lon="1.13711">
        <ele>149.5</ele>
        <time>2014-07-14T16:48:29Z</time>
      </trkpt>
      <trkpt lat="48.99377" lon="1.13727">
        <ele>150.5</ele>
        <time>2014-07-14T16:48:32Z</time>
      </trkpt>
      <trkpt lat="48.99381" lon="1.13737">
        <ele>150.5</ele>
        <time>2014-07-14T16:48:34Z</time>
      </trkpt>
      <trkpt lat="48.99383" lon="1.13743">
        <ele>148.5</ele>
        <time>2014-07-14T16:48:35Z</time>
      </trkpt>
      <trkpt lat="48.99386" lon="1.13755">
        <ele>148.5</ele>
        <time>2014-07-14T16:48:37Z</time>
      </trkpt>
      <trkpt lat="48.99387" lon="1.13762">
        <ele>149.5</ele>
        <time>2014-07-14T16:48:38Z</time>
      </trkpt>
      <trkpt lat="48.99388" lon="1.13769">
        <ele>149.5</ele>
        <time>2014-07-14T16:48:39Z</time>
      </trkpt>
      <trkpt lat="48.9939" lon="1.13776">
        <ele>149.5</ele>
        <time>2014-07-14T16:48:40Z</time>
      </trkpt>
      <trkpt lat="48.99392" lon="1.13784">
        <ele>149.5</ele>
        <time>2014-07-14T16:48:40Z</time>
      </trkpt>
      <trkpt lat="48.99394" lon="1.13791">
        <ele>149.5</ele>
        <time>2014-07-14T16:48:42Z</time>
      </trkpt>
      <trkpt lat="48.99395" lon="1.13798">
        <ele>149.5</ele>
        <time>2014-07-14T16:48:43Z</time>
      </trkpt>
      <trkpt lat="48.99397" lon="1.13805">
        <ele>150.5</ele>
        <time>2014-07-14T16:48:44Z</time>
      </trkpt>
      <trkpt lat="48.99399" lon="1.13815">
        <ele>150.5</ele>
        <time>2014-07-14T16:48:46Z</time>
      </trkpt>
      <trkpt lat="48.994" lon="1.13828">
        <ele>150.5</ele>
        <time>2014-07-14T16:48:48Z</time>
      </trkpt>
      <trkpt lat="48.99402" lon="1.13839">
        <ele>150.5</ele>
        <time>2014-07-14T16:48:50Z</time>
      </trkpt>
      <trkpt lat="48.99405" lon="1.13849">
        <ele>149.5</ele>
        <time>2014-07-14T16:48:52Z</time>
      </trkpt>
      <trkpt lat="48.99408" lon="1.13858">
        <ele>149.5</ele>
        <time>2014-07-14T16:48:54Z</time>
      </trkpt>
      <trkpt lat="48.9941" lon="1.13869">
        <ele>149.5</ele>
        <time>2014-07-14T16:48:56Z</time>
      </trkpt>
      <trkpt lat="48.99412" lon="1.13879">
        <ele>150.5</ele>
        <time>2014-07-14T16:48:58Z</time>
      </trkpt>
      <trkpt lat="48.99415" lon="1.1389">
        <ele>150.5</ele>
        <time>2014-07-14T16:49:00Z</time>
      </trkpt>
      <trkpt lat="48.99417" lon="1.13897">
        <ele>150.5</ele>
        <time>2014-07-14T16:49:01Z</time>
      </trkpt>
      <trkpt lat="48.99421" lon="1.13921">
        <ele>151.5</ele>
        <time>2014-07-14T16:49:02Z</time>
      </trkpt>
      <trkpt lat="48.99423" lon="1.13932">
        <ele>150.5</ele>
        <time>2014-07-14T16:49:03Z</time>
      </trkpt>
      <trkpt lat="48.99423" lon="1.13946">
        <ele>149.5</ele>
        <time>2014-07-14T16:49:05Z</time>
      </trkpt>
      <trkpt lat="48.99423" lon="1.13947">
        <ele>150.5</ele>
        <time>2014-07-14T16:49:06Z</time>
      </trkpt>
      <trkpt lat="48.99425" lon="1.13953">
        <ele>150.5</ele>
        <time>2014-07-14T16:49:07Z</time>
      </trkpt>
      <trkpt lat="48.99427" lon="1.13963">
        <ele>151.5</ele>
        <time>2014-07-14T16:49:09Z</time>
      </trkpt>
      <trkpt lat="48.99431" lon="1.13971">
        <ele>152.5</ele>
        <time>2014-07-14T16:49:11Z</time>
      </trkpt>
      <trkpt lat="48.99433" lon="1.13983">
        <ele>152.5</ele>
        <time>2014-07-14T16:49:13Z</time>
      </trkpt>
      <trkpt lat="48.99435" lon="1.1399">
        <ele>152.5</ele>
        <time>2014-07-14T16:49:14Z</time>
      </trkpt>
      <trkpt lat="48.99436" lon="1.13997">
        <ele>152.5</ele>
        <time>2014-07-14T16:49:15Z</time>
      </trkpt>
      <trkpt lat="48.99439" lon="1.14006">
        <ele>151.5</ele>
        <time>2014-07-14T16:49:17Z</time>
      </trkpt>
      <trkpt lat="48.99442" lon="1.14015">
        <ele>150.5</ele>
        <time>2014-07-14T16:49:19Z</time>
      </trkpt>
      <trkpt lat="48.99446" lon="1.14028">
        <ele>149.5</ele>
        <time>2014-07-14T16:49:21Z</time>
      </trkpt>
      <trkpt lat="48.99448" lon="1.14035">
        <ele>149.5</ele>
        <time>2014-07-14T16:49:22Z</time>
      </trkpt>
      <trkpt lat="48.9945" lon="1.14042">
        <ele>149.5</ele>
        <time>2014-07-14T16:49:23Z</time>
      </trkpt>
      <trkpt lat="48.99452" lon="1.14049">
        <ele>151.5</ele>
        <time>2014-07-14T16:49:24Z</time>
      </trkpt>
      <trkpt lat="48.99454" lon="1.14055">
        <ele>150.5</ele>
        <time>2014-07-14T16:49:25Z</time>
      </trkpt>
      <trkpt lat="48.99458" lon="1.14067">
        <ele>151.5</ele>
        <time>2014-07-14T16:49:27Z</time>
      </trkpt>
      <trkpt lat="48.9946" lon="1.14078">
        <ele>150.5</ele>
        <time>2014-07-14T16:49:29Z</time>
      </trkpt>
      <trkpt lat="48.99462" lon="1.14091">
        <ele>149.5</ele>
        <time>2014-07-14T16:49:31Z</time>
      </trkpt>
      <trkpt lat="48.99464" lon="1.14104">
        <ele>149.5</ele>
        <time>2014-07-14T16:49:33Z</time>
      </trkpt>
      <trkpt lat="48.99467" lon="1.14117">
        <ele>148.5</ele>
        <time>2014-07-14T16:49:35Z</time>
      </trkpt>
      <trkpt lat="48.99468" lon="1.14124">
        <ele>149.5</ele>
        <time>2014-07-14T16:49:36Z</time>
      </trkpt>
      <trkpt lat="48.99468" lon="1.14131">
        <ele>149.5</ele>
        <time>2014-07-14T16:49:37Z</time>
      </trkpt>
      <trkpt lat="48.99469" lon="1.14138">
        <ele>148.5</ele>
        <time>2014-07-14T16:49:38Z</time>
      </trkpt>
      <trkpt lat="48.9947" lon="1.14146">
        <ele>148.5</ele>
        <time>2014-07-14T16:49:39Z</time>
      </trkpt>
      <trkpt lat="48.99471" lon="1.14154">
        <ele>148.5</ele>
        <time>2014-07-14T16:49:40Z</time>
      </trkpt>
      <trkpt lat="48.99472" lon="1.1416">
        <ele>148.5</ele>
        <time>2014-07-14T16:49:41Z</time>
      </trkpt>
      <trkpt lat="48.99473" lon="1.1417">
        <ele>148.5</ele>
        <time>2014-07-14T16:49:43Z</time>
      </trkpt>
      <trkpt lat="48.99474" lon="1.14178">
        <ele>148.5</ele>
        <time>2014-07-14T16:49:45Z</time>
      </trkpt>
      <trkpt lat="48.99476" lon="1.14186">
        <ele>147.5</ele>
        <time>2014-07-14T16:49:47Z</time>
      </trkpt>
      <trkpt lat="48.99479" lon="1.14197">
        <ele>146.5</ele>
        <time>2014-07-14T16:49:49Z</time>
      </trkpt>
      <trkpt lat="48.99481" lon="1.14207">
        <ele>145.5</ele>
        <time>2014-07-14T16:49:51Z</time>
      </trkpt>
      <trkpt lat="48.99484" lon="1.14222">
        <ele>145.5</ele>
        <time>2014-07-14T16:49:53Z</time>
      </trkpt>
      <trkpt lat="48.99487" lon="1.1423">
        <ele>145.5</ele>
        <time>2014-07-14T16:49:54Z</time>
      </trkpt>
      <trkpt lat="48.99489" lon="1.14236">
        <ele>145.5</ele>
        <time>2014-07-14T16:49:55Z</time>
      </trkpt>
      <trkpt lat="48.99492" lon="1.14249">
        <ele>146.5</ele>
        <time>2014-07-14T16:49:57Z</time>
      </trkpt>
      <trkpt lat="48.99494" lon="1.14256">
        <ele>146.5</ele>
        <time>2014-07-14T16:49:58Z</time>
      </trkpt>
      <trkpt lat="48.99497" lon="1.14263">
        <ele>146.5</ele>
        <time>2014-07-14T16:49:59Z</time>
      </trkpt>
      <trkpt lat="48.99498" lon="1.14271">
        <ele>146.5</ele>
        <time>2014-07-14T16:50:00Z</time>
      </trkpt>
      <trkpt lat="48.995" lon="1.1428">
        <ele>145.5</ele>
        <time>2014-07-14T16:50:01Z</time>
      </trkpt>
      <trkpt lat="48.99502" lon="1.14289">
        <ele>145.5</ele>
        <time>2014-07-14T16:50:02Z</time>
      </trkpt>
      <trkpt lat="48.99505" lon="1.14297">
        <ele>145.5</ele>
        <time>2014-07-14T16:50:03Z</time>
      </trkpt>
      <trkpt lat="48.99508" lon="1.14303">
        <ele>146.5</ele>
        <time>2014-07-14T16:50:04Z</time>
      </trkpt>
      <trkpt lat="48.99511" lon="1.14309">
        <ele>145.5</ele>
        <time>2014-07-14T16:50:05Z</time>
      </trkpt>
      <trkpt lat="48.99516" lon="1.1432">
        <ele>144.5</ele>
        <time>2014-07-14T16:50:07Z</time>
      </trkpt>
      <trkpt lat="48.99519" lon="1.14334">
        <ele>142.5</ele>
        <time>2014-07-14T16:50:09Z</time>
      </trkpt>
      <trkpt lat="48.9952" lon="1.14343">
        <ele>143.5</ele>
        <time>2014-07-14T16:50:10Z</time>
      </trkpt>
      <trkpt lat="48.99521" lon="1.14351">
        <ele>143.5</ele>
        <time>2014-07-14T16:50:11Z</time>
      </trkpt>
      <trkpt lat="48.99522" lon="1.14358">
        <ele>141.5</ele>
        <time>2014-07-14T16:50:12Z</time>
      </trkpt>
      <trkpt lat="48.99524" lon="1.14365">
        <ele>141.5</ele>
        <time>2014-07-14T16:50:13Z</time>
      </trkpt>
      <trkpt lat="48.99528" lon="1.14375">
        <ele>142.5</ele>
        <time>2014-07-14T16:50:15Z</time>
      </trkpt>
      <trkpt lat="48.99532" lon="1.14384">
        <ele>141.5</ele>
        <time>2014-07-14T16:50:17Z</time>
      </trkpt>
      <trkpt lat="48.99536" lon="1.14394">
        <ele>143.5</ele>
        <time>2014-07-14T16:50:19Z</time>
      </trkpt>
      <trkpt lat="48.9954" lon="1.14404">
        <ele>141.5</ele>
        <time>2014-07-14T16:50:21Z</time>
      </trkpt>
      <trkpt lat="48.99544" lon="1.14415">
        <ele>140.5</ele>
        <time>2014-07-14T16:50:22Z</time>
      </trkpt>
      <trkpt lat="48.99546" lon="1.14421">
        <ele>139.5</ele>
        <time>2014-07-14T16:50:25Z</time>
      </trkpt>
      <trkpt lat="48.99549" lon="1.14427">
        <ele>138.5</ele>
        <time>2014-07-14T16:50:28Z</time>
      </trkpt>
      <trkpt lat="48.99548" lon="1.14433">
        <ele>139.5</ele>
        <time>2014-07-14T16:50:41Z</time>
      </trkpt>
      <trkpt lat="48.99542" lon="1.1443">
        <ele>139.5</ele>
        <time>2014-07-14T16:52:18Z</time>
      </trkpt>
      <trkpt lat="48.99538" lon="1.14424">
        <ele>141.5</ele>
        <time>2014-07-14T16:52:20Z</time>
      </trkpt>
      <trkpt lat="48.99534" lon="1.14417">
        <ele>141.5</ele>
        <time>2014-07-14T16:52:22Z</time>
      </trkpt>
      <trkpt lat="48.9953" lon="1.14408">
        <ele>140.5</ele>
        <time>2014-07-14T16:52:24Z</time>
      </trkpt>
      <trkpt lat="48.99526" lon="1.14398">
        <ele>141.5</ele>
        <time>2014-07-14T16:52:26Z</time>
      </trkpt>
      <trkpt lat="48.99523" lon="1.14387">
        <ele>142.5</ele>
        <time>2014-07-14T16:52:28Z</time>
      </trkpt>
      <trkpt lat="48.9952" lon="1.14377">
        <ele>144.5</ele>
        <time>2014-07-14T16:52:30Z</time>
      </trkpt>
      <trkpt lat="48.99516" lon="1.14366">
        <ele>144.5</ele>
        <time>2014-07-14T16:52:32Z</time>
      </trkpt>
      <trkpt lat="48.99513" lon="1.14355">
        <ele>145.5</ele>
        <time>2014-07-14T16:52:34Z</time>
      </trkpt>
      <trkpt lat="48.9951" lon="1.14344">
        <ele>146.5</ele>
        <time>2014-07-14T16:52:36Z</time>
      </trkpt>
      <trkpt lat="48.99505" lon="1.14335">
        <ele>145.5</ele>
        <time>2014-07-14T16:52:38Z</time>
      </trkpt>
      <trkpt lat="48.995" lon="1.14329">
        <ele>146.5</ele>
        <time>2014-07-14T16:52:39Z</time>
      </trkpt>
      <trkpt lat="48.99499" lon="1.14321">
        <ele>147.5</ele>
        <time>2014-07-14T16:52:40Z</time>
      </trkpt>
      <trkpt lat="48.99496" lon="1.14313">
        <ele>145.5</ele>
        <time>2014-07-14T16:52:41Z</time>
      </trkpt>
      <trkpt lat="48.99492" lon="1.143">
        <ele>146.5</ele>
        <time>2014-07-14T16:52:43Z</time>
      </trkpt>
      <trkpt lat="48.99492" lon="1.14292">
        <ele>147.5</ele>
        <time>2014-07-14T16:52:43Z</time>
      </trkpt>
      <trkpt lat="48.99493" lon="1.14282">
        <ele>148.5</ele>
        <time>2014-07-14T16:52:46Z</time>
      </trkpt>
      <trkpt lat="48.99486" lon="1.14275">
        <ele>147.5</ele>
        <time>2014-07-14T16:52:48Z</time>
      </trkpt>
      <trkpt lat="48.99486" lon="1.14268">
        <ele>147.5</ele>
        <time>2014-07-14T16:52:49Z</time>
      </trkpt>
      <trkpt lat="48.99483" lon="1.14257">
        <ele>147.5</ele>
        <time>2014-07-14T16:52:51Z</time>
      </trkpt>
      <trkpt lat="48.99482" lon="1.14249">
        <ele>147.5</ele>
        <time>2014-07-14T16:52:52Z</time>
      </trkpt>
      <trkpt lat="48.99482" lon="1.14241">
        <ele>147.5</ele>
        <time>2014-07-14T16:52:53Z</time>
      </trkpt>
      <trkpt lat="48.99481" lon="1.14228">
        <ele>147.5</ele>
        <time>2014-07-14T16:52:55Z</time>
      </trkpt>
      <trkpt lat="48.99478" lon="1.14216">
        <ele>146.5</ele>
        <time>2014-07-14T16:52:57Z</time>
      </trkpt>
      <trkpt lat="48.99475" lon="1.14205">
        <ele>146.5</ele>
        <time>2014-07-14T16:52:59Z</time>
      </trkpt>
      <trkpt lat="48.99471" lon="1.14194">
        <ele>146.5</ele>
        <time>2014-07-14T16:53:01Z</time>
      </trkpt>
      <trkpt lat="48.99468" lon="1.14184">
        <ele>145.5</ele>
        <time>2014-07-14T16:53:03Z</time>
      </trkpt>
      <trkpt lat="48.99462" lon="1.14175">
        <ele>147.5</ele>
        <time>2014-07-14T16:53:05Z</time>
      </trkpt>
      <trkpt lat="48.99457" lon="1.1417">
        <ele>148.5</ele>
        <time>2014-07-14T16:53:07Z</time>
      </trkpt>
      <trkpt lat="48.99453" lon="1.14162">
        <ele>148.5</ele>
        <time>2014-07-14T16:53:09Z</time>
      </trkpt>
      <trkpt lat="48.99449" lon="1.14151">
        <ele>148.5</ele>
        <time>2014-07-14T16:53:11Z</time>
      </trkpt>
      <trkpt lat="48.99444" lon="1.14141">
        <ele>148.5</ele>
        <time>2014-07-14T16:53:13Z</time>
      </trkpt>
      <trkpt lat="48.99439" lon="1.14133">
        <ele>148.5</ele>
        <time>2014-07-14T16:53:15Z</time>
      </trkpt>
      <trkpt lat="48.99435" lon="1.14122">
        <ele>148.5</ele>
        <time>2014-07-14T16:53:17Z</time>
      </trkpt>
      <trkpt lat="48.99432" lon="1.14111">
        <ele>149.5</ele>
        <time>2014-07-14T16:53:19Z</time>
      </trkpt>
      <trkpt lat="48.99427" lon="1.14097">
        <ele>149.5</ele>
        <time>2014-07-14T16:53:22Z</time>
      </trkpt>
      <trkpt lat="48.99425" lon="1.14085">
        <ele>148.5</ele>
        <time>2014-07-14T16:53:24Z</time>
      </trkpt>
      <trkpt lat="48.99425" lon="1.14073">
        <ele>148.5</ele>
        <time>2014-07-14T16:53:26Z</time>
      </trkpt>
      <trkpt lat="48.99426" lon="1.14066">
        <ele>148.5</ele>
        <time>2014-07-14T16:53:27Z</time>
      </trkpt>
      <trkpt lat="48.99426" lon="1.14059">
        <ele>148.5</ele>
        <time>2014-07-14T16:53:28Z</time>
      </trkpt>
      <trkpt lat="48.99424" lon="1.14046">
        <ele>148.5</ele>
        <time>2014-07-14T16:53:30Z</time>
      </trkpt>
      <trkpt lat="48.99421" lon="1.14035">
        <ele>148.5</ele>
        <time>2014-07-14T16:53:32Z</time>
      </trkpt>
      <trkpt lat="48.99419" lon="1.14022">
        <ele>148.5</ele>
        <time>2014-07-14T16:53:34Z</time>
      </trkpt>
      <trkpt lat="48.99419" lon="1.14015">
        <ele>147.5</ele>
        <time>2014-07-14T16:53:35Z</time>
      </trkpt>
      <trkpt lat="48.99419" lon="1.14005">
        <ele>149.5</ele>
        <time>2014-07-14T16:53:36Z</time>
      </trkpt>
      <trkpt lat="48.99417" lon="1.14001">
        <ele>146.5</ele>
        <time>2014-07-14T16:53:37Z</time>
      </trkpt>
      <trkpt lat="48.99419" lon="1.13993">
        <ele>147.5</ele>
        <time>2014-07-14T16:53:38Z</time>
      </trkpt>
      <trkpt lat="48.99417" lon="1.13986">
        <ele>148.5</ele>
        <time>2014-07-14T16:53:39Z</time>
      </trkpt>
      <trkpt lat="48.99413" lon="1.13975">
        <ele>147.5</ele>
        <time>2014-07-14T16:53:41Z</time>
      </trkpt>
      <trkpt lat="48.9941" lon="1.13969">
        <ele>148.5</ele>
        <time>2014-07-14T16:53:41Z</time>
      </trkpt>
      <trkpt lat="48.99405" lon="1.13958">
        <ele>148.5</ele>
        <time>2014-07-14T16:53:44Z</time>
      </trkpt>
      <trkpt lat="48.99405" lon="1.13949">
        <ele>147.5</ele>
        <time>2014-07-14T16:53:45Z</time>
      </trkpt>
      <trkpt lat="48.99406" lon="1.1394">
        <ele>148.5</ele>
        <time>2014-07-14T16:53:45Z</time>
      </trkpt>
      <trkpt lat="48.99406" lon="1.13929">
        <ele>148.5</ele>
        <time>2014-07-14T16:53:47Z</time>
      </trkpt>
      <trkpt lat="48.99405" lon="1.13922">
        <ele>148.5</ele>
        <time>2014-07-14T16:53:48Z</time>
      </trkpt>
      <trkpt lat="48.99403" lon="1.13915">
        <ele>148.5</ele>
        <time>2014-07-14T16:53:49Z</time>
      </trkpt>
      <trkpt lat="48.99399" lon="1.13905">
        <ele>148.5</ele>
        <time>2014-07-14T16:53:51Z</time>
      </trkpt>
      <trkpt lat="48.99397" lon="1.13898">
        <ele>147.5</ele>
        <time>2014-07-14T16:53:52Z</time>
      </trkpt>
      <trkpt lat="48.99397" lon="1.13886">
        <ele>148.5</ele>
        <time>2014-07-14T16:53:52Z</time>
      </trkpt>
      <trkpt lat="48.99395" lon="1.13877">
        <ele>148.5</ele>
        <time>2014-07-14T16:53:54Z</time>
      </trkpt>
      <trkpt lat="48.99389" lon="1.13867">
        <ele>148.5</ele>
        <time>2014-07-14T16:53:56Z</time>
      </trkpt>
      <trkpt lat="48.99386" lon="1.13861">
        <ele>147.5</ele>
        <time>2014-07-14T16:53:57Z</time>
      </trkpt>
      <trkpt lat="48.99384" lon="1.13854">
        <ele>148.5</ele>
        <time>2014-07-14T16:53:58Z</time>
      </trkpt>
      <trkpt lat="48.99382" lon="1.13845">
        <ele>148.5</ele>
        <time>2014-07-14T16:53:59Z</time>
      </trkpt>
      <trkpt lat="48.9938" lon="1.13837">
        <ele>148.5</ele>
        <time>2014-07-14T16:53:59Z</time>
      </trkpt>
      <trkpt lat="48.99377" lon="1.13825">
        <ele>146.5</ele>
        <time>2014-07-14T16:54:02Z</time>
      </trkpt>
      <trkpt lat="48.99375" lon="1.13818">
        <ele>147.5</ele>
        <time>2014-07-14T16:54:03Z</time>
      </trkpt>
      <trkpt lat="48.99373" lon="1.13808">
        <ele>145.5</ele>
        <time>2014-07-14T16:54:04Z</time>
      </trkpt>
      <trkpt lat="48.99372" lon="1.13799">
        <ele>146.5</ele>
        <time>2014-07-14T16:54:05Z</time>
      </trkpt>
      <trkpt lat="48.99369" lon="1.13792">
        <ele>144.5</ele>
        <time>2014-07-14T16:54:05Z</time>
      </trkpt>
      <trkpt lat="48.99369" lon="1.13779">
        <ele>146.5</ele>
        <time>2014-07-14T16:54:06Z</time>
      </trkpt>
      <trkpt lat="48.99367" lon="1.13773">
        <ele>145.5</ele>
        <time>2014-07-14T16:54:08Z</time>
      </trkpt>
      <trkpt lat="48.99364" lon="1.13765">
        <ele>145.5</ele>
        <time>2014-07-14T16:54:08Z</time>
      </trkpt>
      <trkpt lat="48.99366" lon="1.13754">
        <ele>145.5</ele>
        <time>2014-07-14T16:54:10Z</time>
      </trkpt>
      <trkpt lat="48.99364" lon="1.13745">
        <ele>145.5</ele>
        <time>2014-07-14T16:54:11Z</time>
      </trkpt>
      <trkpt lat="48.9936" lon="1.13737">
        <ele>145.5</ele>
        <time>2014-07-14T16:54:12Z</time>
      </trkpt>
      <trkpt lat="48.9936" lon="1.13725">
        <ele>143.5</ele>
        <time>2014-07-14T16:54:12Z</time>
      </trkpt>
      <trkpt lat="48.99357" lon="1.13716">
        <ele>144.5</ele>
        <time>2014-07-14T16:54:14Z</time>
      </trkpt>
      <trkpt lat="48.99356" lon="1.13707">
        <ele>143.5</ele>
        <time>2014-07-14T16:54:15Z</time>
      </trkpt>
      <trkpt lat="48.99353" lon="1.137">
        <ele>141.5</ele>
        <time>2014-07-14T16:54:16Z</time>
      </trkpt>
      <trkpt lat="48.9935" lon="1.13691">
        <ele>143.5</ele>
        <time>2014-07-14T16:54:17Z</time>
      </trkpt>
      <trkpt lat="48.99348" lon="1.13684">
        <ele>143.5</ele>
        <time>2014-07-14T16:54:18Z</time>
      </trkpt>
      <trkpt lat="48.99346" lon="1.13677">
        <ele>140.5</ele>
        <time>2014-07-14T16:54:19Z</time>
      </trkpt>
      <trkpt lat="48.99341" lon="1.1367">
        <ele>143.5</ele>
        <time>2014-07-14T16:54:20Z</time>
      </trkpt>
      <trkpt lat="48.99339" lon="1.13661">
        <ele>142.5</ele>
        <time>2014-07-14T16:54:21Z</time>
      </trkpt>
      <trkpt lat="48.99338" lon="1.13653">
        <ele>143.5</ele>
        <time>2014-07-14T16:54:22Z</time>
      </trkpt>
      <trkpt lat="48.99337" lon="1.13643">
        <ele>143.5</ele>
        <time>2014-07-14T16:54:23Z</time>
      </trkpt>
      <trkpt lat="48.99337" lon="1.13631">
        <ele>142.5</ele>
        <time>2014-07-14T16:54:24Z</time>
      </trkpt>
      <trkpt lat="48.99335" lon="1.13621">
        <ele>141.5</ele>
        <time>2014-07-14T16:54:25Z</time>
      </trkpt>
      <trkpt lat="48.99333" lon="1.1361">
        <ele>142.5</ele>
        <time>2014-07-14T16:54:26Z</time>
      </trkpt>
      <trkpt lat="48.99333" lon="1.13598">
        <ele>141.5</ele>
        <time>2014-07-14T16:54:27Z</time>
      </trkpt>
      <trkpt lat="48.99332" lon="1.13588">
        <ele>142.5</ele>
        <time>2014-07-14T16:54:28Z</time>
      </trkpt>
      <trkpt lat="48.99329" lon="1.13581">
        <ele>141.5</ele>
        <time>2014-07-14T16:54:29Z</time>
      </trkpt>
      <trkpt lat="48.99327" lon="1.13571">
        <ele>141.5</ele>
        <time>2014-07-14T16:54:30Z</time>
      </trkpt>
      <trkpt lat="48.99325" lon="1.13562">
        <ele>140.5</ele>
        <time>2014-07-14T16:54:31Z</time>
      </trkpt>
      <trkpt lat="48.99323" lon="1.13553">
        <ele>140.5</ele>
        <time>2014-07-14T16:54:32Z</time>
      </trkpt>
      <trkpt lat="48.9932" lon="1.13544">
        <ele>139.5</ele>
        <time>2014-07-14T16:54:33Z</time>
      </trkpt>
      <trkpt lat="48.99317" lon="1.13538">
        <ele>139.5</ele>
        <time>2014-07-14T16:54:34Z</time>
      </trkpt>
      <trkpt lat="48.99314" lon="1.1353">
        <ele>141.5</ele>
        <time>2014-07-14T16:54:35Z</time>
      </trkpt>
      <trkpt lat="48.99311" lon="1.13522">
        <ele>140.5</ele>
        <time>2014-07-14T16:54:36Z</time>
      </trkpt>
      <trkpt lat="48.99309" lon="1.13515">
        <ele>141.5</ele>
        <time>2014-07-14T16:54:37Z</time>
      </trkpt>
      <trkpt lat="48.99308" lon="1.13506">
        <ele>142.5</ele>
        <time>2014-07-14T16:54:38Z</time>
      </trkpt>
      <trkpt lat="48.99306" lon="1.13497">
        <ele>142.5</ele>
        <time>2014-07-14T16:54:39Z</time>
      </trkpt>
      <trkpt lat="48.99307" lon="1.13486">
        <ele>144.5</ele>
        <time>2014-07-14T16:54:40Z</time>
      </trkpt>
      <trkpt lat="48.99305" lon="1.13479">
        <ele>142.5</ele>
        <time>2014-07-14T16:54:41Z</time>
      </trkpt>
      <trkpt lat="48.99303" lon="1.13469">
        <ele>143.5</ele>
        <time>2014-07-14T16:54:42Z</time>
      </trkpt>
      <trkpt lat="48.99299" lon="1.13457">
        <ele>141.5</ele>
        <time>2014-07-14T16:54:44Z</time>
      </trkpt>
      <trkpt lat="48.99298" lon="1.13446">
        <ele>141.5</ele>
        <time>2014-07-14T16:54:44Z</time>
      </trkpt>
      <trkpt lat="48.99296" lon="1.13438">
        <ele>141.5</ele>
        <time>2014-07-14T16:54:46Z</time>
      </trkpt>
      <trkpt lat="48.99294" lon="1.1343">
        <ele>141.5</ele>
        <time>2014-07-14T16:54:47Z</time>
      </trkpt>
      <trkpt lat="48.99291" lon="1.13423">
        <ele>140.5</ele>
        <time>2014-07-14T16:54:48Z</time>
      </trkpt>
      <trkpt lat="48.9929" lon="1.13411">
        <ele>140.5</ele>
        <time>2014-07-14T16:54:49Z</time>
      </trkpt>
      <trkpt lat="48.9929" lon="1.13404">
        <ele>141.5</ele>
        <time>2014-07-14T16:54:50Z</time>
      </trkpt>
      <trkpt lat="48.99288" lon="1.13396">
        <ele>141.5</ele>
        <time>2014-07-14T16:54:51Z</time>
      </trkpt>
      <trkpt lat="48.99285" lon="1.13385">
        <ele>141.5</ele>
        <time>2014-07-14T16:54:52Z</time>
      </trkpt>
      <trkpt lat="48.99284" lon="1.13377">
        <ele>141.5</ele>
        <time>2014-07-14T16:54:53Z</time>
      </trkpt>
      <trkpt lat="48.99283" lon="1.13369">
        <ele>141.5</ele>
        <time>2014-07-14T16:54:54Z</time>
      </trkpt>
      <trkpt lat="48.99281" lon="1.1336">
        <ele>140.5</ele>
        <time>2014-07-14T16:54:55Z</time>
      </trkpt>
      <trkpt lat="48.99278" lon="1.13351">
        <ele>140.5</ele>
        <time>2014-07-14T16:54:56Z</time>
      </trkpt>
      <trkpt lat="48.99274" lon="1.13345">
        <ele>141.5</ele>
        <time>2014-07-14T16:54:57Z</time>
      </trkpt>
      <trkpt lat="48.99272" lon="1.13337">
        <ele>139.5</ele>
        <time>2014-07-14T16:54:58Z</time>
      </trkpt>
      <trkpt lat="48.99269" lon="1.13328">
        <ele>140.5</ele>
        <time>2014-07-14T16:54:59Z</time>
      </trkpt>
      <trkpt lat="48.99268" lon="1.13317">
        <ele>140.5</ele>
        <time>2014-07-14T16:55:00Z</time>
      </trkpt>
      <trkpt lat="48.99266" lon="1.13305">
        <ele>140.5</ele>
        <time>2014-07-14T16:55:01Z</time>
      </trkpt>
      <trkpt lat="48.99264" lon="1.13292">
        <ele>141.5</ele>
        <time>2014-07-14T16:55:02Z</time>
      </trkpt>
      <trkpt lat="48.99261" lon="1.13286">
        <ele>139.5</ele>
        <time>2014-07-14T16:55:03Z</time>
      </trkpt>
      <trkpt lat="48.99259" lon="1.13279">
        <ele>139.5</ele>
        <time>2014-07-14T16:55:04Z</time>
      </trkpt>
      <trkpt lat="48.99257" lon="1.13265">
        <ele>138.5</ele>
        <time>2014-07-14T16:55:05Z</time>
      </trkpt>
      <trkpt lat="48.99256" lon="1.13256">
        <ele>138.5</ele>
        <time>2014-07-14T16:55:06Z</time>
      </trkpt>
      <trkpt lat="48.99255" lon="1.13244">
        <ele>138.5</ele>
        <time>2014-07-14T16:55:07Z</time>
      </trkpt>
      <trkpt lat="48.99253" lon="1.13233">
        <ele>137.5</ele>
        <time>2014-07-14T16:55:08Z</time>
      </trkpt>
      <trkpt lat="48.99249" lon="1.13224">
        <ele>136.5</ele>
        <time>2014-07-14T16:55:08Z</time>
      </trkpt>
      <trkpt lat="48.99247" lon="1.13213">
        <ele>136.5</ele>
        <time>2014-07-14T16:55:10Z</time>
      </trkpt>
      <trkpt lat="48.99245" lon="1.13203">
        <ele>136.5</ele>
        <time>2014-07-14T16:55:11Z</time>
      </trkpt>
      <trkpt lat="48.99243" lon="1.13191">
        <ele>136.5</ele>
        <time>2014-07-14T16:55:12Z</time>
      </trkpt>
      <trkpt lat="48.9924" lon="1.13182">
        <ele>136.5</ele>
        <time>2014-07-14T16:55:13Z</time>
      </trkpt>
      <trkpt lat="48.99237" lon="1.13173">
        <ele>136.5</ele>
        <time>2014-07-14T16:55:13Z</time>
      </trkpt>
      <trkpt lat="48.99234" lon="1.13164">
        <ele>135.5</ele>
        <time>2014-07-14T16:55:15Z</time>
      </trkpt>
      <trkpt lat="48.9923" lon="1.13156">
        <ele>136.5</ele>
        <time>2014-07-14T16:55:16Z</time>
      </trkpt>
      <trkpt lat="48.9923" lon="1.13143">
        <ele>135.5</ele>
        <time>2014-07-14T16:55:17Z</time>
      </trkpt>
      <trkpt lat="48.99227" lon="1.13133">
        <ele>134.5</ele>
        <time>2014-07-14T16:55:18Z</time>
      </trkpt>
      <trkpt lat="48.99224" lon="1.13123">
        <ele>134.5</ele>
        <time>2014-07-14T16:55:19Z</time>
      </trkpt>
      <trkpt lat="48.9922" lon="1.13115">
        <ele>136.5</ele>
        <time>2014-07-14T16:55:20Z</time>
      </trkpt>
      <trkpt lat="48.99216" lon="1.13104">
        <ele>136.5</ele>
        <time>2014-07-14T16:55:21Z</time>
      </trkpt>
      <trkpt lat="48.99213" lon="1.13092">
        <ele>136.5</ele>
        <time>2014-07-14T16:55:22Z</time>
      </trkpt>
      <trkpt lat="48.99213" lon="1.13079">
        <ele>136.5</ele>
        <time>2014-07-14T16:55:23Z</time>
      </trkpt>
      <trkpt lat="48.99211" lon="1.13068">
        <ele>135.5</ele>
        <time>2014-07-14T16:55:24Z</time>
      </trkpt>
      <trkpt lat="48.99213" lon="1.13054">
        <ele>134.5</ele>
        <time>2014-07-14T16:55:25Z</time>
      </trkpt>
      <trkpt lat="48.99211" lon="1.13048">
        <ele>135.5</ele>
        <time>2014-07-14T16:55:26Z</time>
      </trkpt>
      <trkpt lat="48.99209" lon="1.1304">
        <ele>134.5</ele>
        <time>2014-07-14T16:55:26Z</time>
      </trkpt>
      <trkpt lat="48.99202" lon="1.13028">
        <ele>132.5</ele>
        <time>2014-07-14T16:55:28Z</time>
      </trkpt>
      <trkpt lat="48.99197" lon="1.13018">
        <ele>133.5</ele>
        <time>2014-07-14T16:55:29Z</time>
      </trkpt>
      <trkpt lat="48.99192" lon="1.13011">
        <ele>132.5</ele>
        <time>2014-07-14T16:55:30Z</time>
      </trkpt>
      <trkpt lat="48.9919" lon="1.13001">
        <ele>133.5</ele>
        <time>2014-07-14T16:55:31Z</time>
      </trkpt>
      <trkpt lat="48.99187" lon="1.12991">
        <ele>132.5</ele>
        <time>2014-07-14T16:55:32Z</time>
      </trkpt>
      <trkpt lat="48.99187" lon="1.12975">
        <ele>134.5</ele>
        <time>2014-07-14T16:55:33Z</time>
      </trkpt>
      <trkpt lat="48.99182" lon="1.12967">
        <ele>133.5</ele>
        <time>2014-07-14T16:55:34Z</time>
      </trkpt>
      <trkpt lat="48.99177" lon="1.12963">
        <ele>133.5</ele>
        <time>2014-07-14T16:55:35Z</time>
      </trkpt>
      <trkpt lat="48.99176" lon="1.12956">
        <ele>132.5</ele>
        <time>2014-07-14T16:55:36Z</time>
      </trkpt>
      <trkpt lat="48.99174" lon="1.12942">
        <ele>132.5</ele>
        <time>2014-07-14T16:55:37Z</time>
      </trkpt>
      <trkpt lat="48.99172" lon="1.12929">
        <ele>133.5</ele>
        <time>2014-07-14T16:55:38Z</time>
      </trkpt>
      <trkpt lat="48.99169" lon="1.1292">
        <ele>132.5</ele>
        <time>2014-07-14T16:55:39Z</time>
      </trkpt>
      <trkpt lat="48.99165" lon="1.12909">
        <ele>131.5</ele>
        <time>2014-07-14T16:55:41Z</time>
      </trkpt>
      <trkpt lat="48.99161" lon="1.129">
        <ele>132.5</ele>
        <time>2014-07-14T16:55:42Z</time>
      </trkpt>
      <trkpt lat="48.99159" lon="1.1289">
        <ele>131.5</ele>
        <time>2014-07-14T16:55:43Z</time>
      </trkpt>
      <trkpt lat="48.9916" lon="1.12886">
        <ele>130.5</ele>
        <time>2014-07-14T16:55:44Z</time>
      </trkpt>
      <trkpt lat="48.99159" lon="1.12876">
        <ele>130.5</ele>
        <time>2014-07-14T16:55:45Z</time>
      </trkpt>
      <trkpt lat="48.99154" lon="1.12857">
        <ele>130.5</ele>
        <time>2014-07-14T16:55:47Z</time>
      </trkpt>
      <trkpt lat="48.99152" lon="1.12845">
        <ele>131.5</ele>
        <time>2014-07-14T16:55:48Z</time>
      </trkpt>
      <trkpt lat="48.9915" lon="1.12835">
        <ele>129.5</ele>
        <time>2014-07-14T16:55:49Z</time>
      </trkpt>
      <trkpt lat="48.9915" lon="1.12822">
        <ele>129.5</ele>
        <time>2014-07-14T16:55:50Z</time>
      </trkpt>
      <trkpt lat="48.99146" lon="1.1281">
        <ele>129.5</ele>
        <time>2014-07-14T16:55:51Z</time>
      </trkpt>
      <trkpt lat="48.99143" lon="1.12801">
        <ele>129.5</ele>
        <time>2014-07-14T16:55:52Z</time>
      </trkpt>
      <trkpt lat="48.99142" lon="1.1279">
        <ele>130.5</ele>
        <time>2014-07-14T16:55:53Z</time>
      </trkpt>
      <trkpt lat="48.9914" lon="1.12783">
        <ele>129.5</ele>
        <time>2014-07-14T16:55:54Z</time>
      </trkpt>
      <trkpt lat="48.99139" lon="1.12774">
        <ele>130.5</ele>
        <time>2014-07-14T16:55:55Z</time>
      </trkpt>
      <trkpt lat="48.99139" lon="1.12764">
        <ele>129.5</ele>
        <time>2014-07-14T16:55:56Z</time>
      </trkpt>
      <trkpt lat="48.99141" lon="1.12756">
        <ele>129.5</ele>
        <time>2014-07-14T16:55:57Z</time>
      </trkpt>
      <trkpt lat="48.9914" lon="1.12747">
        <ele>128.5</ele>
        <time>2014-07-14T16:56:00Z</time>
      </trkpt>
      <trkpt lat="48.99137" lon="1.12743">
        <ele>128.5</ele>
        <time>2014-07-14T16:56:05Z</time>
      </trkpt>
      <trkpt lat="48.99133" lon="1.12746">
        <ele>129.5</ele>
        <time>2014-07-14T16:56:07Z</time>
      </trkpt>
      <trkpt lat="48.99128" lon="1.12746">
        <ele>127.5</ele>
        <time>2014-07-14T16:56:09Z</time>
      </trkpt>
      <trkpt lat="48.99123" lon="1.12744">
        <ele>127.5</ele>
        <time>2014-07-14T16:56:11Z</time>
      </trkpt>
      <trkpt lat="48.9912" lon="1.12734">
        <ele>129.5</ele>
        <time>2014-07-14T16:56:13Z</time>
      </trkpt>
      <trkpt lat="48.99119" lon="1.12722">
        <ele>129.5</ele>
        <time>2014-07-14T16:56:15Z</time>
      </trkpt>
      <trkpt lat="48.99117" lon="1.12709">
        <ele>128.5</ele>
        <time>2014-07-14T16:56:17Z</time>
      </trkpt>
      <trkpt lat="48.99115" lon="1.12701">
        <ele>128.5</ele>
        <time>2014-07-14T16:56:18Z</time>
      </trkpt>
      <trkpt lat="48.99114" lon="1.12694">
        <ele>129.5</ele>
        <time>2014-07-14T16:56:19Z</time>
      </trkpt>
      <trkpt lat="48.99114" lon="1.12681">
        <ele>128.5</ele>
        <time>2014-07-14T16:56:21Z</time>
      </trkpt>
      <trkpt lat="48.99113" lon="1.12672">
        <ele>128.5</ele>
        <time>2014-07-14T16:56:23Z</time>
      </trkpt>
      <trkpt lat="48.99113" lon="1.12671">
        <ele>128.5</ele>
        <time>2014-07-14T16:56:24Z</time>
      </trkpt>
      <trkpt lat="48.9911" lon="1.12666">
        <ele>128.5</ele>
        <time>2014-07-14T16:56:29Z</time>
      </trkpt>
      <trkpt lat="48.99108" lon="1.12657">
        <ele>128.5</ele>
        <time>2014-07-14T16:56:34Z</time>
      </trkpt>
      <trkpt lat="48.99106" lon="1.12647">
        <ele>129.5</ele>
        <time>2014-07-14T16:56:37Z</time>
      </trkpt>
      <trkpt lat="48.99106" lon="1.1264">
        <ele>129.5</ele>
        <time>2014-07-14T16:56:39Z</time>
      </trkpt>
      <trkpt lat="48.99105" lon="1.12632">
        <ele>128.5</ele>
        <time>2014-07-14T16:56:43Z</time>
      </trkpt>
      <trkpt lat="48.99106" lon="1.12625">
        <ele>129.5</ele>
        <time>2014-07-14T16:56:46Z</time>
      </trkpt>
      <trkpt lat="48.99107" lon="1.12618">
        <ele>129.5</ele>
        <time>2014-07-14T16:56:48Z</time>
      </trkpt>
      <trkpt lat="48.99105" lon="1.1261">
        <ele>129.5</ele>
        <time>2014-07-14T16:56:51Z</time>
      </trkpt>
      <trkpt lat="48.99103" lon="1.12602">
        <ele>130.5</ele>
        <time>2014-07-14T16:56:54Z</time>
      </trkpt>
      <trkpt lat="48.99103" lon="1.12594">
        <ele>130.5</ele>
        <time>2014-07-14T16:56:57Z</time>
      </trkpt>
      <trkpt lat="48.99104" lon="1.12587">
        <ele>131.5</ele>
        <time>2014-07-14T16:57:01Z</time>
      </trkpt>
      <trkpt lat="48.99103" lon="1.12578">
        <ele>130.5</ele>
        <time>2014-07-14T16:57:05Z</time>
      </trkpt>
      <trkpt lat="48.99101" lon="1.1257">
        <ele>130.5</ele>
        <time>2014-07-14T16:57:09Z</time>
      </trkpt>
      <trkpt lat="48.99099" lon="1.12564">
        <ele>130.5</ele>
        <time>2014-07-14T16:57:12Z</time>
      </trkpt>
      <trkpt lat="48.99095" lon="1.1256">
        <ele>130.5</ele>
        <time>2014-07-14T16:57:16Z</time>
      </trkpt>
      <trkpt lat="48.99092" lon="1.12555">
        <ele>130.5</ele>
        <time>2014-07-14T16:57:19Z</time>
      </trkpt>
      <trkpt lat="48.9909" lon="1.12547">
        <ele>129.5</ele>
        <time>2014-07-14T16:57:21Z</time>
      </trkpt>
      <trkpt lat="48.99088" lon="1.1254">
        <ele>129.5</ele>
        <time>2014-07-14T16:57:23Z</time>
      </trkpt>
      <trkpt lat="48.99084" lon="1.12532">
        <ele>128.5</ele>
        <time>2014-07-14T16:57:25Z</time>
      </trkpt>
      <trkpt lat="48.9908" lon="1.12521">
        <ele>128.5</ele>
        <time>2014-07-14T16:57:27Z</time>
      </trkpt>
      <trkpt lat="48.99077" lon="1.12512">
        <ele>128.5</ele>
        <time>2014-07-14T16:57:29Z</time>
      </trkpt>
      <trkpt lat="48.99073" lon="1.12502">
        <ele>128.5</ele>
        <time>2014-07-14T16:57:31Z</time>
      </trkpt>
      <trkpt lat="48.9907" lon="1.12492">
        <ele>127.5</ele>
        <time>2014-07-14T16:57:33Z</time>
      </trkpt>
      <trkpt lat="48.99067" lon="1.12475">
        <ele>128.5</ele>
        <time>2014-07-14T16:57:36Z</time>
      </trkpt>
      <trkpt lat="48.99066" lon="1.12466">
        <ele>128.5</ele>
        <time>2014-07-14T16:57:38Z</time>
      </trkpt>
      <trkpt lat="48.99064" lon="1.1246">
        <ele>128.5</ele>
        <time>2014-07-14T16:57:40Z</time>
      </trkpt>
      <trkpt lat="48.99061" lon="1.12454">
        <ele>129.5</ele>
        <time>2014-07-14T16:57:43Z</time>
      </trkpt>
      <trkpt lat="48.9906" lon="1.12443">
        <ele>128.5</ele>
        <time>2014-07-14T16:57:46Z</time>
      </trkpt>
      <trkpt lat="48.99058" lon="1.12434">
        <ele>129.5</ele>
        <time>2014-07-14T16:57:48Z</time>
      </trkpt>
      <trkpt lat="48.99056" lon="1.12425">
        <ele>129.5</ele>
        <time>2014-07-14T16:57:50Z</time>
      </trkpt>
      <trkpt lat="48.99053" lon="1.12416">
        <ele>129.5</ele>
        <time>2014-07-14T16:57:52Z</time>
      </trkpt>
      <trkpt lat="48.99051" lon="1.12408">
        <ele>128.5</ele>
        <time>2014-07-14T16:57:54Z</time>
      </trkpt>
      <trkpt lat="48.99051" lon="1.124">
        <ele>129.5</ele>
        <time>2014-07-14T16:57:58Z</time>
      </trkpt>
      <trkpt lat="48.9905" lon="1.12392">
        <ele>129.5</ele>
        <time>2014-07-14T16:58:03Z</time>
      </trkpt>
      <trkpt lat="48.99049" lon="1.12384">
        <ele>129.5</ele>
        <time>2014-07-14T16:58:07Z</time>
      </trkpt>
      <trkpt lat="48.99048" lon="1.12375">
        <ele>129.5</ele>
        <time>2014-07-14T16:58:11Z</time>
      </trkpt>
      <trkpt lat="48.99047" lon="1.12367">
        <ele>130.5</ele>
        <time>2014-07-14T16:58:15Z</time>
      </trkpt>
      <trkpt lat="48.99045" lon="1.12361">
        <ele>128.5</ele>
        <time>2014-07-14T16:58:18Z</time>
      </trkpt>
      <trkpt lat="48.99042" lon="1.12352">
        <ele>129.5</ele>
        <time>2014-07-14T16:58:21Z</time>
      </trkpt>
      <trkpt lat="48.99041" lon="1.12345">
        <ele>128.5</ele>
        <time>2014-07-14T16:58:23Z</time>
      </trkpt>
      <trkpt lat="48.99039" lon="1.12338">
        <ele>129.5</ele>
        <time>2014-07-14T16:58:25Z</time>
      </trkpt>
      <trkpt lat="48.99038" lon="1.1233">
        <ele>130.5</ele>
        <time>2014-07-14T16:58:27Z</time>
      </trkpt>
      <trkpt lat="48.99037" lon="1.12321">
        <ele>130.5</ele>
        <time>2014-07-14T16:58:29Z</time>
      </trkpt>
      <trkpt lat="48.99036" lon="1.12313">
        <ele>130.5</ele>
        <time>2014-07-14T16:58:31Z</time>
      </trkpt>
      <trkpt lat="48.99033" lon="1.12307">
        <ele>131.5</ele>
        <time>2014-07-14T16:58:33Z</time>
      </trkpt>
      <trkpt lat="48.99031" lon="1.12299">
        <ele>130.5</ele>
        <time>2014-07-14T16:58:36Z</time>
      </trkpt>
      <trkpt lat="48.99031" lon="1.12292">
        <ele>130.5</ele>
        <time>2014-07-14T16:58:44Z</time>
      </trkpt>
      <trkpt lat="48.9903" lon="1.12285">
        <ele>130.5</ele>
        <time>2014-07-14T16:58:59Z</time>
      </trkpt>
      <trkpt lat="48.99032" lon="1.12278">
        <ele>130.5</ele>
        <time>2014-07-14T16:59:07Z</time>
      </trkpt>
      <trkpt lat="48.99037" lon="1.12271">
        <ele>130.5</ele>
        <time>2014-07-14T16:59:10Z</time>
      </trkpt>
      <trkpt lat="48.99043" lon="1.12264">
        <ele>130.5</ele>
        <time>2014-07-14T16:59:12Z</time>
      </trkpt>
      <trkpt lat="48.99047" lon="1.12258">
        <ele>130.5</ele>
        <time>2014-07-14T16:59:13Z</time>
      </trkpt>
      <trkpt lat="48.9905" lon="1.12253">
        <ele>130.5</ele>
        <time>2014-07-14T16:59:14Z</time>
      </trkpt>
      <trkpt lat="48.99054" lon="1.12248">
        <ele>129.5</ele>
        <time>2014-07-14T16:59:15Z</time>
      </trkpt>
      <trkpt lat="48.99057" lon="1.12244">
        <ele>129.5</ele>
        <time>2014-07-14T16:59:16Z</time>
      </trkpt>
      <trkpt lat="48.9906" lon="1.12239">
        <ele>129.5</ele>
        <time>2014-07-14T16:59:17Z</time>
      </trkpt>
      <trkpt lat="48.99066" lon="1.12229">
        <ele>129.5</ele>
        <time>2014-07-14T16:59:19Z</time>
      </trkpt>
      <trkpt lat="48.99069" lon="1.12224">
        <ele>129.5</ele>
        <time>2014-07-14T16:59:20Z</time>
      </trkpt>
      <trkpt lat="48.99076" lon="1.12216">
        <ele>130.5</ele>
        <time>2014-07-14T16:59:22Z</time>
      </trkpt>
      <trkpt lat="48.9908" lon="1.12212">
        <ele>130.5</ele>
        <time>2014-07-14T16:59:23Z</time>
      </trkpt>
      <trkpt lat="48.99086" lon="1.12204">
        <ele>129.5</ele>
        <time>2014-07-14T16:59:25Z</time>
      </trkpt>
      <trkpt lat="48.99092" lon="1.12197">
        <ele>129.5</ele>
        <time>2014-07-14T16:59:27Z</time>
      </trkpt>
      <trkpt lat="48.99095" lon="1.12194">
        <ele>129.5</ele>
        <time>2014-07-14T16:59:28Z</time>
      </trkpt>
      <trkpt lat="48.99101" lon="1.12188">
        <ele>129.5</ele>
        <time>2014-07-14T16:59:30Z</time>
      </trkpt>
      <trkpt lat="48.99108" lon="1.1218">
        <ele>129.5</ele>
        <time>2014-07-14T16:59:32Z</time>
      </trkpt>
      <trkpt lat="48.99115" lon="1.12173">
        <ele>130.5</ele>
        <time>2014-07-14T16:59:34Z</time>
      </trkpt>
      <trkpt lat="48.99119" lon="1.12167">
        <ele>129.5</ele>
        <time>2014-07-14T16:59:36Z</time>
      </trkpt>
      <trkpt lat="48.99123" lon="1.12163">
        <ele>129.5</ele>
        <time>2014-07-14T16:59:38Z</time>
      </trkpt>
      <trkpt lat="48.99127" lon="1.12157">
        <ele>130.5</ele>
        <time>2014-07-14T16:59:41Z</time>
      </trkpt>
      <trkpt lat="48.99131" lon="1.12151">
        <ele>130.5</ele>
        <time>2014-07-14T16:59:44Z</time>
      </trkpt>
      <trkpt lat="48.99135" lon="1.12148">
        <ele>130.5</ele>
        <time>2014-07-14T16:59:51Z</time>
      </trkpt>
      <trkpt lat="48.99139" lon="1.12145">
        <ele>129.5</ele>
        <time>2014-07-14T16:59:55Z</time>
      </trkpt>
      <trkpt lat="48.99143" lon="1.12139">
        <ele>129.5</ele>
        <time>2014-07-14T16:59:59Z</time>
      </trkpt>
      <trkpt lat="48.99149" lon="1.12134">
        <ele>130.5</ele>
        <time>2014-07-14T17:00:01Z</time>
      </trkpt>
      <trkpt lat="48.99155" lon="1.12128">
        <ele>130.5</ele>
        <time>2014-07-14T17:00:03Z</time>
      </trkpt>
      <trkpt lat="48.9916" lon="1.12121">
        <ele>131.5</ele>
        <time>2014-07-14T17:00:05Z</time>
      </trkpt>
      <trkpt lat="48.99167" lon="1.12117">
        <ele>130.5</ele>
        <time>2014-07-14T17:00:07Z</time>
      </trkpt>
      <trkpt lat="48.99173" lon="1.12111">
        <ele>130.5</ele>
        <time>2014-07-14T17:00:09Z</time>
      </trkpt>
      <trkpt lat="48.99177" lon="1.12107">
        <ele>130.5</ele>
        <time>2014-07-14T17:00:10Z</time>
      </trkpt>
      <trkpt lat="48.99181" lon="1.12103">
        <ele>131.5</ele>
        <time>2014-07-14T17:00:11Z</time>
      </trkpt>
      <trkpt lat="48.99185" lon="1.12099">
        <ele>131.5</ele>
        <time>2014-07-14T17:00:12Z</time>
      </trkpt>
      <trkpt lat="48.99188" lon="1.12095">
        <ele>131.5</ele>
        <time>2014-07-14T17:00:13Z</time>
      </trkpt>
      <trkpt lat="48.99192" lon="1.1209">
        <ele>131.5</ele>
        <time>2014-07-14T17:00:14Z</time>
      </trkpt>
      <trkpt lat="48.99196" lon="1.12085">
        <ele>130.5</ele>
        <time>2014-07-14T17:00:15Z</time>
      </trkpt>
      <trkpt lat="48.992" lon="1.1208">
        <ele>130.5</ele>
        <time>2014-07-14T17:00:16Z</time>
      </trkpt>
      <trkpt lat="48.99208" lon="1.1207">
        <ele>130.5</ele>
        <time>2014-07-14T17:00:17Z</time>
      </trkpt>
      <trkpt lat="48.99213" lon="1.12064">
        <ele>130.5</ele>
        <time>2014-07-14T17:00:18Z</time>
      </trkpt>
      <trkpt lat="48.99218" lon="1.1206">
        <ele>130.5</ele>
        <time>2014-07-14T17:00:19Z</time>
      </trkpt>
      <trkpt lat="48.99222" lon="1.12056">
        <ele>129.5</ele>
        <time>2014-07-14T17:00:20Z</time>
      </trkpt>
      <trkpt lat="48.99227" lon="1.12049">
        <ele>130.5</ele>
        <time>2014-07-14T17:00:21Z</time>
      </trkpt>
      <trkpt lat="48.9923" lon="1.12044">
        <ele>129.5</ele>
        <time>2014-07-14T17:00:23Z</time>
      </trkpt>
      <trkpt lat="48.99236" lon="1.12038">
        <ele>128.5</ele>
        <time>2014-07-14T17:00:25Z</time>
      </trkpt>
      <trkpt lat="48.9924" lon="1.12032">
        <ele>128.5</ele>
        <time>2014-07-14T17:00:27Z</time>
      </trkpt>
      <trkpt lat="48.99248" lon="1.12032">
        <ele>128.5</ele>
        <time>2014-07-14T17:00:29Z</time>
      </trkpt>
      <trkpt lat="48.99252" lon="1.12024">
        <ele>128.5</ele>
        <time>2014-07-14T17:00:31Z</time>
      </trkpt>
      <trkpt lat="48.99258" lon="1.12018">
        <ele>128.5</ele>
        <time>2014-07-14T17:00:33Z</time>
      </trkpt>
      <trkpt lat="48.99263" lon="1.12012">
        <ele>128.5</ele>
        <time>2014-07-14T17:00:35Z</time>
      </trkpt>
      <trkpt lat="48.99268" lon="1.12004">
        <ele>128.5</ele>
        <time>2014-07-14T17:00:37Z</time>
      </trkpt>
      <trkpt lat="48.99275" lon="1.11994">
        <ele>128.5</ele>
        <time>2014-07-14T17:00:39Z</time>
      </trkpt>
      <trkpt lat="48.99279" lon="1.11989">
        <ele>129.5</ele>
        <time>2014-07-14T17:00:40Z</time>
      </trkpt>
      <trkpt lat="48.99285" lon="1.1198">
        <ele>128.5</ele>
        <time>2014-07-14T17:00:41Z</time>
      </trkpt>
      <trkpt lat="48.99288" lon="1.11975">
        <ele>128.5</ele>
        <time>2014-07-14T17:00:42Z</time>
      </trkpt>
      <trkpt lat="48.99292" lon="1.11969">
        <ele>128.5</ele>
        <time>2014-07-14T17:00:43Z</time>
      </trkpt>
      <trkpt lat="48.99296" lon="1.11965">
        <ele>128.5</ele>
        <time>2014-07-14T17:00:44Z</time>
      </trkpt>
      <trkpt lat="48.99299" lon="1.11959">
        <ele>128.5</ele>
        <time>2014-07-14T17:00:45Z</time>
      </trkpt>
      <trkpt lat="48.99304" lon="1.11955">
        <ele>128.5</ele>
        <time>2014-07-14T17:00:46Z</time>
      </trkpt>
      <trkpt lat="48.99308" lon="1.11952">
        <ele>128.5</ele>
        <time>2014-07-14T17:00:47Z</time>
      </trkpt>
      <trkpt lat="48.99312" lon="1.11948">
        <ele>128.5</ele>
        <time>2014-07-14T17:00:48Z</time>
      </trkpt>
      <trkpt lat="48.99317" lon="1.11936">
        <ele>128.5</ele>
        <time>2014-07-14T17:00:50Z</time>
      </trkpt>
      <trkpt lat="48.99319" lon="1.1193">
        <ele>128.5</ele>
        <time>2014-07-14T17:00:51Z</time>
      </trkpt>
      <trkpt lat="48.99328" lon="1.11923">
        <ele>126.5</ele>
        <time>2014-07-14T17:00:53Z</time>
      </trkpt>
      <trkpt lat="48.99333" lon="1.11919">
        <ele>127.5</ele>
        <time>2014-07-14T17:00:54Z</time>
      </trkpt>
      <trkpt lat="48.99335" lon="1.11914">
        <ele>126.5</ele>
        <time>2014-07-14T17:00:55Z</time>
      </trkpt>
      <trkpt lat="48.99341" lon="1.11902">
        <ele>127.5</ele>
        <time>2014-07-14T17:00:57Z</time>
      </trkpt>
      <trkpt lat="48.99345" lon="1.11895">
        <ele>127.5</ele>
        <time>2014-07-14T17:00:58Z</time>
      </trkpt>
      <trkpt lat="48.99351" lon="1.11888">
        <ele>128.5</ele>
        <time>2014-07-14T17:01:00Z</time>
      </trkpt>
      <trkpt lat="48.99353" lon="1.1188">
        <ele>129.5</ele>
        <time>2014-07-14T17:01:02Z</time>
      </trkpt>
      <trkpt lat="48.99358" lon="1.11871">
        <ele>129.5</ele>
        <time>2014-07-14T17:01:04Z</time>
      </trkpt>
      <trkpt lat="48.99362" lon="1.11863">
        <ele>126.5</ele>
        <time>2014-07-14T17:01:06Z</time>
      </trkpt>
      <trkpt lat="48.99366" lon="1.11855">
        <ele>125.5</ele>
        <time>2014-07-14T17:01:08Z</time>
      </trkpt>
      <trkpt lat="48.9937" lon="1.11849">
        <ele>126.5</ele>
        <time>2014-07-14T17:01:10Z</time>
      </trkpt>
      <trkpt lat="48.99376" lon="1.11843">
        <ele>126.5</ele>
        <time>2014-07-14T17:01:12Z</time>
      </trkpt>
      <trkpt lat="48.99382" lon="1.11836">
        <ele>126.5</ele>
        <time>2014-07-14T17:01:14Z</time>
      </trkpt>
      <trkpt lat="48.99386" lon="1.11832">
        <ele>125.5</ele>
        <time>2014-07-14T17:01:15Z</time>
      </trkpt>
      <trkpt lat="48.99389" lon="1.11827">
        <ele>126.5</ele>
        <time>2014-07-14T17:01:16Z</time>
      </trkpt>
      <trkpt lat="48.99396" lon="1.11817">
        <ele>126.5</ele>
        <time>2014-07-14T17:01:18Z</time>
      </trkpt>
      <trkpt lat="48.994" lon="1.11813">
        <ele>125.5</ele>
        <time>2014-07-14T17:01:19Z</time>
      </trkpt>
      <trkpt lat="48.99404" lon="1.11809">
        <ele>125.5</ele>
        <time>2014-07-14T17:01:20Z</time>
      </trkpt>
      <trkpt lat="48.9941" lon="1.11799">
        <ele>124.5</ele>
        <time>2014-07-14T17:01:22Z</time>
      </trkpt>
      <trkpt lat="48.99414" lon="1.11788">
        <ele>126.5</ele>
        <time>2014-07-14T17:01:24Z</time>
      </trkpt>
      <trkpt lat="48.99417" lon="1.11776">
        <ele>125.5</ele>
        <time>2014-07-14T17:01:26Z</time>
      </trkpt>
      <trkpt lat="48.99421" lon="1.11765">
        <ele>125.5</ele>
        <time>2014-07-14T17:01:28Z</time>
      </trkpt>
      <trkpt lat="48.99423" lon="1.11756">
        <ele>125.5</ele>
        <time>2014-07-14T17:01:30Z</time>
      </trkpt>
      <trkpt lat="48.99426" lon="1.11748">
        <ele>125.5</ele>
        <time>2014-07-14T17:01:32Z</time>
      </trkpt>
      <trkpt lat="48.9943" lon="1.11741">
        <ele>126.5</ele>
        <time>2014-07-14T17:01:34Z</time>
      </trkpt>
      <trkpt lat="48.99434" lon="1.11733">
        <ele>127.5</ele>
        <time>2014-07-14T17:01:36Z</time>
      </trkpt>
      <trkpt lat="48.99438" lon="1.11726">
        <ele>127.5</ele>
        <time>2014-07-14T17:01:38Z</time>
      </trkpt>
      <trkpt lat="48.99442" lon="1.11719">
        <ele>128.5</ele>
        <time>2014-07-14T17:01:40Z</time>
      </trkpt>
      <trkpt lat="48.99447" lon="1.11711">
        <ele>128.5</ele>
        <time>2014-07-14T17:01:42Z</time>
      </trkpt>
      <trkpt lat="48.99451" lon="1.11703">
        <ele>128.5</ele>
        <time>2014-07-14T17:01:44Z</time>
      </trkpt>
      <trkpt lat="48.99454" lon="1.11697">
        <ele>128.5</ele>
        <time>2014-07-14T17:01:46Z</time>
      </trkpt>
      <trkpt lat="48.99457" lon="1.11691">
        <ele>128.5</ele>
        <time>2014-07-14T17:01:48Z</time>
      </trkpt>
      <trkpt lat="48.99461" lon="1.11683">
        <ele>128.5</ele>
        <time>2014-07-14T17:01:50Z</time>
      </trkpt>
      <trkpt lat="48.99465" lon="1.11674">
        <ele>127.5</ele>
        <time>2014-07-14T17:01:52Z</time>
      </trkpt>
      <trkpt lat="48.99468" lon="1.11661">
        <ele>127.5</ele>
        <time>2014-07-14T17:01:55Z</time>
      </trkpt>
      <trkpt lat="48.99471" lon="1.11651">
        <ele>128.5</ele>
        <time>2014-07-14T17:01:57Z</time>
      </trkpt>
      <trkpt lat="48.99473" lon="1.11642">
        <ele>130.5</ele>
        <time>2014-07-14T17:01:59Z</time>
      </trkpt>
      <trkpt lat="48.99475" lon="1.11632">
        <ele>130.5</ele>
        <time>2014-07-14T17:02:01Z</time>
      </trkpt>
      <trkpt lat="48.99478" lon="1.11623">
        <ele>130.5</ele>
        <time>2014-07-14T17:02:03Z</time>
      </trkpt>
      <trkpt lat="48.99482" lon="1.11615">
        <ele>129.5</ele>
        <time>2014-07-14T17:02:05Z</time>
      </trkpt>
      <trkpt lat="48.99488" lon="1.11609">
        <ele>130.5</ele>
        <time>2014-07-14T17:02:07Z</time>
      </trkpt>
      <trkpt lat="48.99493" lon="1.11602">
        <ele>131.5</ele>
        <time>2014-07-14T17:02:09Z</time>
      </trkpt>
      <trkpt lat="48.995" lon="1.11593">
        <ele>130.5</ele>
        <time>2014-07-14T17:02:11Z</time>
      </trkpt>
      <trkpt lat="48.99503" lon="1.11589">
        <ele>130.5</ele>
        <time>2014-07-14T17:02:12Z</time>
      </trkpt>
      <trkpt lat="48.99507" lon="1.11584">
        <ele>131.5</ele>
        <time>2014-07-14T17:02:12Z</time>
      </trkpt>
      <trkpt lat="48.99511" lon="1.1158">
        <ele>132.5</ele>
        <time>2014-07-14T17:02:14Z</time>
      </trkpt>
      <trkpt lat="48.99515" lon="1.11576">
        <ele>132.5</ele>
        <time>2014-07-14T17:02:15Z</time>
      </trkpt>
      <trkpt lat="48.99522" lon="1.11567">
        <ele>131.5</ele>
        <time>2014-07-14T17:02:17Z</time>
      </trkpt>
      <trkpt lat="48.99529" lon="1.11558">
        <ele>131.5</ele>
        <time>2014-07-14T17:02:18Z</time>
      </trkpt>
      <trkpt lat="48.99533" lon="1.11551">
        <ele>132.5</ele>
        <time>2014-07-14T17:02:19Z</time>
      </trkpt>
      <trkpt lat="48.99539" lon="1.11542">
        <ele>132.5</ele>
        <time>2014-07-14T17:02:22Z</time>
      </trkpt>
      <trkpt lat="48.99544" lon="1.11534">
        <ele>132.5</ele>
        <time>2014-07-14T17:02:24Z</time>
      </trkpt>
      <trkpt lat="48.99549" lon="1.11525">
        <ele>132.5</ele>
        <time>2014-07-14T17:02:26Z</time>
      </trkpt>
      <trkpt lat="48.99553" lon="1.11521">
        <ele>131.5</ele>
        <time>2014-07-14T17:02:27Z</time>
      </trkpt>
      <trkpt lat="48.99558" lon="1.11514">
        <ele>131.5</ele>
        <time>2014-07-14T17:02:29Z</time>
      </trkpt>
      <trkpt lat="48.99562" lon="1.11507">
        <ele>132.5</ele>
        <time>2014-07-14T17:02:31Z</time>
      </trkpt>
      <trkpt lat="48.99569" lon="1.11499">
        <ele>131.5</ele>
        <time>2014-07-14T17:02:33Z</time>
      </trkpt>
      <trkpt lat="48.9958" lon="1.11488">
        <ele>131.5</ele>
        <time>2014-07-14T17:02:34Z</time>
      </trkpt>
      <trkpt lat="48.99585" lon="1.11482">
        <ele>131.5</ele>
        <time>2014-07-14T17:02:35Z</time>
      </trkpt>
      <trkpt lat="48.99591" lon="1.11471">
        <ele>130.5</ele>
        <time>2014-07-14T17:02:37Z</time>
      </trkpt>
      <trkpt lat="48.99596" lon="1.11463">
        <ele>130.5</ele>
        <time>2014-07-14T17:02:39Z</time>
      </trkpt>
      <trkpt lat="48.99601" lon="1.1145">
        <ele>130.5</ele>
        <time>2014-07-14T17:02:41Z</time>
      </trkpt>
      <trkpt lat="48.99609" lon="1.11444">
        <ele>131.5</ele>
        <time>2014-07-14T17:02:43Z</time>
      </trkpt>
      <trkpt lat="48.99614" lon="1.11435">
        <ele>129.5</ele>
        <time>2014-07-14T17:02:45Z</time>
      </trkpt>
      <trkpt lat="48.99617" lon="1.11429">
        <ele>129.5</ele>
        <time>2014-07-14T17:02:46Z</time>
      </trkpt>
      <trkpt lat="48.99623" lon="1.1142">
        <ele>130.5</ele>
        <time>2014-07-14T17:02:48Z</time>
      </trkpt>
      <trkpt lat="48.99627" lon="1.11415">
        <ele>130.5</ele>
        <time>2014-07-14T17:02:49Z</time>
      </trkpt>
      <trkpt lat="48.9963" lon="1.11411">
        <ele>130.5</ele>
        <time>2014-07-14T17:02:50Z</time>
      </trkpt>
      <trkpt lat="48.99635" lon="1.11399">
        <ele>130.5</ele>
        <time>2014-07-14T17:02:52Z</time>
      </trkpt>
      <trkpt lat="48.99642" lon="1.11389">
        <ele>130.5</ele>
        <time>2014-07-14T17:02:54Z</time>
      </trkpt>
      <trkpt lat="48.99648" lon="1.11382">
        <ele>131.5</ele>
        <time>2014-07-14T17:02:56Z</time>
      </trkpt>
      <trkpt lat="48.99654" lon="1.11377">
        <ele>131.5</ele>
        <time>2014-07-14T17:02:58Z</time>
      </trkpt>
      <trkpt lat="48.99657" lon="1.1137">
        <ele>131.5</ele>
        <time>2014-07-14T17:03:00Z</time>
      </trkpt>
      <trkpt lat="48.99661" lon="1.11363">
        <ele>131.5</ele>
        <time>2014-07-14T17:03:02Z</time>
      </trkpt>
      <trkpt lat="48.99667" lon="1.11356">
        <ele>132.5</ele>
        <time>2014-07-14T17:03:04Z</time>
      </trkpt>
      <trkpt lat="48.99674" lon="1.11349">
        <ele>131.5</ele>
        <time>2014-07-14T17:03:06Z</time>
      </trkpt>
      <trkpt lat="48.9968" lon="1.11342">
        <ele>131.5</ele>
        <time>2014-07-14T17:03:08Z</time>
      </trkpt>
      <trkpt lat="48.99676" lon="1.11334">
        <ele>130.5</ele>
        <time>2014-07-14T17:03:17Z</time>
      </trkpt>
      <trkpt lat="48.99676" lon="1.11327">
        <ele>128.5</ele>
        <time>2014-07-14T17:03:23Z</time>
      </trkpt>
      <trkpt lat="48.99678" lon="1.11334">
        <ele>129.5</ele>
        <time>2014-07-14T17:03:28Z</time>
      </trkpt>
      <trkpt lat="48.99682" lon="1.11338">
        <ele>129.5</ele>
        <time>2014-07-14T17:03:32Z</time>
      </trkpt>
      <trkpt lat="48.99686" lon="1.11342">
        <ele>131.5</ele>
        <time>2014-07-14T17:03:38Z</time>
      </trkpt>
      <trkpt lat="48.99691" lon="1.11339">
        <ele>132.5</ele>
        <time>2014-07-14T17:03:41Z</time>
      </trkpt>
      <trkpt lat="48.99695" lon="1.11335">
        <ele>131.5</ele>
        <time>2014-07-14T17:03:43Z</time>
      </trkpt>
      <trkpt lat="48.99701" lon="1.11325">
        <ele>130.5</ele>
        <time>2014-07-14T17:03:45Z</time>
      </trkpt>
      <trkpt lat="48.99704" lon="1.1132">
        <ele>129.5</ele>
        <time>2014-07-14T17:03:45Z</time>
      </trkpt>
      <trkpt lat="48.99707" lon="1.11314">
        <ele>129.5</ele>
        <time>2014-07-14T17:03:46Z</time>
      </trkpt>
      <trkpt lat="48.99713" lon="1.11302">
        <ele>128.5</ele>
        <time>2014-07-14T17:03:48Z</time>
      </trkpt>
      <trkpt lat="48.99718" lon="1.11293">
        <ele>128.5</ele>
        <time>2014-07-14T17:03:49Z</time>
      </trkpt>
      <trkpt lat="48.99721" lon="1.11285">
        <ele>128.5</ele>
        <time>2014-07-14T17:03:50Z</time>
      </trkpt>
      <trkpt lat="48.99727" lon="1.11276">
        <ele>128.5</ele>
        <time>2014-07-14T17:03:51Z</time>
      </trkpt>
      <trkpt lat="48.99733" lon="1.11268">
        <ele>127.5</ele>
        <time>2014-07-14T17:03:52Z</time>
      </trkpt>
      <trkpt lat="48.99737" lon="1.1126">
        <ele>127.5</ele>
        <time>2014-07-14T17:03:53Z</time>
      </trkpt>
      <trkpt lat="48.99742" lon="1.11252">
        <ele>127.5</ele>
        <time>2014-07-14T17:03:54Z</time>
      </trkpt>
      <trkpt lat="48.99745" lon="1.11242">
        <ele>127.5</ele>
        <time>2014-07-14T17:03:55Z</time>
      </trkpt>
      <trkpt lat="48.9975" lon="1.11233">
        <ele>127.5</ele>
        <time>2014-07-14T17:03:56Z</time>
      </trkpt>
      <trkpt lat="48.99756" lon="1.11227">
        <ele>126.5</ele>
        <time>2014-07-14T17:03:57Z</time>
      </trkpt>
      <trkpt lat="48.9976" lon="1.1122">
        <ele>127.5</ele>
        <time>2014-07-14T17:03:58Z</time>
      </trkpt>
      <trkpt lat="48.99766" lon="1.11214">
        <ele>126.5</ele>
        <time>2014-07-14T17:03:59Z</time>
      </trkpt>
      <trkpt lat="48.9977" lon="1.11205">
        <ele>125.5</ele>
        <time>2014-07-14T17:04:00Z</time>
      </trkpt>
      <trkpt lat="48.99775" lon="1.11197">
        <ele>126.5</ele>
        <time>2014-07-14T17:04:01Z</time>
      </trkpt>
      <trkpt lat="48.99778" lon="1.11189">
        <ele>126.5</ele>
        <time>2014-07-14T17:04:02Z</time>
      </trkpt>
      <trkpt lat="48.99782" lon="1.11192">
        <ele>125.5</ele>
        <time>2014-07-14T17:04:03Z</time>
      </trkpt>
      <trkpt lat="48.99791" lon="1.11186">
        <ele>124.5</ele>
        <time>2014-07-14T17:04:04Z</time>
      </trkpt>
      <trkpt lat="48.99795" lon="1.11181">
        <ele>124.5</ele>
        <time>2014-07-14T17:04:05Z</time>
      </trkpt>
      <trkpt lat="48.99802" lon="1.11173">
        <ele>124.5</ele>
        <time>2014-07-14T17:04:06Z</time>
      </trkpt>
      <trkpt lat="48.99807" lon="1.11166">
        <ele>123.5</ele>
        <time>2014-07-14T17:04:07Z</time>
      </trkpt>
      <trkpt lat="48.99811" lon="1.11159">
        <ele>122.5</ele>
        <time>2014-07-14T17:04:08Z</time>
      </trkpt>
      <trkpt lat="48.99816" lon="1.11152">
        <ele>122.5</ele>
        <time>2014-07-14T17:04:09Z</time>
      </trkpt>
      <trkpt lat="48.99822" lon="1.11147">
        <ele>123.5</ele>
        <time>2014-07-14T17:04:10Z</time>
      </trkpt>
      <trkpt lat="48.99828" lon="1.11142">
        <ele>122.5</ele>
        <time>2014-07-14T17:04:11Z</time>
      </trkpt>
      <trkpt lat="48.99832" lon="1.11134">
        <ele>121.5</ele>
        <time>2014-07-14T17:04:12Z</time>
      </trkpt>
      <trkpt lat="48.99836" lon="1.11128">
        <ele>120.5</ele>
        <time>2014-07-14T17:04:13Z</time>
      </trkpt>
      <trkpt lat="48.99841" lon="1.1112">
        <ele>120.5</ele>
        <time>2014-07-14T17:04:14Z</time>
      </trkpt>
      <trkpt lat="48.99845" lon="1.1111">
        <ele>119.5</ele>
        <time>2014-07-14T17:04:15Z</time>
      </trkpt>
      <trkpt lat="48.99849" lon="1.11104">
        <ele>119.5</ele>
        <time>2014-07-14T17:04:16Z</time>
      </trkpt>
      <trkpt lat="48.99854" lon="1.11096">
        <ele>118.5</ele>
        <time>2014-07-14T17:04:17Z</time>
      </trkpt>
      <trkpt lat="48.99859" lon="1.1109">
        <ele>117.5</ele>
        <time>2014-07-14T17:04:18Z</time>
      </trkpt>
      <trkpt lat="48.99863" lon="1.11083">
        <ele>117.5</ele>
        <time>2014-07-14T17:04:19Z</time>
      </trkpt>
      <trkpt lat="48.99868" lon="1.11076">
        <ele>116.5</ele>
        <time>2014-07-14T17:04:20Z</time>
      </trkpt>
      <trkpt lat="48.99872" lon="1.11071">
        <ele>116.5</ele>
        <time>2014-07-14T17:04:21Z</time>
      </trkpt>
      <trkpt lat="48.99876" lon="1.11069">
        <ele>115.5</ele>
        <time>2014-07-14T17:04:22Z</time>
      </trkpt>
      <trkpt lat="48.99886" lon="1.11062">
        <ele>114.5</ele>
        <time>2014-07-14T17:04:24Z</time>
      </trkpt>
      <trkpt lat="48.99891" lon="1.11063">
        <ele>114.5</ele>
        <time>2014-07-14T17:04:25Z</time>
      </trkpt>
      <trkpt lat="48.99905" lon="1.11068">
        <ele>113.5</ele>
        <time>2014-07-14T17:04:27Z</time>
      </trkpt>
      <trkpt lat="48.99912" lon="1.11069">
        <ele>113.5</ele>
        <time>2014-07-14T17:04:28Z</time>
      </trkpt>
      <trkpt lat="48.99918" lon="1.11071">
        <ele>111.5</ele>
        <time>2014-07-14T17:04:29Z</time>
      </trkpt>
      <trkpt lat="48.99925" lon="1.11076">
        <ele>111.5</ele>
        <time>2014-07-14T17:04:30Z</time>
      </trkpt>
      <trkpt lat="48.9993" lon="1.11079">
        <ele>111.5</ele>
        <time>2014-07-14T17:04:31Z</time>
      </trkpt>
      <trkpt lat="48.99935" lon="1.11082">
        <ele>111.5</ele>
        <time>2014-07-14T17:04:32Z</time>
      </trkpt>
      <trkpt lat="48.99941" lon="1.11088">
        <ele>111.5</ele>
        <time>2014-07-14T17:04:33Z</time>
      </trkpt>
      <trkpt lat="48.99946" lon="1.11101">
        <ele>110.5</ele>
        <time>2014-07-14T17:04:34Z</time>
      </trkpt>
      <trkpt lat="48.99951" lon="1.11106">
        <ele>110.5</ele>
        <time>2014-07-14T17:04:35Z</time>
      </trkpt>
      <trkpt lat="48.99956" lon="1.11111">
        <ele>110.5</ele>
        <time>2014-07-14T17:04:36Z</time>
      </trkpt>
      <trkpt lat="48.99961" lon="1.11117">
        <ele>110.5</ele>
        <time>2014-07-14T17:04:37Z</time>
      </trkpt>
      <trkpt lat="48.99971" lon="1.1112">
        <ele>110.5</ele>
        <time>2014-07-14T17:04:39Z</time>
      </trkpt>
      <trkpt lat="48.99977" lon="1.11122">
        <ele>110.5</ele>
        <time>2014-07-14T17:04:40Z</time>
      </trkpt>
      <trkpt lat="48.99981" lon="1.11128">
        <ele>110.5</ele>
        <time>2014-07-14T17:04:41Z</time>
      </trkpt>
      <trkpt lat="48.99985" lon="1.11132">
        <ele>110.5</ele>
        <time>2014-07-14T17:04:42Z</time>
      </trkpt>
      <trkpt lat="48.99992" lon="1.11133">
        <ele>110.5</ele>
        <time>2014-07-14T17:04:44Z</time>
      </trkpt>
      <trkpt lat="48.99999" lon="1.11141">
        <ele>109.5</ele>
        <time>2014-07-14T17:04:46Z</time>
      </trkpt>
      <trkpt lat="49.00002" lon="1.11147">
        <ele>109.5</ele>
        <time>2014-07-14T17:04:47Z</time>
      </trkpt>
      <trkpt lat="49.00005" lon="1.11151">
        <ele>109.5</ele>
        <time>2014-07-14T17:04:49Z</time>
      </trkpt>
      <trkpt lat="49.0001" lon="1.11153">
        <ele>109.5</ele>
        <time>2014-07-14T17:04:52Z</time>
      </trkpt>
      <trkpt lat="49.00016" lon="1.11156">
        <ele>110.5</ele>
        <time>2014-07-14T17:04:55Z</time>
      </trkpt>
      <trkpt lat="49.00023" lon="1.11158">
        <ele>109.5</ele>
        <time>2014-07-14T17:04:57Z</time>
      </trkpt>
      <trkpt lat="49.0003" lon="1.11157">
        <ele>109.5</ele>
        <time>2014-07-14T17:04:59Z</time>
      </trkpt>
      <trkpt lat="49.00039" lon="1.11159">
        <ele>108.5</ele>
        <time>2014-07-14T17:05:01Z</time>
      </trkpt>
      <trkpt lat="49.00043" lon="1.11161">
        <ele>108.5</ele>
        <time>2014-07-14T17:05:02Z</time>
      </trkpt>
      <trkpt lat="49.00048" lon="1.11164">
        <ele>108.5</ele>
        <time>2014-07-14T17:05:03Z</time>
      </trkpt>
      <trkpt lat="49.00058" lon="1.11176">
        <ele>108.5</ele>
        <time>2014-07-14T17:05:04Z</time>
      </trkpt>
      <trkpt lat="49.00062" lon="1.1118">
        <ele>108.5</ele>
        <time>2014-07-14T17:05:05Z</time>
      </trkpt>
      <trkpt lat="49.00067" lon="1.11182">
        <ele>108.5</ele>
        <time>2014-07-14T17:05:06Z</time>
      </trkpt>
      <trkpt lat="49.00071" lon="1.11185">
        <ele>108.5</ele>
        <time>2014-07-14T17:05:07Z</time>
      </trkpt>
      <trkpt lat="49.00076" lon="1.11181">
        <ele>108.5</ele>
        <time>2014-07-14T17:05:08Z</time>
      </trkpt>
      <trkpt lat="49.00081" lon="1.11177">
        <ele>108.5</ele>
        <time>2014-07-14T17:05:09Z</time>
      </trkpt>
      <trkpt lat="49.00086" lon="1.11174">
        <ele>108.5</ele>
        <time>2014-07-14T17:05:10Z</time>
      </trkpt>
      <trkpt lat="49.00094" lon="1.11179">
        <ele>107.5</ele>
        <time>2014-07-14T17:05:12Z</time>
      </trkpt>
      <trkpt lat="49.001" lon="1.11178">
        <ele>106.5</ele>
        <time>2014-07-14T17:05:13Z</time>
      </trkpt>
      <trkpt lat="49.00106" lon="1.1118">
        <ele>106.5</ele>
        <time>2014-07-14T17:05:14Z</time>
      </trkpt>
      <trkpt lat="49.00111" lon="1.11182">
        <ele>107.5</ele>
        <time>2014-07-14T17:05:15Z</time>
      </trkpt>
      <trkpt lat="49.00117" lon="1.11185">
        <ele>106.5</ele>
        <time>2014-07-14T17:05:16Z</time>
      </trkpt>
      <trkpt lat="49.00122" lon="1.11187">
        <ele>106.5</ele>
        <time>2014-07-14T17:05:17Z</time>
      </trkpt>
      <trkpt lat="49.00129" lon="1.11193">
        <ele>105.5</ele>
        <time>2014-07-14T17:05:18Z</time>
      </trkpt>
      <trkpt lat="49.00135" lon="1.11197">
        <ele>104.5</ele>
        <time>2014-07-14T17:05:19Z</time>
      </trkpt>
      <trkpt lat="49.0014" lon="1.11202">
        <ele>104.5</ele>
        <time>2014-07-14T17:05:20Z</time>
      </trkpt>
      <trkpt lat="49.00151" lon="1.11218">
        <ele>101.5</ele>
        <time>2014-07-14T17:05:22Z</time>
      </trkpt>
      <trkpt lat="49.00159" lon="1.11223">
        <ele>101.5</ele>
        <time>2014-07-14T17:05:23Z</time>
      </trkpt>
      <trkpt lat="49.00164" lon="1.11224">
        <ele>101.5</ele>
        <time>2014-07-14T17:05:24Z</time>
      </trkpt>
      <trkpt lat="49.0017" lon="1.11228">
        <ele>100.5</ele>
        <time>2014-07-14T17:05:25Z</time>
      </trkpt>
      <trkpt lat="49.00177" lon="1.11232">
        <ele>100.5</ele>
        <time>2014-07-14T17:05:26Z</time>
      </trkpt>
      <trkpt lat="49.00184" lon="1.11237">
        <ele>100.5</ele>
        <time>2014-07-14T17:05:27Z</time>
      </trkpt>
      <trkpt lat="49.00192" lon="1.11243">
        <ele>99.5</ele>
        <time>2014-07-14T17:05:28Z</time>
      </trkpt>
      <trkpt lat="49.00199" lon="1.11248">
        <ele>99.5</ele>
        <time>2014-07-14T17:05:29Z</time>
      </trkpt>
      <trkpt lat="49.00206" lon="1.11249">
        <ele>98.5</ele>
        <time>2014-07-14T17:05:30Z</time>
      </trkpt>
      <trkpt lat="49.00212" lon="1.11247">
        <ele>98.5</ele>
        <time>2014-07-14T17:05:31Z</time>
      </trkpt>
      <trkpt lat="49.00218" lon="1.1125">
        <ele>98.5</ele>
        <time>2014-07-14T17:05:32Z</time>
      </trkpt>
      <trkpt lat="49.00225" lon="1.11251">
        <ele>98.5</ele>
        <time>2014-07-14T17:05:33Z</time>
      </trkpt>
      <trkpt lat="49.0023" lon="1.11252">
        <ele>97.5</ele>
        <time>2014-07-14T17:05:34Z</time>
      </trkpt>
      <trkpt lat="49.00234" lon="1.11259">
        <ele>98.5</ele>
        <time>2014-07-14T17:05:35Z</time>
      </trkpt>
      <trkpt lat="49.0024" lon="1.11258">
        <ele>98.5</ele>
        <time>2014-07-14T17:05:36Z</time>
      </trkpt>
      <trkpt lat="49.00246" lon="1.11262">
        <ele>99.5</ele>
        <time>2014-07-14T17:05:37Z</time>
      </trkpt>
      <trkpt lat="49.00251" lon="1.11263">
        <ele>99.5</ele>
        <time>2014-07-14T17:05:38Z</time>
      </trkpt>
      <trkpt lat="49.00258" lon="1.11263">
        <ele>98.5</ele>
        <time>2014-07-14T17:05:39Z</time>
      </trkpt>
      <trkpt lat="49.00264" lon="1.11264">
        <ele>99.5</ele>
        <time>2014-07-14T17:05:40Z</time>
      </trkpt>
      <trkpt lat="49.00271" lon="1.11267">
        <ele>99.5</ele>
        <time>2014-07-14T17:05:41Z</time>
      </trkpt>
      <trkpt lat="49.00276" lon="1.1127">
        <ele>99.5</ele>
        <time>2014-07-14T17:05:42Z</time>
      </trkpt>
      <trkpt lat="49.00281" lon="1.11277">
        <ele>100.5</ele>
        <time>2014-07-14T17:05:43Z</time>
      </trkpt>
      <trkpt lat="49.00286" lon="1.11283">
        <ele>100.5</ele>
        <time>2014-07-14T17:05:44Z</time>
      </trkpt>
      <trkpt lat="49.00291" lon="1.11288">
        <ele>99.5</ele>
        <time>2014-07-14T17:05:45Z</time>
      </trkpt>
      <trkpt lat="49.00295" lon="1.11294">
        <ele>100.5</ele>
        <time>2014-07-14T17:05:46Z</time>
      </trkpt>
      <trkpt lat="49.00298" lon="1.11299">
        <ele>100.5</ele>
        <time>2014-07-14T17:05:47Z</time>
      </trkpt>
      <trkpt lat="49.00306" lon="1.11305">
        <ele>101.5</ele>
        <time>2014-07-14T17:05:49Z</time>
      </trkpt>
      <trkpt lat="49.00311" lon="1.1131">
        <ele>100.5</ele>
        <time>2014-07-14T17:05:51Z</time>
      </trkpt>
      <trkpt lat="49.00315" lon="1.11319">
        <ele>97.5</ele>
        <time>2014-07-14T17:05:56Z</time>
      </trkpt>
      <trkpt lat="49.00317" lon="1.11325">
        <ele>98.5</ele>
        <time>2014-07-14T17:06:11Z</time>
      </trkpt>
      <trkpt lat="49.00319" lon="1.11332">
        <ele>97.5</ele>
        <time>2014-07-14T17:06:15Z</time>
      </trkpt>
      <trkpt lat="49.00321" lon="1.11339">
        <ele>97.5</ele>
        <time>2014-07-14T17:06:20Z</time>
      </trkpt>
      <trkpt lat="49.00322" lon="1.11346">
        <ele>97.5</ele>
        <time>2014-07-14T17:06:24Z</time>
      </trkpt>
      <trkpt lat="49.00323" lon="1.11353">
        <ele>97.5</ele>
        <time>2014-07-14T17:06:28Z</time>
      </trkpt>
      <trkpt lat="49.00326" lon="1.11359">
        <ele>98.5</ele>
        <time>2014-07-14T17:06:33Z</time>
      </trkpt>
      <trkpt lat="49.0033" lon="1.11363">
        <ele>99.5</ele>
        <time>2014-07-14T17:06:42Z</time>
      </trkpt>
      <trkpt lat="49.00326" lon="1.11368">
        <ele>100.5</ele>
        <time>2014-07-14T17:07:12Z</time>
      </trkpt>
      <trkpt lat="49.00321" lon="1.11367">
        <ele>101.5</ele>
        <time>2014-07-14T17:07:16Z</time>
      </trkpt>
      <trkpt lat="49.00317" lon="1.11371">
        <ele>102.5</ele>
        <time>2014-07-14T17:07:20Z</time>
      </trkpt>
      <trkpt lat="49.00312" lon="1.11374">
        <ele>102.5</ele>
        <time>2014-07-14T17:07:23Z</time>
      </trkpt>
      <trkpt lat="49.00308" lon="1.11376">
        <ele>103.5</ele>
        <time>2014-07-14T17:07:27Z</time>
      </trkpt>
      <trkpt lat="49.00305" lon="1.11382">
        <ele>107.5</ele>
        <time>2014-07-14T17:07:36Z</time>
      </trkpt>
      <trkpt lat="49.00302" lon="1.11387">
        <ele>108.5</ele>
        <time>2014-07-14T17:07:41Z</time>
      </trkpt>
      <trkpt lat="49.00297" lon="1.11391">
        <ele>110.5</ele>
        <time>2014-07-14T17:07:45Z</time>
      </trkpt>
      <trkpt lat="49.00293" lon="1.11394">
        <ele>111.5</ele>
        <time>2014-07-14T17:07:49Z</time>
      </trkpt>
      <trkpt lat="49.00288" lon="1.11396">
        <ele>111.5</ele>
        <time>2014-07-14T17:07:59Z</time>
      </trkpt>
      <trkpt lat="49.00284" lon="1.11396">
        <ele>111.5</ele>
        <time>2014-07-14T17:08:02Z</time>
      </trkpt>
      <trkpt lat="49.00279" lon="1.11399">
        <ele>114.5</ele>
        <time>2014-07-14T17:08:12Z</time>
      </trkpt>
      <trkpt lat="49.00274" lon="1.11401">
        <ele>113.5</ele>
        <time>2014-07-14T17:08:19Z</time>
      </trkpt>
      <trkpt lat="49.0027" lon="1.11407">
        <ele>115.5</ele>
        <time>2014-07-14T17:08:29Z</time>
      </trkpt>
      <trkpt lat="49.00265" lon="1.1141">
        <ele>115.5</ele>
        <time>2014-07-14T17:08:32Z</time>
      </trkpt>
      <trkpt lat="49.00259" lon="1.11413">
        <ele>116.5</ele>
        <time>2014-07-14T17:08:35Z</time>
      </trkpt>
      <trkpt lat="49.00254" lon="1.11415">
        <ele>116.5</ele>
        <time>2014-07-14T17:08:37Z</time>
      </trkpt>
      <trkpt lat="49.00249" lon="1.11418">
        <ele>117.5</ele>
        <time>2014-07-14T17:08:40Z</time>
      </trkpt>
      <trkpt lat="49.00243" lon="1.11419">
        <ele>117.5</ele>
        <time>2014-07-14T17:08:43Z</time>
      </trkpt>
      <trkpt lat="49.00238" lon="1.11422">
        <ele>117.5</ele>
        <time>2014-07-14T17:08:45Z</time>
      </trkpt>
      <trkpt lat="49.00232" lon="1.11425">
        <ele>118.5</ele>
        <time>2014-07-14T17:08:48Z</time>
      </trkpt>
      <trkpt lat="49.00225" lon="1.11428">
        <ele>118.5</ele>
        <time>2014-07-14T17:08:51Z</time>
      </trkpt>
      <trkpt lat="49.0022" lon="1.11429">
        <ele>119.5</ele>
        <time>2014-07-14T17:08:53Z</time>
      </trkpt>
      <trkpt lat="49.00214" lon="1.11432">
        <ele>119.5</ele>
        <time>2014-07-14T17:09:00Z</time>
      </trkpt>
      <trkpt lat="49.00209" lon="1.11435">
        <ele>121.5</ele>
        <time>2014-07-14T17:09:05Z</time>
      </trkpt>
      <trkpt lat="49.00204" lon="1.11437">
        <ele>121.5</ele>
        <time>2014-07-14T17:09:08Z</time>
      </trkpt>
      <trkpt lat="49.002" lon="1.11437">
        <ele>120.5</ele>
        <time>2014-07-14T17:09:10Z</time>
      </trkpt>
      <trkpt lat="49.00194" lon="1.11438">
        <ele>120.5</ele>
        <time>2014-07-14T17:09:14Z</time>
      </trkpt>
      <trkpt lat="49.00188" lon="1.11439">
        <ele>121.5</ele>
        <time>2014-07-14T17:09:17Z</time>
      </trkpt>
      <trkpt lat="49.00183" lon="1.11441">
        <ele>121.5</ele>
        <time>2014-07-14T17:09:20Z</time>
      </trkpt>
      <trkpt lat="49.00176" lon="1.11441">
        <ele>121.5</ele>
        <time>2014-07-14T17:09:23Z</time>
      </trkpt>
      <trkpt lat="49.00171" lon="1.11441">
        <ele>122.5</ele>
        <time>2014-07-14T17:09:26Z</time>
      </trkpt>
      <trkpt lat="49.00169" lon="1.11441">
        <ele>122.5</ele>
        <time>2014-07-14T17:09:27Z</time>
      </trkpt>
      <trkpt lat="49.00164" lon="1.11442">
        <ele>122.5</ele>
        <time>2014-07-14T17:09:34Z</time>
      </trkpt>
      <trkpt lat="49.00157" lon="1.11443">
        <ele>122.5</ele>
        <time>2014-07-14T17:09:37Z</time>
      </trkpt>
      <trkpt lat="49.00151" lon="1.11446">
        <ele>122.5</ele>
        <time>2014-07-14T17:09:40Z</time>
      </trkpt>
      <trkpt lat="49.00145" lon="1.11449">
        <ele>123.5</ele>
        <time>2014-07-14T17:09:43Z</time>
      </trkpt>
      <trkpt lat="49.00139" lon="1.11452">
        <ele>123.5</ele>
        <time>2014-07-14T17:09:46Z</time>
      </trkpt>
      <trkpt lat="49.00134" lon="1.11455">
        <ele>124.5</ele>
        <time>2014-07-14T17:09:50Z</time>
      </trkpt>
      <trkpt lat="49.00131" lon="1.11461">
        <ele>125.5</ele>
        <time>2014-07-14T17:09:54Z</time>
      </trkpt>
      <trkpt lat="49.0013" lon="1.11468">
        <ele>124.5</ele>
        <time>2014-07-14T17:09:58Z</time>
      </trkpt>
      <trkpt lat="49.00132" lon="1.11476">
        <ele>124.5</ele>
        <time>2014-07-14T17:10:01Z</time>
      </trkpt>
      <trkpt lat="49.00134" lon="1.11482">
        <ele>124.5</ele>
        <time>2014-07-14T17:10:03Z</time>
      </trkpt>
      <trkpt lat="49.00136" lon="1.1149">
        <ele>125.5</ele>
        <time>2014-07-14T17:10:05Z</time>
      </trkpt>
      <trkpt lat="49.00139" lon="1.11499">
        <ele>125.5</ele>
        <time>2014-07-14T17:10:07Z</time>
      </trkpt>
      <trkpt lat="49.00139" lon="1.11506">
        <ele>126.5</ele>
        <time>2014-07-14T17:10:09Z</time>
      </trkpt>
      <trkpt lat="49.0014" lon="1.11515">
        <ele>125.5</ele>
        <time>2014-07-14T17:10:11Z</time>
      </trkpt>
      <trkpt lat="49.00142" lon="1.11523">
        <ele>125.5</ele>
        <time>2014-07-14T17:10:13Z</time>
      </trkpt>
      <trkpt lat="49.00143" lon="1.11532">
        <ele>125.5</ele>
        <time>2014-07-14T17:10:15Z</time>
      </trkpt>
      <trkpt lat="49.00145" lon="1.11542">
        <ele>126.5</ele>
        <time>2014-07-14T17:10:17Z</time>
      </trkpt>
      <trkpt lat="49.00148" lon="1.11552">
        <ele>126.5</ele>
        <time>2014-07-14T17:10:19Z</time>
      </trkpt>
      <trkpt lat="49.00151" lon="1.11562">
        <ele>126.5</ele>
        <time>2014-07-14T17:10:21Z</time>
      </trkpt>
      <trkpt lat="49.00153" lon="1.11569">
        <ele>126.5</ele>
        <time>2014-07-14T17:10:22Z</time>
      </trkpt>
      <trkpt lat="49.00155" lon="1.11581">
        <ele>127.5</ele>
        <time>2014-07-14T17:10:24Z</time>
      </trkpt>
      <trkpt lat="49.00157" lon="1.11593">
        <ele>128.5</ele>
        <time>2014-07-14T17:10:26Z</time>
      </trkpt>
      <trkpt lat="49.0016" lon="1.11605">
        <ele>127.5</ele>
        <time>2014-07-14T17:10:28Z</time>
      </trkpt>
      <trkpt lat="49.00162" lon="1.11617">
        <ele>125.5</ele>
        <time>2014-07-14T17:10:30Z</time>
      </trkpt>
      <trkpt lat="49.00164" lon="1.1163">
        <ele>125.5</ele>
        <time>2014-07-14T17:10:32Z</time>
      </trkpt>
      <trkpt lat="49.00166" lon="1.11638">
        <ele>123.5</ele>
        <time>2014-07-14T17:10:33Z</time>
      </trkpt>
      <trkpt lat="49.00174" lon="1.11663">
        <ele>123.5</ele>
        <time>2014-07-14T17:10:34Z</time>
      </trkpt>
      <trkpt lat="49.00175" lon="1.11674">
        <ele>123.5</ele>
        <time>2014-07-14T17:10:35Z</time>
      </trkpt>
      <trkpt lat="49.00175" lon="1.11683">
        <ele>123.5</ele>
        <time>2014-07-14T17:10:36Z</time>
      </trkpt>
      <trkpt lat="49.00177" lon="1.11691">
        <ele>122.5</ele>
        <time>2014-07-14T17:10:36Z</time>
      </trkpt>
      <trkpt lat="49.00178" lon="1.11699">
        <ele>122.5</ele>
        <time>2014-07-14T17:10:38Z</time>
      </trkpt>
      <trkpt lat="49.00181" lon="1.11705">
        <ele>122.5</ele>
        <time>2014-07-14T17:10:39Z</time>
      </trkpt>
      <trkpt lat="49.00183" lon="1.11712">
        <ele>122.5</ele>
        <time>2014-07-14T17:10:40Z</time>
      </trkpt>
      <trkpt lat="49.00187" lon="1.1172">
        <ele>121.5</ele>
        <time>2014-07-14T17:10:41Z</time>
      </trkpt>
      <trkpt lat="49.00184" lon="1.11729">
        <ele>120.5</ele>
        <time>2014-07-14T17:10:42Z</time>
      </trkpt>
      <trkpt lat="49.00188" lon="1.1174">
        <ele>120.5</ele>
        <time>2014-07-14T17:10:43Z</time>
      </trkpt>
      <trkpt lat="49.00189" lon="1.11756">
        <ele>119.5</ele>
        <time>2014-07-14T17:10:44Z</time>
      </trkpt>
      <trkpt lat="49.00189" lon="1.11767">
        <ele>119.5</ele>
        <time>2014-07-14T17:10:45Z</time>
      </trkpt>
      <trkpt lat="49.0019" lon="1.11775">
        <ele>118.5</ele>
        <time>2014-07-14T17:10:46Z</time>
      </trkpt>
      <trkpt lat="49.00191" lon="1.11789">
        <ele>118.5</ele>
        <time>2014-07-14T17:10:47Z</time>
      </trkpt>
      <trkpt lat="49.0019" lon="1.11799">
        <ele>118.5</ele>
        <time>2014-07-14T17:10:48Z</time>
      </trkpt>
      <trkpt lat="49.0019" lon="1.1181">
        <ele>118.5</ele>
        <time>2014-07-14T17:10:49Z</time>
      </trkpt>
      <trkpt lat="49.00192" lon="1.11821">
        <ele>118.5</ele>
        <time>2014-07-14T17:10:50Z</time>
      </trkpt>
      <trkpt lat="49.00193" lon="1.11832">
        <ele>117.5</ele>
        <time>2014-07-14T17:10:50Z</time>
      </trkpt>
      <trkpt lat="49.00194" lon="1.11843">
        <ele>117.5</ele>
        <time>2014-07-14T17:10:52Z</time>
      </trkpt>
      <trkpt lat="49.00194" lon="1.11854">
        <ele>117.5</ele>
        <time>2014-07-14T17:10:53Z</time>
      </trkpt>
      <trkpt lat="49.00196" lon="1.11865">
        <ele>116.5</ele>
        <time>2014-07-14T17:10:54Z</time>
      </trkpt>
      <trkpt lat="49.00199" lon="1.11869">
        <ele>116.5</ele>
        <time>2014-07-14T17:10:55Z</time>
      </trkpt>
      <trkpt lat="49.00199" lon="1.11877">
        <ele>115.5</ele>
        <time>2014-07-14T17:10:56Z</time>
      </trkpt>
      <trkpt lat="49.00201" lon="1.11889">
        <ele>114.5</ele>
        <time>2014-07-14T17:10:57Z</time>
      </trkpt>
      <trkpt lat="49.00199" lon="1.11898">
        <ele>112.5</ele>
        <time>2014-07-14T17:10:58Z</time>
      </trkpt>
      <trkpt lat="49.002" lon="1.11908">
        <ele>112.5</ele>
        <time>2014-07-14T17:10:59Z</time>
      </trkpt>
      <trkpt lat="49.002" lon="1.11916">
        <ele>112.5</ele>
        <time>2014-07-14T17:11:00Z</time>
      </trkpt>
      <trkpt lat="49.002" lon="1.11931">
        <ele>111.5</ele>
        <time>2014-07-14T17:11:02Z</time>
      </trkpt>
      <trkpt lat="49.00203" lon="1.11934">
        <ele>111.5</ele>
        <time>2014-07-14T17:11:03Z</time>
      </trkpt>
      <trkpt lat="49.00204" lon="1.11944">
        <ele>110.5</ele>
        <time>2014-07-14T17:11:05Z</time>
      </trkpt>
      <trkpt lat="49.00206" lon="1.11954">
        <ele>106.5</ele>
        <time>2014-07-14T17:11:08Z</time>
      </trkpt>
      <trkpt lat="49.00207" lon="1.11964">
        <ele>104.5</ele>
        <time>2014-07-14T17:11:11Z</time>
      </trkpt>
      <trkpt lat="49.00206" lon="1.11971">
        <ele>101.5</ele>
        <time>2014-07-14T17:11:13Z</time>
      </trkpt>
      <trkpt lat="49.00207" lon="1.11978">
        <ele>101.5</ele>
        <time>2014-07-14T17:11:16Z</time>
      </trkpt>
      <trkpt lat="49.00209" lon="1.11981">
        <ele>102.5</ele>
        <time>2014-07-14T17:11:17Z</time>
      </trkpt>
      <trkpt lat="49.00213" lon="1.11976">
        <ele>101.5</ele>
        <time>2014-07-14T17:11:24Z</time>
      </trkpt>
      <trkpt lat="49.00215" lon="1.11975">
        <ele>101.5</ele>
        <time>2014-07-14T17:11:25Z</time>
      </trkpt>
      <trkpt lat="49.00222" lon="1.1197">
        <ele>102.5</ele>
        <time>2014-07-14T17:11:28Z</time>
      </trkpt>
      <trkpt lat="49.00224" lon="1.11966">
        <ele>103.5</ele>
        <time>2014-07-14T17:11:29Z</time>
      </trkpt>
      <trkpt lat="49.00228" lon="1.11956">
        <ele>102.5</ele>
        <time>2014-07-14T17:11:31Z</time>
      </trkpt>
      <trkpt lat="49.00232" lon="1.11943">
        <ele>101.5</ele>
        <time>2014-07-14T17:11:33Z</time>
      </trkpt>
      <trkpt lat="49.00236" lon="1.11923">
        <ele>101.5</ele>
        <time>2014-07-14T17:11:34Z</time>
      </trkpt>
      <trkpt lat="49.00237" lon="1.11918">
        <ele>102.5</ele>
        <time>2014-07-14T17:11:34Z</time>
      </trkpt>
      <trkpt lat="49.0024" lon="1.11909">
        <ele>102.5</ele>
        <time>2014-07-14T17:11:35Z</time>
      </trkpt>
      <trkpt lat="49.00242" lon="1.11903">
        <ele>102.5</ele>
        <time>2014-07-14T17:11:37Z</time>
      </trkpt>
      <trkpt lat="49.00252" lon="1.1189">
        <ele>101.5</ele>
        <time>2014-07-14T17:11:39Z</time>
      </trkpt>
      <trkpt lat="49.00256" lon="1.11881">
        <ele>100.5</ele>
        <time>2014-07-14T17:11:40Z</time>
      </trkpt>
      <trkpt lat="49.00258" lon="1.11866">
        <ele>100.5</ele>
        <time>2014-07-14T17:11:40Z</time>
      </trkpt>
      <trkpt lat="49.00263" lon="1.11856">
        <ele>100.5</ele>
        <time>2014-07-14T17:11:42Z</time>
      </trkpt>
      <trkpt lat="49.00266" lon="1.11849">
        <ele>100.5</ele>
        <time>2014-07-14T17:11:43Z</time>
      </trkpt>
      <trkpt lat="49.00269" lon="1.11841">
        <ele>101.5</ele>
        <time>2014-07-14T17:11:44Z</time>
      </trkpt>
      <trkpt lat="49.00273" lon="1.11831">
        <ele>101.5</ele>
        <time>2014-07-14T17:11:45Z</time>
      </trkpt>
      <trkpt lat="49.00276" lon="1.11822">
        <ele>100.5</ele>
        <time>2014-07-14T17:11:46Z</time>
      </trkpt>
      <trkpt lat="49.00279" lon="1.11808">
        <ele>99.5</ele>
        <time>2014-07-14T17:11:47Z</time>
      </trkpt>
      <trkpt lat="49.00285" lon="1.11795">
        <ele>99.5</ele>
        <time>2014-07-14T17:11:48Z</time>
      </trkpt>
      <trkpt lat="49.00288" lon="1.11783">
        <ele>99.5</ele>
        <time>2014-07-14T17:11:49Z</time>
      </trkpt>
      <trkpt lat="49.00291" lon="1.11773">
        <ele>99.5</ele>
        <time>2014-07-14T17:11:50Z</time>
      </trkpt>
      <trkpt lat="49.00297" lon="1.11761">
        <ele>99.5</ele>
        <time>2014-07-14T17:11:51Z</time>
      </trkpt>
      <trkpt lat="49.003" lon="1.11752">
        <ele>99.5</ele>
        <time>2014-07-14T17:11:52Z</time>
      </trkpt>
      <trkpt lat="49.00302" lon="1.11742">
        <ele>99.5</ele>
        <time>2014-07-14T17:11:52Z</time>
      </trkpt>
      <trkpt lat="49.00305" lon="1.11731">
        <ele>99.5</ele>
        <time>2014-07-14T17:11:54Z</time>
      </trkpt>
      <trkpt lat="49.00309" lon="1.11723">
        <ele>98.5</ele>
        <time>2014-07-14T17:11:55Z</time>
      </trkpt>
      <trkpt lat="49.00311" lon="1.11713">
        <ele>99.5</ele>
        <time>2014-07-14T17:11:55Z</time>
      </trkpt>
      <trkpt lat="49.00312" lon="1.11704">
        <ele>98.5</ele>
        <time>2014-07-14T17:11:57Z</time>
      </trkpt>
      <trkpt lat="49.00312" lon="1.11696">
        <ele>98.5</ele>
        <time>2014-07-14T17:11:58Z</time>
      </trkpt>
      <trkpt lat="49.00315" lon="1.11686">
        <ele>98.5</ele>
        <time>2014-07-14T17:11:59Z</time>
      </trkpt>
      <trkpt lat="49.00319" lon="1.11677">
        <ele>98.5</ele>
        <time>2014-07-14T17:12:00Z</time>
      </trkpt>
      <trkpt lat="49.00323" lon="1.1166">
        <ele>98.5</ele>
        <time>2014-07-14T17:12:02Z</time>
      </trkpt>
      <trkpt lat="49.00324" lon="1.11653">
        <ele>98.5</ele>
        <time>2014-07-14T17:12:03Z</time>
      </trkpt>
      <trkpt lat="49.00327" lon="1.11645">
        <ele>97.5</ele>
        <time>2014-07-14T17:12:04Z</time>
      </trkpt>
      <trkpt lat="49.00333" lon="1.11627">
        <ele>97.5</ele>
        <time>2014-07-14T17:12:06Z</time>
      </trkpt>
      <trkpt lat="49.00335" lon="1.11617">
        <ele>96.5</ele>
        <time>2014-07-14T17:12:07Z</time>
      </trkpt>
      <trkpt lat="49.0034" lon="1.11609">
        <ele>96.5</ele>
        <time>2014-07-14T17:12:08Z</time>
      </trkpt>
      <trkpt lat="49.00342" lon="1.11598">
        <ele>95.5</ele>
        <time>2014-07-14T17:12:09Z</time>
      </trkpt>
      <trkpt lat="49.00347" lon="1.11589">
        <ele>95.5</ele>
        <time>2014-07-14T17:12:10Z</time>
      </trkpt>
      <trkpt lat="49.00352" lon="1.11576">
        <ele>94.5</ele>
        <time>2014-07-14T17:12:11Z</time>
      </trkpt>
      <trkpt lat="49.00358" lon="1.11566">
        <ele>94.5</ele>
        <time>2014-07-14T17:12:12Z</time>
      </trkpt>
      <trkpt lat="49.00363" lon="1.11555">
        <ele>93.5</ele>
        <time>2014-07-14T17:12:13Z</time>
      </trkpt>
      <trkpt lat="49.0037" lon="1.11544">
        <ele>92.5</ele>
        <time>2014-07-14T17:12:14Z</time>
      </trkpt>
      <trkpt lat="49.00376" lon="1.11534">
        <ele>92.5</ele>
        <time>2014-07-14T17:12:15Z</time>
      </trkpt>
      <trkpt lat="49.0038" lon="1.11528">
        <ele>92.5</ele>
        <time>2014-07-14T17:12:16Z</time>
      </trkpt>
      <trkpt lat="49.00384" lon="1.1152">
        <ele>91.5</ele>
        <time>2014-07-14T17:12:16Z</time>
      </trkpt>
      <trkpt lat="49.00388" lon="1.11509">
        <ele>91.5</ele>
        <time>2014-07-14T17:12:18Z</time>
      </trkpt>
      <trkpt lat="49.00391" lon="1.11499">
        <ele>91.5</ele>
        <time>2014-07-14T17:12:19Z</time>
      </trkpt>
      <trkpt lat="49.00396" lon="1.11489">
        <ele>90.5</ele>
        <time>2014-07-14T17:12:20Z</time>
      </trkpt>
      <trkpt lat="49.004" lon="1.11477">
        <ele>90.5</ele>
        <time>2014-07-14T17:12:21Z</time>
      </trkpt>
      <trkpt lat="49.00401" lon="1.1147">
        <ele>90.5</ele>
        <time>2014-07-14T17:12:22Z</time>
      </trkpt>
      <trkpt lat="49.00401" lon="1.11463">
        <ele>90.5</ele>
        <time>2014-07-14T17:12:23Z</time>
      </trkpt>
      <trkpt lat="49.00402" lon="1.11449">
        <ele>89.5</ele>
        <time>2014-07-14T17:12:25Z</time>
      </trkpt>
      <trkpt lat="49.00404" lon="1.11442">
        <ele>89.5</ele>
        <time>2014-07-14T17:12:26Z</time>
      </trkpt>
      <trkpt lat="49.00405" lon="1.11434">
        <ele>89.5</ele>
        <time>2014-07-14T17:12:28Z</time>
      </trkpt>
      <trkpt lat="49.00409" lon="1.11437">
        <ele>88.5</ele>
        <time>2014-07-14T17:12:32Z</time>
      </trkpt>
      <trkpt lat="49.00412" lon="1.11444">
        <ele>86.5</ele>
        <time>2014-07-14T17:12:48Z</time>
      </trkpt>
      <trkpt lat="49.00411" lon="1.11454">
        <ele>87.5</ele>
        <time>2014-07-14T17:12:50Z</time>
      </trkpt>
      <trkpt lat="49.00411" lon="1.11465">
        <ele>87.5</ele>
        <time>2014-07-14T17:12:52Z</time>
      </trkpt>
      <trkpt lat="49.00412" lon="1.11476">
        <ele>87.5</ele>
        <time>2014-07-14T17:12:54Z</time>
      </trkpt>
      <trkpt lat="49.00414" lon="1.11484">
        <ele>87.5</ele>
        <time>2014-07-14T17:12:56Z</time>
      </trkpt>
      <trkpt lat="49.00418" lon="1.11489">
        <ele>88.5</ele>
        <time>2014-07-14T17:12:58Z</time>
      </trkpt>
      <trkpt lat="49.00424" lon="1.1149">
        <ele>88.5</ele>
        <time>2014-07-14T17:13:01Z</time>
      </trkpt>
      <trkpt lat="49.00429" lon="1.1149">
        <ele>88.5</ele>
        <time>2014-07-14T17:13:04Z</time>
      </trkpt>
      <trkpt lat="49.00434" lon="1.1149">
        <ele>89.5</ele>
        <time>2014-07-14T17:13:11Z</time>
      </trkpt>
      <trkpt lat="49.00435" lon="1.11481">
        <ele>88.5</ele>
        <time>2014-07-14T17:13:13Z</time>
      </trkpt>
      <trkpt lat="49.00437" lon="1.1147">
        <ele>87.5</ele>
        <time>2014-07-14T17:13:15Z</time>
      </trkpt>
      <trkpt lat="49.00441" lon="1.11459">
        <ele>87.5</ele>
        <time>2014-07-14T17:13:17Z</time>
      </trkpt>
      <trkpt lat="49.00444" lon="1.11449">
        <ele>86.5</ele>
        <time>2014-07-14T17:13:19Z</time>
      </trkpt>
      <trkpt lat="49.00448" lon="1.11439">
        <ele>85.5</ele>
        <time>2014-07-14T17:13:21Z</time>
      </trkpt>
      <trkpt lat="49.00452" lon="1.11428">
        <ele>85.5</ele>
        <time>2014-07-14T17:13:23Z</time>
      </trkpt>
      <trkpt lat="49.00454" lon="1.11418">
        <ele>84.5</ele>
        <time>2014-07-14T17:13:25Z</time>
      </trkpt>
      <trkpt lat="49.00453" lon="1.11406">
        <ele>83.5</ele>
        <time>2014-07-14T17:13:27Z</time>
      </trkpt>
      <trkpt lat="49.0045" lon="1.114">
        <ele>82.5</ele>
        <time>2014-07-14T17:13:28Z</time>
      </trkpt>
      <trkpt lat="49.00443" lon="1.11393">
        <ele>81.5</ele>
        <time>2014-07-14T17:13:30Z</time>
      </trkpt>
      <trkpt lat="49.00439" lon="1.11389">
        <ele>81.5</ele>
        <time>2014-07-14T17:13:31Z</time>
      </trkpt>
      <trkpt lat="49.00433" lon="1.11382">
        <ele>81.5</ele>
        <time>2014-07-14T17:13:33Z</time>
      </trkpt>
      <trkpt lat="49.00428" lon="1.1138">
        <ele>80.5</ele>
        <time>2014-07-14T17:13:35Z</time>
      </trkpt>
      <trkpt lat="49.00433" lon="1.11373">
        <ele>80.5</ele>
        <time>2014-07-14T17:13:52Z</time>
      </trkpt>
      <trkpt lat="49.00437" lon="1.11364">
        <ele>80.5</ele>
        <time>2014-07-14T17:13:54Z</time>
      </trkpt>
      <trkpt lat="49.0044" lon="1.11354">
        <ele>81.5</ele>
        <time>2014-07-14T17:13:56Z</time>
      </trkpt>
      <trkpt lat="49.00443" lon="1.11343">
        <ele>81.5</ele>
        <time>2014-07-14T17:13:58Z</time>
      </trkpt>
      <trkpt lat="49.00445" lon="1.11334">
        <ele>82.5</ele>
        <time>2014-07-14T17:14:00Z</time>
      </trkpt>
      <trkpt lat="49.00446" lon="1.11327">
        <ele>82.5</ele>
        <time>2014-07-14T17:14:02Z</time>
      </trkpt>
      <trkpt lat="49.00446" lon="1.1132">
        <ele>82.5</ele>
        <time>2014-07-14T17:14:07Z</time>
      </trkpt>
      <trkpt lat="49.00451" lon="1.11316">
        <ele>82.5</ele>
        <time>2014-07-14T17:14:11Z</time>
      </trkpt>
      <trkpt lat="49.00457" lon="1.1132">
        <ele>82.5</ele>
        <time>2014-07-14T17:14:12Z</time>
      </trkpt>
      <trkpt lat="49.00465" lon="1.11325">
        <ele>82.5</ele>
        <time>2014-07-14T17:14:15Z</time>
      </trkpt>
      <trkpt lat="49.00472" lon="1.11328">
        <ele>82.5</ele>
        <time>2014-07-14T17:14:17Z</time>
      </trkpt>
      <trkpt lat="49.0048" lon="1.11332">
        <ele>83.5</ele>
        <time>2014-07-14T17:14:19Z</time>
      </trkpt>
      <trkpt lat="49.00486" lon="1.11336">
        <ele>82.5</ele>
        <time>2014-07-14T17:14:19Z</time>
      </trkpt>
      <trkpt lat="49.00491" lon="1.1134">
        <ele>83.5</ele>
        <time>2014-07-14T17:14:20Z</time>
      </trkpt>
      <trkpt lat="49.00499" lon="1.11345">
        <ele>84.5</ele>
        <time>2014-07-14T17:14:23Z</time>
      </trkpt>
      <trkpt lat="49.00504" lon="1.11348">
        <ele>83.5</ele>
        <time>2014-07-14T17:14:24Z</time>
      </trkpt>
      <trkpt lat="49.00508" lon="1.1135">
        <ele>83.5</ele>
        <time>2014-07-14T17:14:25Z</time>
      </trkpt>
      <trkpt lat="49.00516" lon="1.11353">
        <ele>83.5</ele>
        <time>2014-07-14T17:14:27Z</time>
      </trkpt>
      <trkpt lat="49.0052" lon="1.11357">
        <ele>83.5</ele>
        <time>2014-07-14T17:14:27Z</time>
      </trkpt>
      <trkpt lat="49.00524" lon="1.1136">
        <ele>83.5</ele>
        <time>2014-07-14T17:14:28Z</time>
      </trkpt>
      <trkpt lat="49.00529" lon="1.11363">
        <ele>83.5</ele>
        <time>2014-07-14T17:14:30Z</time>
      </trkpt>
      <trkpt lat="49.00533" lon="1.11366">
        <ele>83.5</ele>
        <time>2014-07-14T17:14:31Z</time>
      </trkpt>
      <trkpt lat="49.00537" lon="1.11368">
        <ele>83.5</ele>
        <time>2014-07-14T17:14:31Z</time>
      </trkpt>
      <trkpt lat="49.00542" lon="1.11371">
        <ele>83.5</ele>
        <time>2014-07-14T17:14:33Z</time>
      </trkpt>
      <trkpt lat="49.00547" lon="1.11375">
        <ele>82.5</ele>
        <time>2014-07-14T17:14:33Z</time>
      </trkpt>
      <trkpt lat="49.00551" lon="1.11379">
        <ele>83.5</ele>
        <time>2014-07-14T17:14:35Z</time>
      </trkpt>
      <trkpt lat="49.00556" lon="1.1138">
        <ele>83.5</ele>
        <time>2014-07-14T17:14:36Z</time>
      </trkpt>
      <trkpt lat="49.00561" lon="1.11383">
        <ele>83.5</ele>
        <time>2014-07-14T17:14:37Z</time>
      </trkpt>
      <trkpt lat="49.00566" lon="1.11389">
        <ele>82.5</ele>
        <time>2014-07-14T17:14:38Z</time>
      </trkpt>
      <trkpt lat="49.00571" lon="1.11389">
        <ele>83.5</ele>
        <time>2014-07-14T17:14:39Z</time>
      </trkpt>
      <trkpt lat="49.00576" lon="1.1139">
        <ele>83.5</ele>
        <time>2014-07-14T17:14:40Z</time>
      </trkpt>
      <trkpt lat="49.00581" lon="1.11394">
        <ele>83.5</ele>
        <time>2014-07-14T17:14:41Z</time>
      </trkpt>
      <trkpt lat="49.00586" lon="1.11396">
        <ele>83.5</ele>
        <time>2014-07-14T17:14:42Z</time>
      </trkpt>
      <trkpt lat="49.0059" lon="1.114">
        <ele>84.5</ele>
        <time>2014-07-14T17:14:43Z</time>
      </trkpt>
      <trkpt lat="49.00596" lon="1.11406">
        <ele>83.5</ele>
        <time>2014-07-14T17:14:44Z</time>
      </trkpt>
      <trkpt lat="49.00601" lon="1.11406">
        <ele>83.5</ele>
        <time>2014-07-14T17:14:45Z</time>
      </trkpt>
      <trkpt lat="49.00606" lon="1.1141">
        <ele>84.5</ele>
        <time>2014-07-14T17:14:45Z</time>
      </trkpt>
      <trkpt lat="49.00611" lon="1.11414">
        <ele>83.5</ele>
        <time>2014-07-14T17:14:47Z</time>
      </trkpt>
      <trkpt lat="49.00617" lon="1.11418">
        <ele>83.5</ele>
        <time>2014-07-14T17:14:48Z</time>
      </trkpt>
      <trkpt lat="49.00624" lon="1.11421">
        <ele>84.5</ele>
        <time>2014-07-14T17:14:49Z</time>
      </trkpt>
      <trkpt lat="49.0063" lon="1.11424">
        <ele>84.5</ele>
        <time>2014-07-14T17:14:50Z</time>
      </trkpt>
      <trkpt lat="49.00637" lon="1.11425">
        <ele>84.5</ele>
        <time>2014-07-14T17:14:50Z</time>
      </trkpt>
      <trkpt lat="49.00642" lon="1.11426">
        <ele>84.5</ele>
        <time>2014-07-14T17:14:51Z</time>
      </trkpt>
      <trkpt lat="49.00649" lon="1.1143">
        <ele>83.5</ele>
        <time>2014-07-14T17:14:53Z</time>
      </trkpt>
      <trkpt lat="49.00656" lon="1.11436">
        <ele>83.5</ele>
        <time>2014-07-14T17:14:53Z</time>
      </trkpt>
      <trkpt lat="49.00664" lon="1.1144">
        <ele>83.5</ele>
        <time>2014-07-14T17:14:54Z</time>
      </trkpt>
      <trkpt lat="49.00673" lon="1.11443">
        <ele>82.5</ele>
        <time>2014-07-14T17:14:56Z</time>
      </trkpt>
      <trkpt lat="49.00681" lon="1.11447">
        <ele>82.5</ele>
        <time>2014-07-14T17:14:57Z</time>
      </trkpt>
      <trkpt lat="49.0069" lon="1.11456">
        <ele>81.5</ele>
        <time>2014-07-14T17:14:58Z</time>
      </trkpt>
      <trkpt lat="49.00699" lon="1.11467">
        <ele>81.5</ele>
        <time>2014-07-14T17:14:58Z</time>
      </trkpt>
      <trkpt lat="49.00708" lon="1.11471">
        <ele>80.5</ele>
        <time>2014-07-14T17:15:00Z</time>
      </trkpt>
      <trkpt lat="49.00717" lon="1.1148">
        <ele>79.5</ele>
        <time>2014-07-14T17:15:00Z</time>
      </trkpt>
      <trkpt lat="49.00728" lon="1.11494">
        <ele>79.5</ele>
        <time>2014-07-14T17:15:02Z</time>
      </trkpt>
      <trkpt lat="49.00736" lon="1.11499">
        <ele>79.5</ele>
        <time>2014-07-14T17:15:03Z</time>
      </trkpt>
      <trkpt lat="49.00744" lon="1.11508">
        <ele>78.5</ele>
        <time>2014-07-14T17:15:04Z</time>
      </trkpt>
      <trkpt lat="49.00752" lon="1.11516">
        <ele>78.5</ele>
        <time>2014-07-14T17:15:05Z</time>
      </trkpt>
      <trkpt lat="49.00759" lon="1.11524">
        <ele>78.5</ele>
        <time>2014-07-14T17:15:06Z</time>
      </trkpt>
      <trkpt lat="49.00767" lon="1.11533">
        <ele>79.5</ele>
        <time>2014-07-14T17:15:07Z</time>
      </trkpt>
      <trkpt lat="49.00774" lon="1.11542">
        <ele>79.5</ele>
        <time>2014-07-14T17:15:08Z</time>
      </trkpt>
      <trkpt lat="49.0078" lon="1.11551">
        <ele>78.5</ele>
        <time>2014-07-14T17:15:09Z</time>
      </trkpt>
      <trkpt lat="49.00787" lon="1.11558">
        <ele>78.5</ele>
        <time>2014-07-14T17:15:10Z</time>
      </trkpt>
      <trkpt lat="49.00793" lon="1.11567">
        <ele>77.5</ele>
        <time>2014-07-14T17:15:11Z</time>
      </trkpt>
      <trkpt lat="49.00799" lon="1.11573">
        <ele>78.5</ele>
        <time>2014-07-14T17:15:12Z</time>
      </trkpt>
      <trkpt lat="49.00804" lon="1.1158">
        <ele>78.5</ele>
        <time>2014-07-14T17:15:13Z</time>
      </trkpt>
      <trkpt lat="49.00809" lon="1.11587">
        <ele>77.5</ele>
        <time>2014-07-14T17:15:14Z</time>
      </trkpt>
      <trkpt lat="49.00813" lon="1.11594">
        <ele>77.5</ele>
        <time>2014-07-14T17:15:15Z</time>
      </trkpt>
      <trkpt lat="49.00818" lon="1.11599">
        <ele>76.5</ele>
        <time>2014-07-14T17:15:16Z</time>
      </trkpt>
      <trkpt lat="49.00823" lon="1.11605">
        <ele>76.5</ele>
        <time>2014-07-14T17:15:17Z</time>
      </trkpt>
      <trkpt lat="49.00828" lon="1.1161">
        <ele>75.5</ele>
        <time>2014-07-14T17:15:18Z</time>
      </trkpt>
      <trkpt lat="49.00834" lon="1.11614">
        <ele>75.5</ele>
        <time>2014-07-14T17:15:18Z</time>
      </trkpt>
      <trkpt lat="49.00839" lon="1.1162">
        <ele>75.5</ele>
        <time>2014-07-14T17:15:20Z</time>
      </trkpt>
      <trkpt lat="49.00844" lon="1.11622">
        <ele>75.5</ele>
        <time>2014-07-14T17:15:21Z</time>
      </trkpt>
      <trkpt lat="49.0085" lon="1.11627">
        <ele>75.5</ele>
        <time>2014-07-14T17:15:22Z</time>
      </trkpt>
      <trkpt lat="49.00856" lon="1.1163">
        <ele>75.5</ele>
        <time>2014-07-14T17:15:23Z</time>
      </trkpt>
      <trkpt lat="49.00862" lon="1.11633">
        <ele>75.5</ele>
        <time>2014-07-14T17:15:24Z</time>
      </trkpt>
      <trkpt lat="49.00868" lon="1.11636">
        <ele>74.5</ele>
        <time>2014-07-14T17:15:25Z</time>
      </trkpt>
      <trkpt lat="49.00873" lon="1.1164">
        <ele>75.5</ele>
        <time>2014-07-14T17:15:26Z</time>
      </trkpt>
      <trkpt lat="49.00879" lon="1.11643">
        <ele>75.5</ele>
        <time>2014-07-14T17:15:27Z</time>
      </trkpt>
      <trkpt lat="49.00885" lon="1.11647">
        <ele>75.5</ele>
        <time>2014-07-14T17:15:28Z</time>
      </trkpt>
      <trkpt lat="49.00891" lon="1.11652">
        <ele>75.5</ele>
        <time>2014-07-14T17:15:29Z</time>
      </trkpt>
      <trkpt lat="49.00897" lon="1.11656">
        <ele>75.5</ele>
        <time>2014-07-14T17:15:30Z</time>
      </trkpt>
      <trkpt lat="49.00902" lon="1.11659">
        <ele>74.5</ele>
        <time>2014-07-14T17:15:31Z</time>
      </trkpt>
      <trkpt lat="49.00907" lon="1.11662">
        <ele>75.5</ele>
        <time>2014-07-14T17:15:32Z</time>
      </trkpt>
      <trkpt lat="49.00913" lon="1.11666">
        <ele>75.5</ele>
        <time>2014-07-14T17:15:32Z</time>
      </trkpt>
      <trkpt lat="49.00919" lon="1.11669">
        <ele>75.5</ele>
        <time>2014-07-14T17:15:34Z</time>
      </trkpt>
      <trkpt lat="49.00925" lon="1.11672">
        <ele>74.5</ele>
        <time>2014-07-14T17:15:35Z</time>
      </trkpt>
      <trkpt lat="49.0093" lon="1.11675">
        <ele>75.5</ele>
        <time>2014-07-14T17:15:36Z</time>
      </trkpt>
      <trkpt lat="49.00936" lon="1.11678">
        <ele>75.5</ele>
        <time>2014-07-14T17:15:36Z</time>
      </trkpt>
      <trkpt lat="49.00941" lon="1.11682">
        <ele>75.5</ele>
        <time>2014-07-14T17:15:38Z</time>
      </trkpt>
      <trkpt lat="49.00946" lon="1.11686">
        <ele>75.5</ele>
        <time>2014-07-14T17:15:39Z</time>
      </trkpt>
      <trkpt lat="49.00951" lon="1.11687">
        <ele>75.5</ele>
        <time>2014-07-14T17:15:40Z</time>
      </trkpt>
      <trkpt lat="49.00957" lon="1.11691">
        <ele>75.5</ele>
        <time>2014-07-14T17:15:41Z</time>
      </trkpt>
      <trkpt lat="49.00962" lon="1.11695">
        <ele>75.5</ele>
        <time>2014-07-14T17:15:41Z</time>
      </trkpt>
      <trkpt lat="49.00967" lon="1.11696">
        <ele>75.5</ele>
        <time>2014-07-14T17:15:43Z</time>
      </trkpt>
      <trkpt lat="49.00972" lon="1.117">
        <ele>75.5</ele>
        <time>2014-07-14T17:15:44Z</time>
      </trkpt>
      <trkpt lat="49.00979" lon="1.11703">
        <ele>75.5</ele>
        <time>2014-07-14T17:15:45Z</time>
      </trkpt>
      <trkpt lat="49.00985" lon="1.11707">
        <ele>74.5</ele>
        <time>2014-07-14T17:15:46Z</time>
      </trkpt>
      <trkpt lat="49.0099" lon="1.11709">
        <ele>75.5</ele>
        <time>2014-07-14T17:15:47Z</time>
      </trkpt>
      <trkpt lat="49.00996" lon="1.11713">
        <ele>75.5</ele>
        <time>2014-07-14T17:15:48Z</time>
      </trkpt>
      <trkpt lat="49.01001" lon="1.11718">
        <ele>75.5</ele>
        <time>2014-07-14T17:15:49Z</time>
      </trkpt>
      <trkpt lat="49.01007" lon="1.11723">
        <ele>75.5</ele>
        <time>2014-07-14T17:15:50Z</time>
      </trkpt>
      <trkpt lat="49.01012" lon="1.11725">
        <ele>75.5</ele>
        <time>2014-07-14T17:15:51Z</time>
      </trkpt>
      <trkpt lat="49.01017" lon="1.11728">
        <ele>75.5</ele>
        <time>2014-07-14T17:15:52Z</time>
      </trkpt>
      <trkpt lat="49.01023" lon="1.11732">
        <ele>75.5</ele>
        <time>2014-07-14T17:15:53Z</time>
      </trkpt>
      <trkpt lat="49.01029" lon="1.11734">
        <ele>75.5</ele>
        <time>2014-07-14T17:15:54Z</time>
      </trkpt>
      <trkpt lat="49.01033" lon="1.11738">
        <ele>74.5</ele>
        <time>2014-07-14T17:15:55Z</time>
      </trkpt>
      <trkpt lat="49.01039" lon="1.11742">
        <ele>74.5</ele>
        <time>2014-07-14T17:15:56Z</time>
      </trkpt>
      <trkpt lat="49.01043" lon="1.11747">
        <ele>75.5</ele>
        <time>2014-07-14T17:15:57Z</time>
      </trkpt>
      <trkpt lat="49.01048" lon="1.11751">
        <ele>75.5</ele>
        <time>2014-07-14T17:15:58Z</time>
      </trkpt>
      <trkpt lat="49.01054" lon="1.11755">
        <ele>75.5</ele>
        <time>2014-07-14T17:15:58Z</time>
      </trkpt>
      <trkpt lat="49.01059" lon="1.11759">
        <ele>75.5</ele>
        <time>2014-07-14T17:16:00Z</time>
      </trkpt>
      <trkpt lat="49.01065" lon="1.11762">
        <ele>75.5</ele>
        <time>2014-07-14T17:16:01Z</time>
      </trkpt>
      <trkpt lat="49.01071" lon="1.11766">
        <ele>75.5</ele>
        <time>2014-07-14T17:16:02Z</time>
      </trkpt>
      <trkpt lat="49.01077" lon="1.11771">
        <ele>75.5</ele>
        <time>2014-07-14T17:16:03Z</time>
      </trkpt>
      <trkpt lat="49.01081" lon="1.11775">
        <ele>75.5</ele>
        <time>2014-07-14T17:16:04Z</time>
      </trkpt>
      <trkpt lat="49.01087" lon="1.11777">
        <ele>75.5</ele>
        <time>2014-07-14T17:16:05Z</time>
      </trkpt>
      <trkpt lat="49.01092" lon="1.11777">
        <ele>75.5</ele>
        <time>2014-07-14T17:16:06Z</time>
      </trkpt>
      <trkpt lat="49.01097" lon="1.11781">
        <ele>75.5</ele>
        <time>2014-07-14T17:16:07Z</time>
      </trkpt>
      <trkpt lat="49.01104" lon="1.11786">
        <ele>75.5</ele>
        <time>2014-07-14T17:16:08Z</time>
      </trkpt>
      <trkpt lat="49.01109" lon="1.11787">
        <ele>75.5</ele>
        <time>2014-07-14T17:16:09Z</time>
      </trkpt>
      <trkpt lat="49.01114" lon="1.11791">
        <ele>75.5</ele>
        <time>2014-07-14T17:16:10Z</time>
      </trkpt>
      <trkpt lat="49.0112" lon="1.11798">
        <ele>75.5</ele>
        <time>2014-07-14T17:16:11Z</time>
      </trkpt>
      <trkpt lat="49.01127" lon="1.11803">
        <ele>75.5</ele>
        <time>2014-07-14T17:16:12Z</time>
      </trkpt>
      <trkpt lat="49.01133" lon="1.11811">
        <ele>75.5</ele>
        <time>2014-07-14T17:16:13Z</time>
      </trkpt>
      <trkpt lat="49.01138" lon="1.11809">
        <ele>75.5</ele>
        <time>2014-07-14T17:16:14Z</time>
      </trkpt>
      <trkpt lat="49.01145" lon="1.11817">
        <ele>75.5</ele>
        <time>2014-07-14T17:16:15Z</time>
      </trkpt>
      <trkpt lat="49.0115" lon="1.11816">
        <ele>75.5</ele>
        <time>2014-07-14T17:16:16Z</time>
      </trkpt>
      <trkpt lat="49.01156" lon="1.1182">
        <ele>75.5</ele>
        <time>2014-07-14T17:16:17Z</time>
      </trkpt>
      <trkpt lat="49.01161" lon="1.11819">
        <ele>75.5</ele>
        <time>2014-07-14T17:16:18Z</time>
      </trkpt>
      <trkpt lat="49.01167" lon="1.11822">
        <ele>75.5</ele>
        <time>2014-07-14T17:16:19Z</time>
      </trkpt>
      <trkpt lat="49.01172" lon="1.11829">
        <ele>75.5</ele>
        <time>2014-07-14T17:16:20Z</time>
      </trkpt>
      <trkpt lat="49.01178" lon="1.1183">
        <ele>75.5</ele>
        <time>2014-07-14T17:16:21Z</time>
      </trkpt>
      <trkpt lat="49.01183" lon="1.11833">
        <ele>75.5</ele>
        <time>2014-07-14T17:16:22Z</time>
      </trkpt>
      <trkpt lat="49.01189" lon="1.11835">
        <ele>75.5</ele>
        <time>2014-07-14T17:16:22Z</time>
      </trkpt>
      <trkpt lat="49.01194" lon="1.11836">
        <ele>75.5</ele>
        <time>2014-07-14T17:16:24Z</time>
      </trkpt>
      <trkpt lat="49.01199" lon="1.11839">
        <ele>75.5</ele>
        <time>2014-07-14T17:16:25Z</time>
      </trkpt>
      <trkpt lat="49.01205" lon="1.11843">
        <ele>75.5</ele>
        <time>2014-07-14T17:16:26Z</time>
      </trkpt>
      <trkpt lat="49.0121" lon="1.11844">
        <ele>75.5</ele>
        <time>2014-07-14T17:16:27Z</time>
      </trkpt>
      <trkpt lat="49.01215" lon="1.11849">
        <ele>75.5</ele>
        <time>2014-07-14T17:16:28Z</time>
      </trkpt>
      <trkpt lat="49.0122" lon="1.11856">
        <ele>75.5</ele>
        <time>2014-07-14T17:16:29Z</time>
      </trkpt>
      <trkpt lat="49.01226" lon="1.11858">
        <ele>75.5</ele>
        <time>2014-07-14T17:16:30Z</time>
      </trkpt>
      <trkpt lat="49.0123" lon="1.11855">
        <ele>76.5</ele>
        <time>2014-07-14T17:16:31Z</time>
      </trkpt>
      <trkpt lat="49.01235" lon="1.11858">
        <ele>76.5</ele>
        <time>2014-07-14T17:16:32Z</time>
      </trkpt>
      <trkpt lat="49.0124" lon="1.11861">
        <ele>76.5</ele>
        <time>2014-07-14T17:16:33Z</time>
      </trkpt>
      <trkpt lat="49.01246" lon="1.11862">
        <ele>76.5</ele>
        <time>2014-07-14T17:16:34Z</time>
      </trkpt>
      <trkpt lat="49.01251" lon="1.11864">
        <ele>75.5</ele>
        <time>2014-07-14T17:16:35Z</time>
      </trkpt>
      <trkpt lat="49.01257" lon="1.11866">
        <ele>75.5</ele>
        <time>2014-07-14T17:16:36Z</time>
      </trkpt>
      <trkpt lat="49.01262" lon="1.11869">
        <ele>75.5</ele>
        <time>2014-07-14T17:16:37Z</time>
      </trkpt>
      <trkpt lat="49.01267" lon="1.11872">
        <ele>75.5</ele>
        <time>2014-07-14T17:16:38Z</time>
      </trkpt>
      <trkpt lat="49.01272" lon="1.11873">
        <ele>75.5</ele>
        <time>2014-07-14T17:16:39Z</time>
      </trkpt>
      <trkpt lat="49.01277" lon="1.11881">
        <ele>75.5</ele>
        <time>2014-07-14T17:16:40Z</time>
      </trkpt>
      <trkpt lat="49.01282" lon="1.11886">
        <ele>75.5</ele>
        <time>2014-07-14T17:16:41Z</time>
      </trkpt>
      <trkpt lat="49.01288" lon="1.11889">
        <ele>75.5</ele>
        <time>2014-07-14T17:16:42Z</time>
      </trkpt>
      <trkpt lat="49.01293" lon="1.11893">
        <ele>75.5</ele>
        <time>2014-07-14T17:16:43Z</time>
      </trkpt>
      <trkpt lat="49.01299" lon="1.11895">
        <ele>75.5</ele>
        <time>2014-07-14T17:16:44Z</time>
      </trkpt>
      <trkpt lat="49.01308" lon="1.11899">
        <ele>76.5</ele>
        <time>2014-07-14T17:16:46Z</time>
      </trkpt>
      <trkpt lat="49.01313" lon="1.11905">
        <ele>76.5</ele>
        <time>2014-07-14T17:16:47Z</time>
      </trkpt>
      <trkpt lat="49.01318" lon="1.11909">
        <ele>76.5</ele>
        <time>2014-07-14T17:16:48Z</time>
      </trkpt>
      <trkpt lat="49.01324" lon="1.11912">
        <ele>76.5</ele>
        <time>2014-07-14T17:16:49Z</time>
      </trkpt>
      <trkpt lat="49.0133" lon="1.11915">
        <ele>76.5</ele>
        <time>2014-07-14T17:16:50Z</time>
      </trkpt>
      <trkpt lat="49.01335" lon="1.11919">
        <ele>76.5</ele>
        <time>2014-07-14T17:16:51Z</time>
      </trkpt>
      <trkpt lat="49.0134" lon="1.11919">
        <ele>76.5</ele>
        <time>2014-07-14T17:16:51Z</time>
      </trkpt>
      <trkpt lat="49.01349" lon="1.11921">
        <ele>77.5</ele>
        <time>2014-07-14T17:16:54Z</time>
      </trkpt>
      <trkpt lat="49.01355" lon="1.11929">
        <ele>77.5</ele>
        <time>2014-07-14T17:16:55Z</time>
      </trkpt>
      <trkpt lat="49.0136" lon="1.11935">
        <ele>76.5</ele>
        <time>2014-07-14T17:16:56Z</time>
      </trkpt>
      <trkpt lat="49.01366" lon="1.11936">
        <ele>76.5</ele>
        <time>2014-07-14T17:16:57Z</time>
      </trkpt>
      <trkpt lat="49.01371" lon="1.11939">
        <ele>76.5</ele>
        <time>2014-07-14T17:16:58Z</time>
      </trkpt>
      <trkpt lat="49.01377" lon="1.11944">
        <ele>76.5</ele>
        <time>2014-07-14T17:16:59Z</time>
      </trkpt>
      <trkpt lat="49.01382" lon="1.11945">
        <ele>76.5</ele>
        <time>2014-07-14T17:17:00Z</time>
      </trkpt>
      <trkpt lat="49.01388" lon="1.11948">
        <ele>76.5</ele>
        <time>2014-07-14T17:17:01Z</time>
      </trkpt>
      <trkpt lat="49.01393" lon="1.11949">
        <ele>76.5</ele>
        <time>2014-07-14T17:17:02Z</time>
      </trkpt>
      <trkpt lat="49.01403" lon="1.1195">
        <ele>76.5</ele>
        <time>2014-07-14T17:17:04Z</time>
      </trkpt>
      <trkpt lat="49.01408" lon="1.11955">
        <ele>76.5</ele>
        <time>2014-07-14T17:17:05Z</time>
      </trkpt>
      <trkpt lat="49.01414" lon="1.11959">
        <ele>76.5</ele>
        <time>2014-07-14T17:17:06Z</time>
      </trkpt>
      <trkpt lat="49.01419" lon="1.11961">
        <ele>76.5</ele>
        <time>2014-07-14T17:17:07Z</time>
      </trkpt>
      <trkpt lat="49.01425" lon="1.11968">
        <ele>76.5</ele>
        <time>2014-07-14T17:17:08Z</time>
      </trkpt>
      <trkpt lat="49.01431" lon="1.11969">
        <ele>76.5</ele>
        <time>2014-07-14T17:17:09Z</time>
      </trkpt>
      <trkpt lat="49.01437" lon="1.11971">
        <ele>76.5</ele>
        <time>2014-07-14T17:17:10Z</time>
      </trkpt>
      <trkpt lat="49.01443" lon="1.11972">
        <ele>76.5</ele>
        <time>2014-07-14T17:17:11Z</time>
      </trkpt>
      <trkpt lat="49.01449" lon="1.11975">
        <ele>76.5</ele>
        <time>2014-07-14T17:17:12Z</time>
      </trkpt>
      <trkpt lat="49.01455" lon="1.11979">
        <ele>76.5</ele>
        <time>2014-07-14T17:17:12Z</time>
      </trkpt>
      <trkpt lat="49.01463" lon="1.11987">
        <ele>74.5</ele>
        <time>2014-07-14T17:17:14Z</time>
      </trkpt>
      <trkpt lat="49.01468" lon="1.11992">
        <ele>74.5</ele>
        <time>2014-07-14T17:17:15Z</time>
      </trkpt>
      <trkpt lat="49.01473" lon="1.12">
        <ele>74.5</ele>
        <time>2014-07-14T17:17:16Z</time>
      </trkpt>
      <trkpt lat="49.01478" lon="1.12008">
        <ele>73.5</ele>
        <time>2014-07-14T17:17:17Z</time>
      </trkpt>
      <trkpt lat="49.01482" lon="1.12014">
        <ele>74.5</ele>
        <time>2014-07-14T17:17:18Z</time>
      </trkpt>
      <trkpt lat="49.01487" lon="1.1202">
        <ele>74.5</ele>
        <time>2014-07-14T17:17:19Z</time>
      </trkpt>
      <trkpt lat="49.01492" lon="1.12027">
        <ele>74.5</ele>
        <time>2014-07-14T17:17:20Z</time>
      </trkpt>
      <trkpt lat="49.01496" lon="1.12034">
        <ele>74.5</ele>
        <time>2014-07-14T17:17:21Z</time>
      </trkpt>
      <trkpt lat="49.01501" lon="1.12042">
        <ele>73.5</ele>
        <time>2014-07-14T17:17:22Z</time>
      </trkpt>
      <trkpt lat="49.01506" lon="1.12048">
        <ele>73.5</ele>
        <time>2014-07-14T17:17:23Z</time>
      </trkpt>
      <trkpt lat="49.01511" lon="1.12054">
        <ele>73.5</ele>
        <time>2014-07-14T17:17:24Z</time>
      </trkpt>
      <trkpt lat="49.01516" lon="1.12061">
        <ele>73.5</ele>
        <time>2014-07-14T17:17:25Z</time>
      </trkpt>
      <trkpt lat="49.0152" lon="1.12068">
        <ele>73.5</ele>
        <time>2014-07-14T17:17:26Z</time>
      </trkpt>
      <trkpt lat="49.01525" lon="1.12075">
        <ele>74.5</ele>
        <time>2014-07-14T17:17:27Z</time>
      </trkpt>
      <trkpt lat="49.01529" lon="1.12081">
        <ele>72.5</ele>
        <time>2014-07-14T17:17:28Z</time>
      </trkpt>
      <trkpt lat="49.01534" lon="1.12087">
        <ele>73.5</ele>
        <time>2014-07-14T17:17:29Z</time>
      </trkpt>
      <trkpt lat="49.01539" lon="1.12094">
        <ele>73.5</ele>
        <time>2014-07-14T17:17:30Z</time>
      </trkpt>
      <trkpt lat="49.01543" lon="1.12102">
        <ele>73.5</ele>
        <time>2014-07-14T17:17:31Z</time>
      </trkpt>
      <trkpt lat="49.01549" lon="1.12106">
        <ele>72.5</ele>
        <time>2014-07-14T17:17:32Z</time>
      </trkpt>
      <trkpt lat="49.01554" lon="1.12112">
        <ele>72.5</ele>
        <time>2014-07-14T17:17:33Z</time>
      </trkpt>
      <trkpt lat="49.01557" lon="1.12119">
        <ele>72.5</ele>
        <time>2014-07-14T17:17:34Z</time>
      </trkpt>
      <trkpt lat="49.0156" lon="1.12125">
        <ele>73.5</ele>
        <time>2014-07-14T17:17:35Z</time>
      </trkpt>
      <trkpt lat="49.01564" lon="1.12132">
        <ele>73.5</ele>
        <time>2014-07-14T17:17:36Z</time>
      </trkpt>
      <trkpt lat="49.01569" lon="1.12139">
        <ele>73.5</ele>
        <time>2014-07-14T17:17:37Z</time>
      </trkpt>
      <trkpt lat="49.01573" lon="1.12145">
        <ele>73.5</ele>
        <time>2014-07-14T17:17:37Z</time>
      </trkpt>
      <trkpt lat="49.01577" lon="1.12151">
        <ele>73.5</ele>
        <time>2014-07-14T17:17:39Z</time>
      </trkpt>
      <trkpt lat="49.01582" lon="1.12157">
        <ele>73.5</ele>
        <time>2014-07-14T17:17:40Z</time>
      </trkpt>
      <trkpt lat="49.01586" lon="1.12164">
        <ele>73.5</ele>
        <time>2014-07-14T17:17:41Z</time>
      </trkpt>
      <trkpt lat="49.0159" lon="1.1217">
        <ele>73.5</ele>
        <time>2014-07-14T17:17:42Z</time>
      </trkpt>
      <trkpt lat="49.01594" lon="1.12177">
        <ele>73.5</ele>
        <time>2014-07-14T17:17:43Z</time>
      </trkpt>
      <trkpt lat="49.01598" lon="1.12184">
        <ele>72.5</ele>
        <time>2014-07-14T17:17:44Z</time>
      </trkpt>
      <trkpt lat="49.01602" lon="1.1219">
        <ele>72.5</ele>
        <time>2014-07-14T17:17:45Z</time>
      </trkpt>
      <trkpt lat="49.01606" lon="1.12196">
        <ele>72.5</ele>
        <time>2014-07-14T17:17:46Z</time>
      </trkpt>
      <trkpt lat="49.0161" lon="1.12203">
        <ele>73.5</ele>
        <time>2014-07-14T17:17:47Z</time>
      </trkpt>
      <trkpt lat="49.01614" lon="1.12209">
        <ele>72.5</ele>
        <time>2014-07-14T17:17:48Z</time>
      </trkpt>
      <trkpt lat="49.01617" lon="1.12216">
        <ele>72.5</ele>
        <time>2014-07-14T17:17:49Z</time>
      </trkpt>
      <trkpt lat="49.0162" lon="1.12221">
        <ele>73.5</ele>
        <time>2014-07-14T17:17:50Z</time>
      </trkpt>
      <trkpt lat="49.01625" lon="1.12228">
        <ele>73.5</ele>
        <time>2014-07-14T17:17:51Z</time>
      </trkpt>
      <trkpt lat="49.01629" lon="1.12233">
        <ele>73.5</ele>
        <time>2014-07-14T17:17:52Z</time>
      </trkpt>
      <trkpt lat="49.01635" lon="1.12245">
        <ele>71.5</ele>
        <time>2014-07-14T17:17:53Z</time>
      </trkpt>
      <trkpt lat="49.01639" lon="1.12251">
        <ele>71.5</ele>
        <time>2014-07-14T17:17:54Z</time>
      </trkpt>
      <trkpt lat="49.01643" lon="1.12258">
        <ele>70.5</ele>
        <time>2014-07-14T17:17:55Z</time>
      </trkpt>
      <trkpt lat="49.01645" lon="1.12264">
        <ele>71.5</ele>
        <time>2014-07-14T17:17:56Z</time>
      </trkpt>
      <trkpt lat="49.01652" lon="1.12266">
        <ele>72.5</ele>
        <time>2014-07-14T17:17:57Z</time>
      </trkpt>
      <trkpt lat="49.01659" lon="1.12266">
        <ele>71.5</ele>
        <time>2014-07-14T17:17:58Z</time>
      </trkpt>
      <trkpt lat="49.01662" lon="1.12272">
        <ele>71.5</ele>
        <time>2014-07-14T17:17:59Z</time>
      </trkpt>
      <trkpt lat="49.01666" lon="1.12277">
        <ele>72.5</ele>
        <time>2014-07-14T17:18:00Z</time>
      </trkpt>
      <trkpt lat="49.01669" lon="1.12283">
        <ele>71.5</ele>
        <time>2014-07-14T17:18:01Z</time>
      </trkpt>
      <trkpt lat="49.01671" lon="1.1229">
        <ele>71.5</ele>
        <time>2014-07-14T17:18:02Z</time>
      </trkpt>
      <trkpt lat="49.01671" lon="1.12298">
        <ele>72.5</ele>
        <time>2014-07-14T17:18:02Z</time>
      </trkpt>
      <trkpt lat="49.01675" lon="1.12304">
        <ele>71.5</ele>
        <time>2014-07-14T17:18:04Z</time>
      </trkpt>
      <trkpt lat="49.01679" lon="1.12309">
        <ele>70.5</ele>
        <time>2014-07-14T17:18:05Z</time>
      </trkpt>
      <trkpt lat="49.01684" lon="1.12317">
        <ele>71.5</ele>
        <time>2014-07-14T17:18:06Z</time>
      </trkpt>
      <trkpt lat="49.01689" lon="1.12324">
        <ele>70.5</ele>
        <time>2014-07-14T17:18:07Z</time>
      </trkpt>
      <trkpt lat="49.01694" lon="1.12331">
        <ele>70.5</ele>
        <time>2014-07-14T17:18:08Z</time>
      </trkpt>
      <trkpt lat="49.01699" lon="1.12338">
        <ele>70.5</ele>
        <time>2014-07-14T17:18:09Z</time>
      </trkpt>
      <trkpt lat="49.01703" lon="1.12346">
        <ele>70.5</ele>
        <time>2014-07-14T17:18:10Z</time>
      </trkpt>
      <trkpt lat="49.01707" lon="1.12353">
        <ele>70.5</ele>
        <time>2014-07-14T17:18:11Z</time>
      </trkpt>
      <trkpt lat="49.01711" lon="1.12359">
        <ele>70.5</ele>
        <time>2014-07-14T17:18:11Z</time>
      </trkpt>
      <trkpt lat="49.01716" lon="1.12365">
        <ele>70.5</ele>
        <time>2014-07-14T17:18:13Z</time>
      </trkpt>
      <trkpt lat="49.01722" lon="1.12365">
        <ele>69.5</ele>
        <time>2014-07-14T17:18:14Z</time>
      </trkpt>
      <trkpt lat="49.01726" lon="1.12369">
        <ele>69.5</ele>
        <time>2014-07-14T17:18:15Z</time>
      </trkpt>
      <trkpt lat="49.01731" lon="1.12372">
        <ele>69.5</ele>
        <time>2014-07-14T17:18:15Z</time>
      </trkpt>
      <trkpt lat="49.01735" lon="1.1238">
        <ele>70.5</ele>
        <time>2014-07-14T17:18:17Z</time>
      </trkpt>
      <trkpt lat="49.01741" lon="1.12388">
        <ele>70.5</ele>
        <time>2014-07-14T17:18:17Z</time>
      </trkpt>
      <trkpt lat="49.01745" lon="1.12396">
        <ele>70.5</ele>
        <time>2014-07-14T17:18:19Z</time>
      </trkpt>
      <trkpt lat="49.01749" lon="1.124">
        <ele>70.5</ele>
        <time>2014-07-14T17:18:20Z</time>
      </trkpt>
      <trkpt lat="49.01754" lon="1.12407">
        <ele>70.5</ele>
        <time>2014-07-14T17:18:21Z</time>
      </trkpt>
      <trkpt lat="49.01758" lon="1.12412">
        <ele>70.5</ele>
        <time>2014-07-14T17:18:22Z</time>
      </trkpt>
      <trkpt lat="49.01762" lon="1.12419">
        <ele>70.5</ele>
        <time>2014-07-14T17:18:23Z</time>
      </trkpt>
      <trkpt lat="49.01766" lon="1.12425">
        <ele>70.5</ele>
        <time>2014-07-14T17:18:24Z</time>
      </trkpt>
      <trkpt lat="49.0177" lon="1.1243">
        <ele>70.5</ele>
        <time>2014-07-14T17:18:25Z</time>
      </trkpt>
      <trkpt lat="49.01775" lon="1.12436">
        <ele>70.5</ele>
        <time>2014-07-14T17:18:26Z</time>
      </trkpt>
      <trkpt lat="49.01779" lon="1.12443">
        <ele>70.5</ele>
        <time>2014-07-14T17:18:26Z</time>
      </trkpt>
      <trkpt lat="49.01783" lon="1.1245">
        <ele>71.5</ele>
        <time>2014-07-14T17:18:28Z</time>
      </trkpt>
      <trkpt lat="49.01787" lon="1.12456">
        <ele>71.5</ele>
        <time>2014-07-14T17:18:29Z</time>
      </trkpt>
      <trkpt lat="49.01792" lon="1.12465">
        <ele>70.5</ele>
        <time>2014-07-14T17:18:30Z</time>
      </trkpt>
      <trkpt lat="49.01796" lon="1.12471">
        <ele>71.5</ele>
        <time>2014-07-14T17:18:31Z</time>
      </trkpt>
      <trkpt lat="49.01799" lon="1.12477">
        <ele>71.5</ele>
        <time>2014-07-14T17:18:32Z</time>
      </trkpt>
      <trkpt lat="49.01802" lon="1.12485">
        <ele>71.5</ele>
        <time>2014-07-14T17:18:33Z</time>
      </trkpt>
      <trkpt lat="49.01804" lon="1.12493">
        <ele>71.5</ele>
        <time>2014-07-14T17:18:34Z</time>
      </trkpt>
      <trkpt lat="49.01807" lon="1.12499">
        <ele>72.5</ele>
        <time>2014-07-14T17:18:35Z</time>
      </trkpt>
      <trkpt lat="49.0181" lon="1.12508">
        <ele>72.5</ele>
        <time>2014-07-14T17:18:36Z</time>
      </trkpt>
      <trkpt lat="49.01813" lon="1.12515">
        <ele>72.5</ele>
        <time>2014-07-14T17:18:37Z</time>
      </trkpt>
      <trkpt lat="49.01817" lon="1.12521">
        <ele>71.5</ele>
        <time>2014-07-14T17:18:38Z</time>
      </trkpt>
      <trkpt lat="49.0182" lon="1.12527">
        <ele>72.5</ele>
        <time>2014-07-14T17:18:39Z</time>
      </trkpt>
      <trkpt lat="49.01823" lon="1.12535">
        <ele>72.5</ele>
        <time>2014-07-14T17:18:40Z</time>
      </trkpt>
      <trkpt lat="49.01825" lon="1.12541">
        <ele>72.5</ele>
        <time>2014-07-14T17:18:41Z</time>
      </trkpt>
      <trkpt lat="49.01828" lon="1.12549">
        <ele>71.5</ele>
        <time>2014-07-14T17:18:42Z</time>
      </trkpt>
      <trkpt lat="49.0183" lon="1.12556">
        <ele>71.5</ele>
        <time>2014-07-14T17:18:43Z</time>
      </trkpt>
      <trkpt lat="49.01834" lon="1.12563">
        <ele>71.5</ele>
        <time>2014-07-14T17:18:44Z</time>
      </trkpt>
      <trkpt lat="49.01836" lon="1.1257">
        <ele>71.5</ele>
        <time>2014-07-14T17:18:45Z</time>
      </trkpt>
      <trkpt lat="49.01837" lon="1.12579">
        <ele>71.5</ele>
        <time>2014-07-14T17:18:46Z</time>
      </trkpt>
      <trkpt lat="49.0184" lon="1.12587">
        <ele>71.5</ele>
        <time>2014-07-14T17:18:47Z</time>
      </trkpt>
      <trkpt lat="49.01843" lon="1.12596">
        <ele>71.5</ele>
        <time>2014-07-14T17:18:48Z</time>
      </trkpt>
      <trkpt lat="49.01845" lon="1.12605">
        <ele>72.5</ele>
        <time>2014-07-14T17:18:49Z</time>
      </trkpt>
      <trkpt lat="49.01848" lon="1.12615">
        <ele>71.5</ele>
        <time>2014-07-14T17:18:50Z</time>
      </trkpt>
      <trkpt lat="49.0185" lon="1.12623">
        <ele>72.5</ele>
        <time>2014-07-14T17:18:51Z</time>
      </trkpt>
      <trkpt lat="49.01852" lon="1.12631">
        <ele>71.5</ele>
        <time>2014-07-14T17:18:52Z</time>
      </trkpt>
      <trkpt lat="49.01858" lon="1.12646">
        <ele>72.5</ele>
        <time>2014-07-14T17:18:54Z</time>
      </trkpt>
      <trkpt lat="49.01862" lon="1.12653">
        <ele>71.5</ele>
        <time>2014-07-14T17:18:55Z</time>
      </trkpt>
      <trkpt lat="49.01862" lon="1.12663">
        <ele>72.5</ele>
        <time>2014-07-14T17:18:56Z</time>
      </trkpt>
      <trkpt lat="49.01864" lon="1.1267">
        <ele>72.5</ele>
        <time>2014-07-14T17:18:57Z</time>
      </trkpt>
      <trkpt lat="49.01867" lon="1.12678">
        <ele>72.5</ele>
        <time>2014-07-14T17:18:58Z</time>
      </trkpt>
      <trkpt lat="49.01868" lon="1.12687">
        <ele>72.5</ele>
        <time>2014-07-14T17:18:58Z</time>
      </trkpt>
      <trkpt lat="49.0187" lon="1.12695">
        <ele>72.5</ele>
        <time>2014-07-14T17:19:00Z</time>
      </trkpt>
      <trkpt lat="49.01872" lon="1.12704">
        <ele>72.5</ele>
        <time>2014-07-14T17:19:01Z</time>
      </trkpt>
      <trkpt lat="49.01874" lon="1.12712">
        <ele>72.5</ele>
        <time>2014-07-14T17:19:02Z</time>
      </trkpt>
      <trkpt lat="49.01877" lon="1.12719">
        <ele>72.5</ele>
        <time>2014-07-14T17:19:03Z</time>
      </trkpt>
      <trkpt lat="49.01878" lon="1.12728">
        <ele>72.5</ele>
        <time>2014-07-14T17:19:04Z</time>
      </trkpt>
      <trkpt lat="49.0188" lon="1.12736">
        <ele>72.5</ele>
        <time>2014-07-14T17:19:05Z</time>
      </trkpt>
      <trkpt lat="49.01883" lon="1.12744">
        <ele>72.5</ele>
        <time>2014-07-14T17:19:06Z</time>
      </trkpt>
      <trkpt lat="49.01885" lon="1.12752">
        <ele>72.5</ele>
        <time>2014-07-14T17:19:07Z</time>
      </trkpt>
      <trkpt lat="49.01886" lon="1.12764">
        <ele>71.5</ele>
        <time>2014-07-14T17:19:08Z</time>
      </trkpt>
      <trkpt lat="49.01888" lon="1.12773">
        <ele>71.5</ele>
        <time>2014-07-14T17:19:09Z</time>
      </trkpt>
      <trkpt lat="49.0189" lon="1.12782">
        <ele>70.5</ele>
        <time>2014-07-14T17:19:10Z</time>
      </trkpt>
      <trkpt lat="49.01892" lon="1.12791">
        <ele>70.5</ele>
        <time>2014-07-14T17:19:11Z</time>
      </trkpt>
      <trkpt lat="49.01893" lon="1.12799">
        <ele>70.5</ele>
        <time>2014-07-14T17:19:12Z</time>
      </trkpt>
      <trkpt lat="49.01895" lon="1.12808">
        <ele>69.5</ele>
        <time>2014-07-14T17:19:13Z</time>
      </trkpt>
      <trkpt lat="49.01896" lon="1.12817">
        <ele>69.5</ele>
        <time>2014-07-14T17:19:14Z</time>
      </trkpt>
      <trkpt lat="49.01898" lon="1.12825">
        <ele>69.5</ele>
        <time>2014-07-14T17:19:15Z</time>
      </trkpt>
      <trkpt lat="49.019" lon="1.12834">
        <ele>69.5</ele>
        <time>2014-07-14T17:19:16Z</time>
      </trkpt>
      <trkpt lat="49.01902" lon="1.12842">
        <ele>69.5</ele>
        <time>2014-07-14T17:19:17Z</time>
      </trkpt>
      <trkpt lat="49.01902" lon="1.12849">
        <ele>69.5</ele>
        <time>2014-07-14T17:19:17Z</time>
      </trkpt>
      <trkpt lat="49.01904" lon="1.12857">
        <ele>69.5</ele>
        <time>2014-07-14T17:19:19Z</time>
      </trkpt>
      <trkpt lat="49.01905" lon="1.12865">
        <ele>69.5</ele>
        <time>2014-07-14T17:19:19Z</time>
      </trkpt>
      <trkpt lat="49.01906" lon="1.12873">
        <ele>70.5</ele>
        <time>2014-07-14T17:19:21Z</time>
      </trkpt>
      <trkpt lat="49.01908" lon="1.12881">
        <ele>70.5</ele>
        <time>2014-07-14T17:19:22Z</time>
      </trkpt>
      <trkpt lat="49.01909" lon="1.12889">
        <ele>69.5</ele>
        <time>2014-07-14T17:19:23Z</time>
      </trkpt>
      <trkpt lat="49.01912" lon="1.12894">
        <ele>69.5</ele>
        <time>2014-07-14T17:19:24Z</time>
      </trkpt>
      <trkpt lat="49.01912" lon="1.12903">
        <ele>70.5</ele>
        <time>2014-07-14T17:19:25Z</time>
      </trkpt>
      <trkpt lat="49.01912" lon="1.12913">
        <ele>70.5</ele>
        <time>2014-07-14T17:19:26Z</time>
      </trkpt>
      <trkpt lat="49.01914" lon="1.12922">
        <ele>70.5</ele>
        <time>2014-07-14T17:19:27Z</time>
      </trkpt>
      <trkpt lat="49.01914" lon="1.12943">
        <ele>68.5</ele>
        <time>2014-07-14T17:19:28Z</time>
      </trkpt>
      <trkpt lat="49.01918" lon="1.12956">
        <ele>68.5</ele>
        <time>2014-07-14T17:19:30Z</time>
      </trkpt>
      <trkpt lat="49.0192" lon="1.12963">
        <ele>69.5</ele>
        <time>2014-07-14T17:19:31Z</time>
      </trkpt>
      <trkpt lat="49.01926" lon="1.12961">
        <ele>69.5</ele>
        <time>2014-07-14T17:19:32Z</time>
      </trkpt>
      <trkpt lat="49.01931" lon="1.12953">
        <ele>70.5</ele>
        <time>2014-07-14T17:19:34Z</time>
      </trkpt>
      <trkpt lat="49.01935" lon="1.12946">
        <ele>71.5</ele>
        <time>2014-07-14T17:19:35Z</time>
      </trkpt>
      <trkpt lat="49.01942" lon="1.12941">
        <ele>71.5</ele>
        <time>2014-07-14T17:19:37Z</time>
      </trkpt>
      <trkpt lat="49.01946" lon="1.12937">
        <ele>72.5</ele>
        <time>2014-07-14T17:19:39Z</time>
      </trkpt>
      <trkpt lat="49.01953" lon="1.12932">
        <ele>72.5</ele>
        <time>2014-07-14T17:19:41Z</time>
      </trkpt>
      <trkpt lat="49.01957" lon="1.12929">
        <ele>72.5</ele>
        <time>2014-07-14T17:19:42Z</time>
      </trkpt>
      <trkpt lat="49.01965" lon="1.12923">
        <ele>72.5</ele>
        <time>2014-07-14T17:19:44Z</time>
      </trkpt>
      <trkpt lat="49.01971" lon="1.12919">
        <ele>72.5</ele>
        <time>2014-07-14T17:19:46Z</time>
      </trkpt>
      <trkpt lat="49.01975" lon="1.12914">
        <ele>72.5</ele>
        <time>2014-07-14T17:19:47Z</time>
      </trkpt>
      <trkpt lat="49.01981" lon="1.1291">
        <ele>72.5</ele>
        <time>2014-07-14T17:19:48Z</time>
      </trkpt>
      <trkpt lat="49.01985" lon="1.12906">
        <ele>73.5</ele>
        <time>2014-07-14T17:19:49Z</time>
      </trkpt>
      <trkpt lat="49.0199" lon="1.12902">
        <ele>72.5</ele>
        <time>2014-07-14T17:19:50Z</time>
      </trkpt>
      <trkpt lat="49.01994" lon="1.12897">
        <ele>72.5</ele>
        <time>2014-07-14T17:19:51Z</time>
      </trkpt>
      <trkpt lat="49.01998" lon="1.12894">
        <ele>72.5</ele>
        <time>2014-07-14T17:19:52Z</time>
      </trkpt>
      <trkpt lat="49.02002" lon="1.12898">
        <ele>72.5</ele>
        <time>2014-07-14T17:19:53Z</time>
      </trkpt>
      <trkpt lat="49.0201" lon="1.12894">
        <ele>72.5</ele>
        <time>2014-07-14T17:19:55Z</time>
      </trkpt>
      <trkpt lat="49.02016" lon="1.12887">
        <ele>72.5</ele>
        <time>2014-07-14T17:19:57Z</time>
      </trkpt>
      <trkpt lat="49.02022" lon="1.12883">
        <ele>74.5</ele>
        <time>2014-07-14T17:19:59Z</time>
      </trkpt>
      <trkpt lat="49.02032" lon="1.12878">
        <ele>73.5</ele>
        <time>2014-07-14T17:20:01Z</time>
      </trkpt>
      <trkpt lat="49.02036" lon="1.12875">
        <ele>73.5</ele>
        <time>2014-07-14T17:20:02Z</time>
      </trkpt>
      <trkpt lat="49.02041" lon="1.12871">
        <ele>74.5</ele>
        <time>2014-07-14T17:20:03Z</time>
      </trkpt>
      <trkpt lat="49.02048" lon="1.12861">
        <ele>74.5</ele>
        <time>2014-07-14T17:20:05Z</time>
      </trkpt>
      <trkpt lat="49.02054" lon="1.12856">
        <ele>73.5</ele>
        <time>2014-07-14T17:20:06Z</time>
      </trkpt>
      <trkpt lat="49.0206" lon="1.1285">
        <ele>74.5</ele>
        <time>2014-07-14T17:20:07Z</time>
      </trkpt>
      <trkpt lat="49.02064" lon="1.12844">
        <ele>74.5</ele>
        <time>2014-07-14T17:20:08Z</time>
      </trkpt>
      <trkpt lat="49.0207" lon="1.12842">
        <ele>74.5</ele>
        <time>2014-07-14T17:20:09Z</time>
      </trkpt>
      <trkpt lat="49.02074" lon="1.12837">
        <ele>74.5</ele>
        <time>2014-07-14T17:20:10Z</time>
      </trkpt>
      <trkpt lat="49.02077" lon="1.12831">
        <ele>74.5</ele>
        <time>2014-07-14T17:20:11Z</time>
      </trkpt>
      <trkpt lat="49.02082" lon="1.12826">
        <ele>74.5</ele>
        <time>2014-07-14T17:20:12Z</time>
      </trkpt>
      <trkpt lat="49.02085" lon="1.12819">
        <ele>74.5</ele>
        <time>2014-07-14T17:20:13Z</time>
      </trkpt>
      <trkpt lat="49.02089" lon="1.12813">
        <ele>74.5</ele>
        <time>2014-07-14T17:20:14Z</time>
      </trkpt>
      <trkpt lat="49.02094" lon="1.1281">
        <ele>74.5</ele>
        <time>2014-07-14T17:20:15Z</time>
      </trkpt>
      <trkpt lat="49.02099" lon="1.12806">
        <ele>74.5</ele>
        <time>2014-07-14T17:20:16Z</time>
      </trkpt>
      <trkpt lat="49.02107" lon="1.12798">
        <ele>74.5</ele>
        <time>2014-07-14T17:20:18Z</time>
      </trkpt>
      <trkpt lat="49.02114" lon="1.1279">
        <ele>74.5</ele>
        <time>2014-07-14T17:20:20Z</time>
      </trkpt>
      <trkpt lat="49.02118" lon="1.12786">
        <ele>74.5</ele>
        <time>2014-07-14T17:20:21Z</time>
      </trkpt>
      <trkpt lat="49.02122" lon="1.1278">
        <ele>74.5</ele>
        <time>2014-07-14T17:20:21Z</time>
      </trkpt>
      <trkpt lat="49.02127" lon="1.12775">
        <ele>74.5</ele>
        <time>2014-07-14T17:20:23Z</time>
      </trkpt>
      <trkpt lat="49.02132" lon="1.1277">
        <ele>73.5</ele>
        <time>2014-07-14T17:20:24Z</time>
      </trkpt>
      <trkpt lat="49.02135" lon="1.12765">
        <ele>74.5</ele>
        <time>2014-07-14T17:20:25Z</time>
      </trkpt>
      <trkpt lat="49.02139" lon="1.1276">
        <ele>74.5</ele>
        <time>2014-07-14T17:20:26Z</time>
      </trkpt>
      <trkpt lat="49.02142" lon="1.12754">
        <ele>74.5</ele>
        <time>2014-07-14T17:20:27Z</time>
      </trkpt>
      <trkpt lat="49.02146" lon="1.12748">
        <ele>74.5</ele>
        <time>2014-07-14T17:20:28Z</time>
      </trkpt>
      <trkpt lat="49.02148" lon="1.12741">
        <ele>74.5</ele>
        <time>2014-07-14T17:20:29Z</time>
      </trkpt>
      <trkpt lat="49.02153" lon="1.12736">
        <ele>74.5</ele>
        <time>2014-07-14T17:20:30Z</time>
      </trkpt>
      <trkpt lat="49.02155" lon="1.1273">
        <ele>73.5</ele>
        <time>2014-07-14T17:20:31Z</time>
      </trkpt>
      <trkpt lat="49.02158" lon="1.12724">
        <ele>73.5</ele>
        <time>2014-07-14T17:20:32Z</time>
      </trkpt>
      <trkpt lat="49.02162" lon="1.12717">
        <ele>73.5</ele>
        <time>2014-07-14T17:20:33Z</time>
      </trkpt>
      <trkpt lat="49.02166" lon="1.12712">
        <ele>74.5</ele>
        <time>2014-07-14T17:20:34Z</time>
      </trkpt>
      <trkpt lat="49.02172" lon="1.12701">
        <ele>73.5</ele>
        <time>2014-07-14T17:20:36Z</time>
      </trkpt>
      <trkpt lat="49.02172" lon="1.12694">
        <ele>73.5</ele>
        <time>2014-07-14T17:20:37Z</time>
      </trkpt>
      <trkpt lat="49.02176" lon="1.12687">
        <ele>73.5</ele>
        <time>2014-07-14T17:20:38Z</time>
      </trkpt>
      <trkpt lat="49.02183" lon="1.12677">
        <ele>73.5</ele>
        <time>2014-07-14T17:20:40Z</time>
      </trkpt>
      <trkpt lat="49.02186" lon="1.12668">
        <ele>73.5</ele>
        <time>2014-07-14T17:20:41Z</time>
      </trkpt>
      <trkpt lat="49.02192" lon="1.12666">
        <ele>73.5</ele>
        <time>2014-07-14T17:20:42Z</time>
      </trkpt>
      <trkpt lat="49.02196" lon="1.1266">
        <ele>73.5</ele>
        <time>2014-07-14T17:20:43Z</time>
      </trkpt>
      <trkpt lat="49.02201" lon="1.12653">
        <ele>73.5</ele>
        <time>2014-07-14T17:20:44Z</time>
      </trkpt>
      <trkpt lat="49.02209" lon="1.1265">
        <ele>73.5</ele>
        <time>2014-07-14T17:20:45Z</time>
      </trkpt>
      <trkpt lat="49.02212" lon="1.12637">
        <ele>73.5</ele>
        <time>2014-07-14T17:20:47Z</time>
      </trkpt>
      <trkpt lat="49.02216" lon="1.12632">
        <ele>73.5</ele>
        <time>2014-07-14T17:20:48Z</time>
      </trkpt>
      <trkpt lat="49.0222" lon="1.12626">
        <ele>73.5</ele>
        <time>2014-07-14T17:20:49Z</time>
      </trkpt>
      <trkpt lat="49.02223" lon="1.1262">
        <ele>73.5</ele>
        <time>2014-07-14T17:20:50Z</time>
      </trkpt>
      <trkpt lat="49.02226" lon="1.12613">
        <ele>73.5</ele>
        <time>2014-07-14T17:20:51Z</time>
      </trkpt>
      <trkpt lat="49.02232" lon="1.12603">
        <ele>73.5</ele>
        <time>2014-07-14T17:20:53Z</time>
      </trkpt>
      <trkpt lat="49.02236" lon="1.12598">
        <ele>73.5</ele>
        <time>2014-07-14T17:20:54Z</time>
      </trkpt>
      <trkpt lat="49.02239" lon="1.12592">
        <ele>73.5</ele>
        <time>2014-07-14T17:20:55Z</time>
      </trkpt>
      <trkpt lat="49.02243" lon="1.12587">
        <ele>73.5</ele>
        <time>2014-07-14T17:20:56Z</time>
      </trkpt>
      <trkpt lat="49.02247" lon="1.12583">
        <ele>73.5</ele>
        <time>2014-07-14T17:20:57Z</time>
      </trkpt>
      <trkpt lat="49.02251" lon="1.12579">
        <ele>73.5</ele>
        <time>2014-07-14T17:20:58Z</time>
      </trkpt>
      <trkpt lat="49.02258" lon="1.12569">
        <ele>74.5</ele>
        <time>2014-07-14T17:21:00Z</time>
      </trkpt>
      <trkpt lat="49.02269" lon="1.12561">
        <ele>74.5</ele>
        <time>2014-07-14T17:21:02Z</time>
      </trkpt>
      <trkpt lat="49.02275" lon="1.12554">
        <ele>74.5</ele>
        <time>2014-07-14T17:21:03Z</time>
      </trkpt>
      <trkpt lat="49.02279" lon="1.12545">
        <ele>73.5</ele>
        <time>2014-07-14T17:21:05Z</time>
      </trkpt>
      <trkpt lat="49.02283" lon="1.1253">
        <ele>73.5</ele>
        <time>2014-07-14T17:21:07Z</time>
      </trkpt>
      <trkpt lat="49.02286" lon="1.12519">
        <ele>73.5</ele>
        <time>2014-07-14T17:21:09Z</time>
      </trkpt>
      <trkpt lat="49.02292" lon="1.12516">
        <ele>73.5</ele>
        <time>2014-07-14T17:21:10Z</time>
      </trkpt>
      <trkpt lat="49.02298" lon="1.12513">
        <ele>73.5</ele>
        <time>2014-07-14T17:21:11Z</time>
      </trkpt>
      <trkpt lat="49.02302" lon="1.12507">
        <ele>73.5</ele>
        <time>2014-07-14T17:21:12Z</time>
      </trkpt>
      <trkpt lat="49.02308" lon="1.12498">
        <ele>73.5</ele>
        <time>2014-07-14T17:21:14Z</time>
      </trkpt>
      <trkpt lat="49.02311" lon="1.12493">
        <ele>72.5</ele>
        <time>2014-07-14T17:21:15Z</time>
      </trkpt>
      <trkpt lat="49.02314" lon="1.12487">
        <ele>72.5</ele>
        <time>2014-07-14T17:21:16Z</time>
      </trkpt>
      <trkpt lat="49.02319" lon="1.12477">
        <ele>72.5</ele>
        <time>2014-07-14T17:21:18Z</time>
      </trkpt>
      <trkpt lat="49.02324" lon="1.1247">
        <ele>72.5</ele>
        <time>2014-07-14T17:21:20Z</time>
      </trkpt>
      <trkpt lat="49.02332" lon="1.1247">
        <ele>72.5</ele>
        <time>2014-07-14T17:21:22Z</time>
      </trkpt>
      <trkpt lat="49.02336" lon="1.12473">
        <ele>73.5</ele>
        <time>2014-07-14T17:21:23Z</time>
      </trkpt>
      <trkpt lat="49.02341" lon="1.12477">
        <ele>72.5</ele>
        <time>2014-07-14T17:21:24Z</time>
      </trkpt>
      <trkpt lat="49.02346" lon="1.12489">
        <ele>72.5</ele>
        <time>2014-07-14T17:21:25Z</time>
      </trkpt>
      <trkpt lat="49.02351" lon="1.12492">
        <ele>72.5</ele>
        <time>2014-07-14T17:21:26Z</time>
      </trkpt>
      <trkpt lat="49.02356" lon="1.12495">
        <ele>71.5</ele>
        <time>2014-07-14T17:21:27Z</time>
      </trkpt>
      <trkpt lat="49.0236" lon="1.125">
        <ele>72.5</ele>
        <time>2014-07-14T17:21:28Z</time>
      </trkpt>
      <trkpt lat="49.02365" lon="1.12507">
        <ele>71.5</ele>
        <time>2014-07-14T17:21:30Z</time>
      </trkpt>
      <trkpt lat="49.02371" lon="1.12514">
        <ele>71.5</ele>
        <time>2014-07-14T17:21:32Z</time>
      </trkpt>
      <trkpt lat="49.02376" lon="1.12523">
        <ele>71.5</ele>
        <time>2014-07-14T17:21:34Z</time>
      </trkpt>
      <trkpt lat="49.02382" lon="1.12529">
        <ele>70.5</ele>
        <time>2014-07-14T17:21:36Z</time>
      </trkpt>
      <trkpt lat="49.02388" lon="1.12535">
        <ele>70.5</ele>
        <time>2014-07-14T17:21:38Z</time>
      </trkpt>
      <trkpt lat="49.02394" lon="1.1254">
        <ele>71.5</ele>
        <time>2014-07-14T17:21:40Z</time>
      </trkpt>
      <trkpt lat="49.024" lon="1.12546">
        <ele>75.5</ele>
        <time>2014-07-14T17:22:32Z</time>
      </trkpt>
      <trkpt lat="49.02406" lon="1.12544">
        <ele>74.5</ele>
        <time>2014-07-14T17:22:34Z</time>
      </trkpt>
      <trkpt lat="49.02411" lon="1.12533">
        <ele>73.5</ele>
        <time>2014-07-14T17:22:36Z</time>
      </trkpt>
      <trkpt lat="49.02413" lon="1.12527">
        <ele>73.5</ele>
        <time>2014-07-14T17:22:37Z</time>
      </trkpt>
      <trkpt lat="49.02416" lon="1.12521">
        <ele>74.5</ele>
        <time>2014-07-14T17:22:38Z</time>
      </trkpt>
      <trkpt lat="49.0242" lon="1.12517">
        <ele>74.5</ele>
        <time>2014-07-14T17:22:39Z</time>
      </trkpt>
      <trkpt lat="49.02427" lon="1.12515">
        <ele>73.5</ele>
        <time>2014-07-14T17:22:39Z</time>
      </trkpt>
      <trkpt lat="49.02432" lon="1.12511">
        <ele>74.5</ele>
        <time>2014-07-14T17:22:41Z</time>
      </trkpt>
      <trkpt lat="49.0244" lon="1.12505">
        <ele>74.5</ele>
        <time>2014-07-14T17:22:43Z</time>
      </trkpt>
      <trkpt lat="49.02448" lon="1.125">
        <ele>74.5</ele>
        <time>2014-07-14T17:22:45Z</time>
      </trkpt>
      <trkpt lat="49.02455" lon="1.12494">
        <ele>74.5</ele>
        <time>2014-07-14T17:22:47Z</time>
      </trkpt>
      <trkpt lat="49.02463" lon="1.12502">
        <ele>74.5</ele>
        <time>2014-07-14T17:22:49Z</time>
      </trkpt>
      <trkpt lat="49.02465" lon="1.12511">
        <ele>73.5</ele>
        <time>2014-07-14T17:22:50Z</time>
      </trkpt>
      <trkpt lat="49.02463" lon="1.12518">
        <ele>72.5</ele>
        <time>2014-07-14T17:22:50Z</time>
      </trkpt>
      <trkpt lat="49.02462" lon="1.12531">
        <ele>72.5</ele>
        <time>2014-07-14T17:22:53Z</time>
      </trkpt>
      <trkpt lat="49.02461" lon="1.12544">
        <ele>73.5</ele>
        <time>2014-07-14T17:22:55Z</time>
      </trkpt>
      <trkpt lat="49.02461" lon="1.12557">
        <ele>73.5</ele>
        <time>2014-07-14T17:22:57Z</time>
      </trkpt>
      <trkpt lat="49.02461" lon="1.12571">
        <ele>74.5</ele>
        <time>2014-07-14T17:22:59Z</time>
      </trkpt>
      <trkpt lat="49.0246" lon="1.12583">
        <ele>73.5</ele>
        <time>2014-07-14T17:23:01Z</time>
      </trkpt>
      <trkpt lat="49.02458" lon="1.12595">
        <ele>72.5</ele>
        <time>2014-07-14T17:23:03Z</time>
      </trkpt>
      <trkpt lat="49.02458" lon="1.12608">
        <ele>73.5</ele>
        <time>2014-07-14T17:23:05Z</time>
      </trkpt>
      <trkpt lat="49.02458" lon="1.1262">
        <ele>73.5</ele>
        <time>2014-07-14T17:23:07Z</time>
      </trkpt>
      <trkpt lat="49.02459" lon="1.12632">
        <ele>74.5</ele>
        <time>2014-07-14T17:23:09Z</time>
      </trkpt>
      <trkpt lat="49.02459" lon="1.12643">
        <ele>74.5</ele>
        <time>2014-07-14T17:23:11Z</time>
      </trkpt>
      <trkpt lat="49.02458" lon="1.12654">
        <ele>74.5</ele>
        <time>2014-07-14T17:23:13Z</time>
      </trkpt>
      <trkpt lat="49.02457" lon="1.12666">
        <ele>74.5</ele>
        <time>2014-07-14T17:23:15Z</time>
      </trkpt>
      <trkpt lat="49.02457" lon="1.12684">
        <ele>73.5</ele>
        <time>2014-07-14T17:23:17Z</time>
      </trkpt>
      <trkpt lat="49.02456" lon="1.12692">
        <ele>72.5</ele>
        <time>2014-07-14T17:23:18Z</time>
      </trkpt>
      <trkpt lat="49.02455" lon="1.127">
        <ele>72.5</ele>
        <time>2014-07-14T17:23:19Z</time>
      </trkpt>
      <trkpt lat="49.02455" lon="1.12707">
        <ele>72.5</ele>
        <time>2014-07-14T17:23:20Z</time>
      </trkpt>
      <trkpt lat="49.02455" lon="1.12714">
        <ele>73.5</ele>
        <time>2014-07-14T17:23:21Z</time>
      </trkpt>
      <trkpt lat="49.02455" lon="1.12722">
        <ele>72.5</ele>
        <time>2014-07-14T17:23:22Z</time>
      </trkpt>
      <trkpt lat="49.02453" lon="1.1273">
        <ele>72.5</ele>
        <time>2014-07-14T17:23:23Z</time>
      </trkpt>
      <trkpt lat="49.02457" lon="1.12737">
        <ele>71.5</ele>
        <time>2014-07-14T17:23:24Z</time>
      </trkpt>
      <trkpt lat="49.02458" lon="1.12745">
        <ele>71.5</ele>
        <time>2014-07-14T17:23:25Z</time>
      </trkpt>
      <trkpt lat="49.0246" lon="1.12753">
        <ele>71.5</ele>
        <time>2014-07-14T17:23:26Z</time>
      </trkpt>
      <trkpt lat="49.02461" lon="1.12761">
        <ele>71.5</ele>
        <time>2014-07-14T17:23:27Z</time>
      </trkpt>
      <trkpt lat="49.02463" lon="1.12769">
        <ele>71.5</ele>
        <time>2014-07-14T17:23:28Z</time>
      </trkpt>
      <trkpt lat="49.02465" lon="1.12782">
        <ele>70.5</ele>
        <time>2014-07-14T17:23:30Z</time>
      </trkpt>
      <trkpt lat="49.02467" lon="1.12795">
        <ele>71.5</ele>
        <time>2014-07-14T17:23:32Z</time>
      </trkpt>
      <trkpt lat="49.02471" lon="1.1281">
        <ele>71.5</ele>
        <time>2014-07-14T17:23:34Z</time>
      </trkpt>
      <trkpt lat="49.02473" lon="1.12818">
        <ele>71.5</ele>
        <time>2014-07-14T17:23:35Z</time>
      </trkpt>
      <trkpt lat="49.02475" lon="1.12825">
        <ele>70.5</ele>
        <time>2014-07-14T17:23:36Z</time>
      </trkpt>
      <trkpt lat="49.02476" lon="1.12832">
        <ele>71.5</ele>
        <time>2014-07-14T17:23:37Z</time>
      </trkpt>
      <trkpt lat="49.02477" lon="1.1284">
        <ele>71.5</ele>
        <time>2014-07-14T17:23:38Z</time>
      </trkpt>
      <trkpt lat="49.0248" lon="1.12846">
        <ele>71.5</ele>
        <time>2014-07-14T17:23:39Z</time>
      </trkpt>
      <trkpt lat="49.02483" lon="1.12854">
        <ele>71.5</ele>
        <time>2014-07-14T17:23:40Z</time>
      </trkpt>
      <trkpt lat="49.02485" lon="1.12862">
        <ele>71.5</ele>
        <time>2014-07-14T17:23:41Z</time>
      </trkpt>
      <trkpt lat="49.02487" lon="1.1287">
        <ele>71.5</ele>
        <time>2014-07-14T17:23:42Z</time>
      </trkpt>
      <trkpt lat="49.02489" lon="1.12878">
        <ele>71.5</ele>
        <time>2014-07-14T17:23:43Z</time>
      </trkpt>
      <trkpt lat="49.0249" lon="1.12887">
        <ele>71.5</ele>
        <time>2014-07-14T17:23:44Z</time>
      </trkpt>
      <trkpt lat="49.02491" lon="1.12895">
        <ele>71.5</ele>
        <time>2014-07-14T17:23:45Z</time>
      </trkpt>
      <trkpt lat="49.02492" lon="1.12903">
        <ele>71.5</ele>
        <time>2014-07-14T17:23:46Z</time>
      </trkpt>
      <trkpt lat="49.02494" lon="1.12911">
        <ele>71.5</ele>
        <time>2014-07-14T17:23:47Z</time>
      </trkpt>
      <trkpt lat="49.02495" lon="1.12925">
        <ele>70.5</ele>
        <time>2014-07-14T17:23:48Z</time>
      </trkpt>
      <trkpt lat="49.02497" lon="1.12934">
        <ele>70.5</ele>
        <time>2014-07-14T17:23:49Z</time>
      </trkpt>
      <trkpt lat="49.02498" lon="1.12941">
        <ele>70.5</ele>
        <time>2014-07-14T17:23:50Z</time>
      </trkpt>
      <trkpt lat="49.02499" lon="1.1295">
        <ele>70.5</ele>
        <time>2014-07-14T17:23:50Z</time>
      </trkpt>
      <trkpt lat="49.02499" lon="1.12959">
        <ele>70.5</ele>
        <time>2014-07-14T17:23:52Z</time>
      </trkpt>
      <trkpt lat="49.02499" lon="1.12968">
        <ele>71.5</ele>
        <time>2014-07-14T17:23:53Z</time>
      </trkpt>
      <trkpt lat="49.025" lon="1.12976">
        <ele>71.5</ele>
        <time>2014-07-14T17:23:54Z</time>
      </trkpt>
      <trkpt lat="49.025" lon="1.12987">
        <ele>71.5</ele>
        <time>2014-07-14T17:23:55Z</time>
      </trkpt>
      <trkpt lat="49.02502" lon="1.12995">
        <ele>71.5</ele>
        <time>2014-07-14T17:23:56Z</time>
      </trkpt>
      <trkpt lat="49.02507" lon="1.13003">
        <ele>70.5</ele>
        <time>2014-07-14T17:23:57Z</time>
      </trkpt>
      <trkpt lat="49.02508" lon="1.13012">
        <ele>71.5</ele>
        <time>2014-07-14T17:23:58Z</time>
      </trkpt>
      <trkpt lat="49.0251" lon="1.1302">
        <ele>70.5</ele>
        <time>2014-07-14T17:23:58Z</time>
      </trkpt>
      <trkpt lat="49.02512" lon="1.13029">
        <ele>71.5</ele>
        <time>2014-07-14T17:24:00Z</time>
      </trkpt>
      <trkpt lat="49.02514" lon="1.13037">
        <ele>71.5</ele>
        <time>2014-07-14T17:24:01Z</time>
      </trkpt>
      <trkpt lat="49.02515" lon="1.13045">
        <ele>71.5</ele>
        <time>2014-07-14T17:24:02Z</time>
      </trkpt>
      <trkpt lat="49.02517" lon="1.13054">
        <ele>70.5</ele>
        <time>2014-07-14T17:24:03Z</time>
      </trkpt>
      <trkpt lat="49.02517" lon="1.13063">
        <ele>70.5</ele>
        <time>2014-07-14T17:24:04Z</time>
      </trkpt>
      <trkpt lat="49.02519" lon="1.13071">
        <ele>70.5</ele>
        <time>2014-07-14T17:24:05Z</time>
      </trkpt>
      <trkpt lat="49.02522" lon="1.13087">
        <ele>71.5</ele>
        <time>2014-07-14T17:24:07Z</time>
      </trkpt>
      <trkpt lat="49.02524" lon="1.13096">
        <ele>71.5</ele>
        <time>2014-07-14T17:24:08Z</time>
      </trkpt>
      <trkpt lat="49.02526" lon="1.13103">
        <ele>71.5</ele>
        <time>2014-07-14T17:24:09Z</time>
      </trkpt>
      <trkpt lat="49.02527" lon="1.13111">
        <ele>70.5</ele>
        <time>2014-07-14T17:24:10Z</time>
      </trkpt>
      <trkpt lat="49.02528" lon="1.1312">
        <ele>71.5</ele>
        <time>2014-07-14T17:24:11Z</time>
      </trkpt>
      <trkpt lat="49.0253" lon="1.13128">
        <ele>71.5</ele>
        <time>2014-07-14T17:24:12Z</time>
      </trkpt>
      <trkpt lat="49.02531" lon="1.13137">
        <ele>71.5</ele>
        <time>2014-07-14T17:24:13Z</time>
      </trkpt>
      <trkpt lat="49.02533" lon="1.13145">
        <ele>71.5</ele>
        <time>2014-07-14T17:24:14Z</time>
      </trkpt>
      <trkpt lat="49.02535" lon="1.13154">
        <ele>71.5</ele>
        <time>2014-07-14T17:24:15Z</time>
      </trkpt>
      <trkpt lat="49.02535" lon="1.13163">
        <ele>71.5</ele>
        <time>2014-07-14T17:24:16Z</time>
      </trkpt>
      <trkpt lat="49.02536" lon="1.13172">
        <ele>72.5</ele>
        <time>2014-07-14T17:24:17Z</time>
      </trkpt>
      <trkpt lat="49.02537" lon="1.1318">
        <ele>71.5</ele>
        <time>2014-07-14T17:24:18Z</time>
      </trkpt>
      <trkpt lat="49.02538" lon="1.13189">
        <ele>72.5</ele>
        <time>2014-07-14T17:24:18Z</time>
      </trkpt>
      <trkpt lat="49.0254" lon="1.13197">
        <ele>71.5</ele>
        <time>2014-07-14T17:24:20Z</time>
      </trkpt>
      <trkpt lat="49.02542" lon="1.13205">
        <ele>71.5</ele>
        <time>2014-07-14T17:24:21Z</time>
      </trkpt>
      <trkpt lat="49.02543" lon="1.13213">
        <ele>71.5</ele>
        <time>2014-07-14T17:24:22Z</time>
      </trkpt>
      <trkpt lat="49.02544" lon="1.1322">
        <ele>71.5</ele>
        <time>2014-07-14T17:24:23Z</time>
      </trkpt>
      <trkpt lat="49.02545" lon="1.13228">
        <ele>71.5</ele>
        <time>2014-07-14T17:24:24Z</time>
      </trkpt>
      <trkpt lat="49.02546" lon="1.13237">
        <ele>71.5</ele>
        <time>2014-07-14T17:24:25Z</time>
      </trkpt>
      <trkpt lat="49.02547" lon="1.13245">
        <ele>72.5</ele>
        <time>2014-07-14T17:24:26Z</time>
      </trkpt>
      <trkpt lat="49.02548" lon="1.13252">
        <ele>72.5</ele>
        <time>2014-07-14T17:24:26Z</time>
      </trkpt>
      <trkpt lat="49.02549" lon="1.13261">
        <ele>73.5</ele>
        <time>2014-07-14T17:24:28Z</time>
      </trkpt>
      <trkpt lat="49.0255" lon="1.13269">
        <ele>72.5</ele>
        <time>2014-07-14T17:24:29Z</time>
      </trkpt>
      <trkpt lat="49.02552" lon="1.13277">
        <ele>73.5</ele>
        <time>2014-07-14T17:24:30Z</time>
      </trkpt>
      <trkpt lat="49.02554" lon="1.13285">
        <ele>72.5</ele>
        <time>2014-07-14T17:24:31Z</time>
      </trkpt>
      <trkpt lat="49.02555" lon="1.13293">
        <ele>72.5</ele>
        <time>2014-07-14T17:24:32Z</time>
      </trkpt>
      <trkpt lat="49.02557" lon="1.13306">
        <ele>72.5</ele>
        <time>2014-07-14T17:24:33Z</time>
      </trkpt>
      <trkpt lat="49.02558" lon="1.13315">
        <ele>71.5</ele>
        <time>2014-07-14T17:24:34Z</time>
      </trkpt>
      <trkpt lat="49.02559" lon="1.13323">
        <ele>72.5</ele>
        <time>2014-07-14T17:24:35Z</time>
      </trkpt>
      <trkpt lat="49.0256" lon="1.13331">
        <ele>71.5</ele>
        <time>2014-07-14T17:24:36Z</time>
      </trkpt>
      <trkpt lat="49.02561" lon="1.13339">
        <ele>71.5</ele>
        <time>2014-07-14T17:24:36Z</time>
      </trkpt>
      <trkpt lat="49.02562" lon="1.13347">
        <ele>71.5</ele>
        <time>2014-07-14T17:24:37Z</time>
      </trkpt>
      <trkpt lat="49.02564" lon="1.13355">
        <ele>71.5</ele>
        <time>2014-07-14T17:24:39Z</time>
      </trkpt>
      <trkpt lat="49.02565" lon="1.13363">
        <ele>71.5</ele>
        <time>2014-07-14T17:24:40Z</time>
      </trkpt>
      <trkpt lat="49.02568" lon="1.1337">
        <ele>71.5</ele>
        <time>2014-07-14T17:24:41Z</time>
      </trkpt>
      <trkpt lat="49.0257" lon="1.13379">
        <ele>71.5</ele>
        <time>2014-07-14T17:24:42Z</time>
      </trkpt>
      <trkpt lat="49.0257" lon="1.13389">
        <ele>71.5</ele>
        <time>2014-07-14T17:24:43Z</time>
      </trkpt>
      <trkpt lat="49.02572" lon="1.13398">
        <ele>71.5</ele>
        <time>2014-07-14T17:24:44Z</time>
      </trkpt>
      <trkpt lat="49.02575" lon="1.1342">
        <ele>70.5</ele>
        <time>2014-07-14T17:24:46Z</time>
      </trkpt>
      <trkpt lat="49.02576" lon="1.1343">
        <ele>70.5</ele>
        <time>2014-07-14T17:24:47Z</time>
      </trkpt>
      <trkpt lat="49.02577" lon="1.13439">
        <ele>70.5</ele>
        <time>2014-07-14T17:24:48Z</time>
      </trkpt>
      <trkpt lat="49.02577" lon="1.13451">
        <ele>71.5</ele>
        <time>2014-07-14T17:24:49Z</time>
      </trkpt>
      <trkpt lat="49.02578" lon="1.13462">
        <ele>72.5</ele>
        <time>2014-07-14T17:24:50Z</time>
      </trkpt>
      <trkpt lat="49.02579" lon="1.13472">
        <ele>72.5</ele>
        <time>2014-07-14T17:24:50Z</time>
      </trkpt>
      <trkpt lat="49.0258" lon="1.13482">
        <ele>72.5</ele>
        <time>2014-07-14T17:24:52Z</time>
      </trkpt>
      <trkpt lat="49.02582" lon="1.13492">
        <ele>72.5</ele>
        <time>2014-07-14T17:24:53Z</time>
      </trkpt>
      <trkpt lat="49.02584" lon="1.13502">
        <ele>71.5</ele>
        <time>2014-07-14T17:24:54Z</time>
      </trkpt>
      <trkpt lat="49.02586" lon="1.13511">
        <ele>72.5</ele>
        <time>2014-07-14T17:24:55Z</time>
      </trkpt>
      <trkpt lat="49.02586" lon="1.13521">
        <ele>72.5</ele>
        <time>2014-07-14T17:24:56Z</time>
      </trkpt>
      <trkpt lat="49.02588" lon="1.13531">
        <ele>71.5</ele>
        <time>2014-07-14T17:24:57Z</time>
      </trkpt>
      <trkpt lat="49.02588" lon="1.1354">
        <ele>72.5</ele>
        <time>2014-07-14T17:24:58Z</time>
      </trkpt>
      <trkpt lat="49.02591" lon="1.1355">
        <ele>70.5</ele>
        <time>2014-07-14T17:24:59Z</time>
      </trkpt>
      <trkpt lat="49.02593" lon="1.13559">
        <ele>71.5</ele>
        <time>2014-07-14T17:25:00Z</time>
      </trkpt>
      <trkpt lat="49.02595" lon="1.13568">
        <ele>71.5</ele>
        <time>2014-07-14T17:25:01Z</time>
      </trkpt>
      <trkpt lat="49.02597" lon="1.13576">
        <ele>71.5</ele>
        <time>2014-07-14T17:25:02Z</time>
      </trkpt>
      <trkpt lat="49.02598" lon="1.13583">
        <ele>71.5</ele>
        <time>2014-07-14T17:25:03Z</time>
      </trkpt>
      <trkpt lat="49.02596" lon="1.13599">
        <ele>70.5</ele>
        <time>2014-07-14T17:25:05Z</time>
      </trkpt>
      <trkpt lat="49.02592" lon="1.13605">
        <ele>70.5</ele>
        <time>2014-07-14T17:25:06Z</time>
      </trkpt>
      <trkpt lat="49.02586" lon="1.13608">
        <ele>69.5</ele>
        <time>2014-07-14T17:25:06Z</time>
      </trkpt>
      <trkpt lat="49.02581" lon="1.13611">
        <ele>69.5</ele>
        <time>2014-07-14T17:25:07Z</time>
      </trkpt>
      <trkpt lat="49.02576" lon="1.13614">
        <ele>69.5</ele>
        <time>2014-07-14T17:25:09Z</time>
      </trkpt>
      <trkpt lat="49.02571" lon="1.13618">
        <ele>69.5</ele>
        <time>2014-07-14T17:25:10Z</time>
      </trkpt>
      <trkpt lat="49.0256" lon="1.13625">
        <ele>69.5</ele>
        <time>2014-07-14T17:25:12Z</time>
      </trkpt>
      <trkpt lat="49.02556" lon="1.13628">
        <ele>69.5</ele>
        <time>2014-07-14T17:25:13Z</time>
      </trkpt>
      <trkpt lat="49.02551" lon="1.13631">
        <ele>69.5</ele>
        <time>2014-07-14T17:25:14Z</time>
      </trkpt>
      <trkpt lat="49.02545" lon="1.13635">
        <ele>69.5</ele>
        <time>2014-07-14T17:25:15Z</time>
      </trkpt>
      <trkpt lat="49.02541" lon="1.1364">
        <ele>69.5</ele>
        <time>2014-07-14T17:25:16Z</time>
      </trkpt>
      <trkpt lat="49.02536" lon="1.13645">
        <ele>69.5</ele>
        <time>2014-07-14T17:25:17Z</time>
      </trkpt>
      <trkpt lat="49.02531" lon="1.13647">
        <ele>69.5</ele>
        <time>2014-07-14T17:25:18Z</time>
      </trkpt>
      <trkpt lat="49.02524" lon="1.13653">
        <ele>67.5</ele>
        <time>2014-07-14T17:25:20Z</time>
      </trkpt>
      <trkpt lat="49.02519" lon="1.13657">
        <ele>67.5</ele>
        <time>2014-07-14T17:25:21Z</time>
      </trkpt>
      <trkpt lat="49.02515" lon="1.13663">
        <ele>66.5</ele>
        <time>2014-07-14T17:25:22Z</time>
      </trkpt>
      <trkpt lat="49.02512" lon="1.13668">
        <ele>67.5</ele>
        <time>2014-07-14T17:25:23Z</time>
      </trkpt>
      <trkpt lat="49.02508" lon="1.13673">
        <ele>67.5</ele>
        <time>2014-07-14T17:25:24Z</time>
      </trkpt>
      <trkpt lat="49.02502" lon="1.13684">
        <ele>67.5</ele>
        <time>2014-07-14T17:25:26Z</time>
      </trkpt>
      <trkpt lat="49.02495" lon="1.13692">
        <ele>67.5</ele>
        <time>2014-07-14T17:25:28Z</time>
      </trkpt>
      <trkpt lat="49.0249" lon="1.13695">
        <ele>67.5</ele>
        <time>2014-07-14T17:25:29Z</time>
      </trkpt>
      <trkpt lat="49.02487" lon="1.13699">
        <ele>68.5</ele>
        <time>2014-07-14T17:25:31Z</time>
      </trkpt>
      <trkpt lat="49.02482" lon="1.13696">
        <ele>67.5</ele>
        <time>2014-07-14T17:25:34Z</time>
      </trkpt>
    </trkseg>
  </trk>
</gpx>